<?xml version="1.0" encoding="UTF-8" standalone="no" ?>
<gpx xmlns="http://www.topografix.com/GPX/1/1" xmlns:xsi="http://www.w3.org/2001/XMLSchema-instance" xsi:schemaLocation="http://www.topografix.com/GPX/1/1 http://www.topografix.com/GPX/1/1/gpx.xsd" version="1.1" creator="VisuGPX - https://www.visugpx.com">
  <metadata>
    <name>2009 LAGAHL</name>
    <desc><![CDATA[Lozère-Aveyron-Gard-Ardèche-Haute Loire]]></desc>
  </metadata>
  <trk>
    <name><![CDATA[C01]]></name>
    <trkseg>
      <trkpt lat="44.30138" lon="3.4161">
        <ele>904</ele>
        <time>2009-07-08T06:40:57Z</time>
      </trkpt>
      <trkpt lat="44.3014" lon="3.4161">
        <ele>907</ele>
        <time>2009-07-08T06:41:05Z</time>
      </trkpt>
      <trkpt lat="44.3014" lon="3.4161">
        <ele>910</ele>
        <time>2009-07-08T06:41:08Z</time>
      </trkpt>
      <trkpt lat="44.30139" lon="3.4161">
        <ele>910</ele>
        <time>2009-07-08T06:41:09Z</time>
      </trkpt>
      <trkpt lat="44.3014" lon="3.4161">
        <ele>911</ele>
        <time>2009-07-08T06:41:11Z</time>
      </trkpt>
      <trkpt lat="44.30139" lon="3.4161">
        <ele>916</ele>
        <time>2009-07-08T06:41:14Z</time>
      </trkpt>
      <trkpt lat="44.30139" lon="3.4161">
        <ele>920</ele>
        <time>2009-07-08T06:41:20Z</time>
      </trkpt>
      <trkpt lat="44.30139" lon="3.4161">
        <ele>923</ele>
        <time>2009-07-08T06:41:26Z</time>
      </trkpt>
      <trkpt lat="44.30139" lon="3.4161">
        <ele>927</ele>
        <time>2009-07-08T06:41:34Z</time>
      </trkpt>
      <trkpt lat="44.30139" lon="3.4161">
        <ele>927</ele>
        <time>2009-07-08T06:41:35Z</time>
      </trkpt>
      <trkpt lat="44.30139" lon="3.4161">
        <ele>929</ele>
        <time>2009-07-08T06:41:41Z</time>
      </trkpt>
      <trkpt lat="44.30139" lon="3.41611">
        <ele>933</ele>
        <time>2009-07-08T06:41:54Z</time>
      </trkpt>
      <trkpt lat="44.30139" lon="3.41611">
        <ele>936</ele>
        <time>2009-07-08T06:42:04Z</time>
      </trkpt>
      <trkpt lat="44.30139" lon="3.4161">
        <ele>936</ele>
        <time>2009-07-08T06:42:05Z</time>
      </trkpt>
      <trkpt lat="44.30139" lon="3.4161">
        <ele>934</ele>
        <time>2009-07-08T06:42:07Z</time>
      </trkpt>
      <trkpt lat="44.30139" lon="3.4161">
        <ele>935</ele>
        <time>2009-07-08T06:42:27Z</time>
      </trkpt>
      <trkpt lat="44.30138" lon="3.41611">
        <ele>938</ele>
        <time>2009-07-08T06:45:57Z</time>
      </trkpt>
      <trkpt lat="44.30137" lon="3.4161">
        <ele>937</ele>
        <time>2009-07-08T06:48:34Z</time>
      </trkpt>
      <trkpt lat="44.30134" lon="3.41607">
        <ele>937</ele>
        <time>2009-07-08T06:48:55Z</time>
      </trkpt>
      <trkpt lat="44.30131" lon="3.41604">
        <ele>938</ele>
        <time>2009-07-08T06:49:22Z</time>
      </trkpt>
      <trkpt lat="44.30135" lon="3.41599">
        <ele>938</ele>
        <time>2009-07-08T06:49:40Z</time>
      </trkpt>
      <trkpt lat="44.30136" lon="3.416">
        <ele>938</ele>
        <time>2009-07-08T06:50:19Z</time>
      </trkpt>
      <trkpt lat="44.30137" lon="3.41602">
        <ele>937</ele>
        <time>2009-07-08T06:51:12Z</time>
      </trkpt>
      <trkpt lat="44.30135" lon="3.41602">
        <ele>938</ele>
        <time>2009-07-08T06:51:35Z</time>
      </trkpt>
      <trkpt lat="44.30135" lon="3.41602">
        <ele>938</ele>
        <time>2009-07-08T06:51:36Z</time>
      </trkpt>
      <trkpt lat="44.3013" lon="3.41598">
        <ele>938</ele>
        <time>2009-07-08T06:51:40Z</time>
      </trkpt>
      <trkpt lat="44.30123" lon="3.41593">
        <ele>938</ele>
        <time>2009-07-08T06:51:44Z</time>
      </trkpt>
      <trkpt lat="44.30119" lon="3.41593">
        <ele>935</ele>
        <time>2009-07-08T06:51:55Z</time>
      </trkpt>
      <trkpt lat="44.30119" lon="3.41593">
        <ele>940</ele>
        <time>2009-07-08T06:51:56Z</time>
      </trkpt>
      <trkpt lat="44.30119" lon="3.41593">
        <ele>937</ele>
        <time>2009-07-08T06:51:58Z</time>
      </trkpt>
      <trkpt lat="44.30119" lon="3.41595">
        <ele>936</ele>
        <time>2009-07-08T06:52:44Z</time>
      </trkpt>
      <trkpt lat="44.30119" lon="3.41597">
        <ele>938</ele>
        <time>2009-07-08T06:54:05Z</time>
      </trkpt>
      <trkpt lat="44.30102" lon="3.41613">
        <ele>936</ele>
        <time>2009-07-08T06:54:14Z</time>
      </trkpt>
      <trkpt lat="44.30085" lon="3.41623">
        <ele>936</ele>
        <time>2009-07-08T06:54:19Z</time>
      </trkpt>
      <trkpt lat="44.30024" lon="3.41593">
        <ele>937</ele>
        <time>2009-07-08T06:54:35Z</time>
      </trkpt>
      <trkpt lat="44.29979" lon="3.41552">
        <ele>939</ele>
        <time>2009-07-08T06:54:50Z</time>
      </trkpt>
      <trkpt lat="44.29969" lon="3.41541">
        <ele>942</ele>
        <time>2009-07-08T06:54:55Z</time>
      </trkpt>
      <trkpt lat="44.29966" lon="3.41539">
        <ele>942</ele>
        <time>2009-07-08T06:54:56Z</time>
      </trkpt>
      <trkpt lat="44.2995" lon="3.41517">
        <ele>946</ele>
        <time>2009-07-08T06:55:05Z</time>
      </trkpt>
      <trkpt lat="44.29934" lon="3.41456">
        <ele>949</ele>
        <time>2009-07-08T06:55:22Z</time>
      </trkpt>
      <trkpt lat="44.29928" lon="3.41377">
        <ele>949</ele>
        <time>2009-07-08T06:55:41Z</time>
      </trkpt>
      <trkpt lat="44.2995" lon="3.41296">
        <ele>949</ele>
        <time>2009-07-08T06:55:59Z</time>
      </trkpt>
      <trkpt lat="44.2997" lon="3.4124">
        <ele>952</ele>
        <time>2009-07-08T06:56:12Z</time>
      </trkpt>
      <trkpt lat="44.29989" lon="3.41184">
        <ele>953</ele>
        <time>2009-07-08T06:56:29Z</time>
      </trkpt>
      <trkpt lat="44.29996" lon="3.41163">
        <ele>955</ele>
        <time>2009-07-08T06:56:36Z</time>
      </trkpt>
      <trkpt lat="44.30016" lon="3.41121">
        <ele>956</ele>
        <time>2009-07-08T06:56:51Z</time>
      </trkpt>
      <trkpt lat="44.30049" lon="3.41081">
        <ele>957</ele>
        <time>2009-07-08T06:57:08Z</time>
      </trkpt>
      <trkpt lat="44.30085" lon="3.41053">
        <ele>960</ele>
        <time>2009-07-08T06:57:25Z</time>
      </trkpt>
      <trkpt lat="44.30099" lon="3.41042">
        <ele>964</ele>
        <time>2009-07-08T06:57:32Z</time>
      </trkpt>
      <trkpt lat="44.30124" lon="3.41022">
        <ele>967</ele>
        <time>2009-07-08T06:57:46Z</time>
      </trkpt>
      <trkpt lat="44.30157" lon="3.40967">
        <ele>968</ele>
        <time>2009-07-08T06:58:09Z</time>
      </trkpt>
      <trkpt lat="44.30169" lon="3.40942">
        <ele>970</ele>
        <time>2009-07-08T06:58:18Z</time>
      </trkpt>
      <trkpt lat="44.30196" lon="3.40878">
        <ele>972</ele>
        <time>2009-07-08T06:58:40Z</time>
      </trkpt>
      <trkpt lat="44.30213" lon="3.40806">
        <ele>975</ele>
        <time>2009-07-08T06:59:02Z</time>
      </trkpt>
      <trkpt lat="44.30231" lon="3.4076">
        <ele>975</ele>
        <time>2009-07-08T06:59:16Z</time>
      </trkpt>
      <trkpt lat="44.30265" lon="3.40711">
        <ele>977</ele>
        <time>2009-07-08T06:59:35Z</time>
      </trkpt>
      <trkpt lat="44.30284" lon="3.40685">
        <ele>980</ele>
        <time>2009-07-08T06:59:45Z</time>
      </trkpt>
      <trkpt lat="44.3032" lon="3.4062">
        <ele>982</ele>
        <time>2009-07-08T07:00:07Z</time>
      </trkpt>
      <trkpt lat="44.30359" lon="3.40555">
        <ele>986</ele>
        <time>2009-07-08T07:00:29Z</time>
      </trkpt>
      <trkpt lat="44.30373" lon="3.40531">
        <ele>988</ele>
        <time>2009-07-08T07:00:37Z</time>
      </trkpt>
      <trkpt lat="44.30391" lon="3.40468">
        <ele>991</ele>
        <time>2009-07-08T07:00:54Z</time>
      </trkpt>
      <trkpt lat="44.30398" lon="3.40432">
        <ele>991</ele>
        <time>2009-07-08T07:01:03Z</time>
      </trkpt>
      <trkpt lat="44.30406" lon="3.40395">
        <ele>993</ele>
        <time>2009-07-08T07:01:12Z</time>
      </trkpt>
      <trkpt lat="44.30433" lon="3.40313">
        <ele>992</ele>
        <time>2009-07-08T07:01:31Z</time>
      </trkpt>
      <trkpt lat="44.3047" lon="3.40206">
        <ele>992</ele>
        <time>2009-07-08T07:01:53Z</time>
      </trkpt>
      <trkpt lat="44.30489" lon="3.40162">
        <ele>993</ele>
        <time>2009-07-08T07:02:04Z</time>
      </trkpt>
      <trkpt lat="44.3046" lon="3.40118">
        <ele>991</ele>
        <time>2009-07-08T07:02:15Z</time>
      </trkpt>
      <trkpt lat="44.30457" lon="3.40113">
        <ele>991</ele>
        <time>2009-07-08T07:02:16Z</time>
      </trkpt>
      <trkpt lat="44.30447" lon="3.40089">
        <ele>989</ele>
        <time>2009-07-08T07:02:20Z</time>
      </trkpt>
      <trkpt lat="44.30401" lon="3.40035">
        <ele>991</ele>
        <time>2009-07-08T07:02:35Z</time>
      </trkpt>
      <trkpt lat="44.30369" lon="3.39994">
        <ele>993</ele>
        <time>2009-07-08T07:02:46Z</time>
      </trkpt>
      <trkpt lat="44.3033" lon="3.39947">
        <ele>996</ele>
        <time>2009-07-08T07:03:01Z</time>
      </trkpt>
      <trkpt lat="44.30301" lon="3.39894">
        <ele>999</ele>
        <time>2009-07-08T07:03:17Z</time>
      </trkpt>
      <trkpt lat="44.30282" lon="3.39825">
        <ele>1001</ele>
        <time>2009-07-08T07:03:34Z</time>
      </trkpt>
      <trkpt lat="44.30292" lon="3.39797">
        <ele>1001</ele>
        <time>2009-07-08T07:03:44Z</time>
      </trkpt>
      <trkpt lat="44.30301" lon="3.39791">
        <ele>1002</ele>
        <time>2009-07-08T07:03:53Z</time>
      </trkpt>
      <trkpt lat="44.30324" lon="3.39773">
        <ele>1000</ele>
        <time>2009-07-08T07:04:13Z</time>
      </trkpt>
      <trkpt lat="44.30345" lon="3.39753">
        <ele>998</ele>
        <time>2009-07-08T07:04:22Z</time>
      </trkpt>
      <trkpt lat="44.30367" lon="3.39722">
        <ele>995</ele>
        <time>2009-07-08T07:04:32Z</time>
      </trkpt>
      <trkpt lat="44.30383" lon="3.397">
        <ele>992</ele>
        <time>2009-07-08T07:04:38Z</time>
      </trkpt>
      <trkpt lat="44.30414" lon="3.3967">
        <ele>990</ele>
        <time>2009-07-08T07:04:46Z</time>
      </trkpt>
      <trkpt lat="44.30419" lon="3.39665">
        <ele>988</ele>
        <time>2009-07-08T07:04:47Z</time>
      </trkpt>
      <trkpt lat="44.30438" lon="3.3965">
        <ele>984</ele>
        <time>2009-07-08T07:04:50Z</time>
      </trkpt>
      <trkpt lat="44.30462" lon="3.39634">
        <ele>980</ele>
        <time>2009-07-08T07:04:53Z</time>
      </trkpt>
      <trkpt lat="44.3047" lon="3.39629">
        <ele>979</ele>
        <time>2009-07-08T07:04:54Z</time>
      </trkpt>
      <trkpt lat="44.30514" lon="3.39619">
        <ele>980</ele>
        <time>2009-07-08T07:04:59Z</time>
      </trkpt>
      <trkpt lat="44.30526" lon="3.39596">
        <ele>981</ele>
        <time>2009-07-08T07:05:04Z</time>
      </trkpt>
      <trkpt lat="44.30519" lon="3.39542">
        <ele>981</ele>
        <time>2009-07-08T07:05:12Z</time>
      </trkpt>
      <trkpt lat="44.30523" lon="3.39523">
        <ele>979</ele>
        <time>2009-07-08T07:05:15Z</time>
      </trkpt>
      <trkpt lat="44.30531" lon="3.39514">
        <ele>977</ele>
        <time>2009-07-08T07:05:17Z</time>
      </trkpt>
      <trkpt lat="44.30565" lon="3.39491">
        <ele>978</ele>
        <time>2009-07-08T07:05:25Z</time>
      </trkpt>
      <trkpt lat="44.30587" lon="3.39468">
        <ele>976</ele>
        <time>2009-07-08T07:05:31Z</time>
      </trkpt>
      <trkpt lat="44.30589" lon="3.39462">
        <ele>975</ele>
        <time>2009-07-08T07:05:32Z</time>
      </trkpt>
      <trkpt lat="44.30601" lon="3.39432">
        <ele>970</ele>
        <time>2009-07-08T07:05:36Z</time>
      </trkpt>
      <trkpt lat="44.30614" lon="3.39379">
        <ele>965</ele>
        <time>2009-07-08T07:05:41Z</time>
      </trkpt>
      <trkpt lat="44.30618" lon="3.39368">
        <ele>961</ele>
        <time>2009-07-08T07:05:42Z</time>
      </trkpt>
      <trkpt lat="44.30634" lon="3.39335">
        <ele>957</ele>
        <time>2009-07-08T07:05:45Z</time>
      </trkpt>
      <trkpt lat="44.30647" lon="3.39315">
        <ele>954</ele>
        <time>2009-07-08T07:05:47Z</time>
      </trkpt>
      <trkpt lat="44.30659" lon="3.39283">
        <ele>951</ele>
        <time>2009-07-08T07:05:50Z</time>
      </trkpt>
      <trkpt lat="44.30661" lon="3.39271">
        <ele>950</ele>
        <time>2009-07-08T07:05:51Z</time>
      </trkpt>
      <trkpt lat="44.30665" lon="3.39244">
        <ele>947</ele>
        <time>2009-07-08T07:05:53Z</time>
      </trkpt>
      <trkpt lat="44.30665" lon="3.39187">
        <ele>944</ele>
        <time>2009-07-08T07:05:57Z</time>
      </trkpt>
      <trkpt lat="44.30664" lon="3.39142">
        <ele>940</ele>
        <time>2009-07-08T07:06:00Z</time>
      </trkpt>
      <trkpt lat="44.3067" lon="3.39102">
        <ele>938</ele>
        <time>2009-07-08T07:06:03Z</time>
      </trkpt>
      <trkpt lat="44.30669" lon="3.39045">
        <ele>935</ele>
        <time>2009-07-08T07:06:09Z</time>
      </trkpt>
      <trkpt lat="44.30648" lon="3.38894">
        <ele>934</ele>
        <time>2009-07-08T07:06:26Z</time>
      </trkpt>
      <trkpt lat="44.30644" lon="3.38867">
        <ele>936</ele>
        <time>2009-07-08T07:06:30Z</time>
      </trkpt>
      <trkpt lat="44.30652" lon="3.38774">
        <ele>935</ele>
        <time>2009-07-08T07:06:46Z</time>
      </trkpt>
      <trkpt lat="44.30651" lon="3.38734">
        <ele>935</ele>
        <time>2009-07-08T07:06:53Z</time>
      </trkpt>
      <trkpt lat="44.30643" lon="3.38684">
        <ele>932</ele>
        <time>2009-07-08T07:07:01Z</time>
      </trkpt>
      <trkpt lat="44.30627" lon="3.38617">
        <ele>930</ele>
        <time>2009-07-08T07:07:11Z</time>
      </trkpt>
      <trkpt lat="44.30617" lon="3.38519">
        <ele>927</ele>
        <time>2009-07-08T07:07:26Z</time>
      </trkpt>
      <trkpt lat="44.30617" lon="3.38513">
        <ele>927</ele>
        <time>2009-07-08T07:07:27Z</time>
      </trkpt>
      <trkpt lat="44.30634" lon="3.38423">
        <ele>924</ele>
        <time>2009-07-08T07:07:40Z</time>
      </trkpt>
      <trkpt lat="44.30636" lon="3.38415">
        <ele>924</ele>
        <time>2009-07-08T07:07:41Z</time>
      </trkpt>
      <trkpt lat="44.30643" lon="3.38382">
        <ele>920</ele>
        <time>2009-07-08T07:07:45Z</time>
      </trkpt>
      <trkpt lat="44.30645" lon="3.38374">
        <ele>921</ele>
        <time>2009-07-08T07:07:46Z</time>
      </trkpt>
      <trkpt lat="44.3065" lon="3.38358">
        <ele>920</ele>
        <time>2009-07-08T07:07:48Z</time>
      </trkpt>
      <trkpt lat="44.30658" lon="3.38343">
        <ele>918</ele>
        <time>2009-07-08T07:07:50Z</time>
      </trkpt>
      <trkpt lat="44.30667" lon="3.38291">
        <ele>917</ele>
        <time>2009-07-08T07:07:56Z</time>
      </trkpt>
      <trkpt lat="44.30661" lon="3.38222">
        <ele>916</ele>
        <time>2009-07-08T07:08:04Z</time>
      </trkpt>
      <trkpt lat="44.30664" lon="3.38196">
        <ele>914</ele>
        <time>2009-07-08T07:08:07Z</time>
      </trkpt>
      <trkpt lat="44.3067" lon="3.38161">
        <ele>912</ele>
        <time>2009-07-08T07:08:11Z</time>
      </trkpt>
      <trkpt lat="44.30663" lon="3.38107">
        <ele>911</ele>
        <time>2009-07-08T07:08:17Z</time>
      </trkpt>
      <trkpt lat="44.30662" lon="3.38044">
        <ele>905</ele>
        <time>2009-07-08T07:08:22Z</time>
      </trkpt>
      <trkpt lat="44.30666" lon="3.38">
        <ele>896</ele>
        <time>2009-07-08T07:08:25Z</time>
      </trkpt>
      <trkpt lat="44.30666" lon="3.37943">
        <ele>892</ele>
        <time>2009-07-08T07:08:29Z</time>
      </trkpt>
      <trkpt lat="44.30668" lon="3.37916">
        <ele>891</ele>
        <time>2009-07-08T07:08:31Z</time>
      </trkpt>
      <trkpt lat="44.30676" lon="3.3789">
        <ele>886</ele>
        <time>2009-07-08T07:08:33Z</time>
      </trkpt>
      <trkpt lat="44.30686" lon="3.37863">
        <ele>885</ele>
        <time>2009-07-08T07:08:35Z</time>
      </trkpt>
      <trkpt lat="44.3069" lon="3.37849">
        <ele>883</ele>
        <time>2009-07-08T07:08:36Z</time>
      </trkpt>
      <trkpt lat="44.30714" lon="3.37796">
        <ele>878</ele>
        <time>2009-07-08T07:08:40Z</time>
      </trkpt>
      <trkpt lat="44.30728" lon="3.37769">
        <ele>874</ele>
        <time>2009-07-08T07:08:42Z</time>
      </trkpt>
      <trkpt lat="44.30755" lon="3.37726">
        <ele>870</ele>
        <time>2009-07-08T07:08:46Z</time>
      </trkpt>
      <trkpt lat="44.30769" lon="3.37696">
        <ele>865</ele>
        <time>2009-07-08T07:08:49Z</time>
      </trkpt>
      <trkpt lat="44.30773" lon="3.37685">
        <ele>862</ele>
        <time>2009-07-08T07:08:50Z</time>
      </trkpt>
      <trkpt lat="44.3079" lon="3.37654">
        <ele>858</ele>
        <time>2009-07-08T07:08:53Z</time>
      </trkpt>
      <trkpt lat="44.30796" lon="3.37643">
        <ele>859</ele>
        <time>2009-07-08T07:08:54Z</time>
      </trkpt>
      <trkpt lat="44.30806" lon="3.37618">
        <ele>854</ele>
        <time>2009-07-08T07:08:56Z</time>
      </trkpt>
      <trkpt lat="44.30816" lon="3.37577">
        <ele>853</ele>
        <time>2009-07-08T07:08:59Z</time>
      </trkpt>
      <trkpt lat="44.30819" lon="3.37563">
        <ele>852</ele>
        <time>2009-07-08T07:09:00Z</time>
      </trkpt>
      <trkpt lat="44.30834" lon="3.3751">
        <ele>847</ele>
        <time>2009-07-08T07:09:04Z</time>
      </trkpt>
      <trkpt lat="44.30837" lon="3.3747">
        <ele>846</ele>
        <time>2009-07-08T07:09:07Z</time>
      </trkpt>
      <trkpt lat="44.30835" lon="3.37457">
        <ele>846</ele>
        <time>2009-07-08T07:09:08Z</time>
      </trkpt>
      <trkpt lat="44.30838" lon="3.37388">
        <ele>841</ele>
        <time>2009-07-08T07:09:13Z</time>
      </trkpt>
      <trkpt lat="44.30853" lon="3.37308">
        <ele>841</ele>
        <time>2009-07-08T07:09:22Z</time>
      </trkpt>
      <trkpt lat="44.30855" lon="3.37298">
        <ele>842</ele>
        <time>2009-07-08T07:09:32Z</time>
      </trkpt>
      <trkpt lat="44.30856" lon="3.37297">
        <ele>842</ele>
        <time>2009-07-08T07:10:38Z</time>
      </trkpt>
      <trkpt lat="44.30856" lon="3.37294">
        <ele>841</ele>
        <time>2009-07-08T07:10:49Z</time>
      </trkpt>
      <trkpt lat="44.30854" lon="3.37293">
        <ele>840</ele>
        <time>2009-07-08T07:13:50Z</time>
      </trkpt>
      <trkpt lat="44.30855" lon="3.37293">
        <ele>841</ele>
        <time>2009-07-08T07:15:16Z</time>
      </trkpt>
      <trkpt lat="44.30864" lon="3.37266">
        <ele>840</ele>
        <time>2009-07-08T07:15:26Z</time>
      </trkpt>
      <trkpt lat="44.30878" lon="3.37223">
        <ele>838</ele>
        <time>2009-07-08T07:15:34Z</time>
      </trkpt>
      <trkpt lat="44.30881" lon="3.37198">
        <ele>837</ele>
        <time>2009-07-08T07:15:38Z</time>
      </trkpt>
      <trkpt lat="44.30878" lon="3.37174">
        <ele>838</ele>
        <time>2009-07-08T07:15:42Z</time>
      </trkpt>
      <trkpt lat="44.30832" lon="3.37061">
        <ele>836</ele>
        <time>2009-07-08T07:16:00Z</time>
      </trkpt>
      <trkpt lat="44.3083" lon="3.37054">
        <ele>835</ele>
        <time>2009-07-08T07:16:01Z</time>
      </trkpt>
      <trkpt lat="44.30788" lon="3.3697">
        <ele>835</ele>
        <time>2009-07-08T07:16:16Z</time>
      </trkpt>
      <trkpt lat="44.3078" lon="3.36952">
        <ele>835</ele>
        <time>2009-07-08T07:16:19Z</time>
      </trkpt>
      <trkpt lat="44.30777" lon="3.36879">
        <ele>836</ele>
        <time>2009-07-08T07:16:31Z</time>
      </trkpt>
      <trkpt lat="44.30778" lon="3.36868">
        <ele>836</ele>
        <time>2009-07-08T07:16:33Z</time>
      </trkpt>
      <trkpt lat="44.30768" lon="3.36805">
        <ele>839</ele>
        <time>2009-07-08T07:16:46Z</time>
      </trkpt>
      <trkpt lat="44.30755" lon="3.36732">
        <ele>842</ele>
        <time>2009-07-08T07:17:05Z</time>
      </trkpt>
      <trkpt lat="44.3075" lon="3.36694">
        <ele>845</ele>
        <time>2009-07-08T07:17:15Z</time>
      </trkpt>
      <trkpt lat="44.30745" lon="3.36653">
        <ele>848</ele>
        <time>2009-07-08T07:17:28Z</time>
      </trkpt>
      <trkpt lat="44.30748" lon="3.3665">
        <ele>850</ele>
        <time>2009-07-08T07:17:30Z</time>
      </trkpt>
      <trkpt lat="44.30754" lon="3.36647">
        <ele>851</ele>
        <time>2009-07-08T07:17:33Z</time>
      </trkpt>
      <trkpt lat="44.30758" lon="3.36636">
        <ele>852</ele>
        <time>2009-07-08T07:17:38Z</time>
      </trkpt>
      <trkpt lat="44.30762" lon="3.36599">
        <ele>854</ele>
        <time>2009-07-08T07:17:50Z</time>
      </trkpt>
      <trkpt lat="44.30773" lon="3.36557">
        <ele>857</ele>
        <time>2009-07-08T07:18:06Z</time>
      </trkpt>
      <trkpt lat="44.30769" lon="3.36524">
        <ele>857</ele>
        <time>2009-07-08T07:18:20Z</time>
      </trkpt>
      <trkpt lat="44.30767" lon="3.36517">
        <ele>858</ele>
        <time>2009-07-08T07:18:24Z</time>
      </trkpt>
      <trkpt lat="44.30755" lon="3.36487">
        <ele>858</ele>
        <time>2009-07-08T07:18:41Z</time>
      </trkpt>
      <trkpt lat="44.30742" lon="3.36455">
        <ele>860</ele>
        <time>2009-07-08T07:18:55Z</time>
      </trkpt>
      <trkpt lat="44.30734" lon="3.36422">
        <ele>862</ele>
        <time>2009-07-08T07:19:07Z</time>
      </trkpt>
      <trkpt lat="44.30734" lon="3.36414">
        <ele>861</ele>
        <time>2009-07-08T07:19:17Z</time>
      </trkpt>
      <trkpt lat="44.30734" lon="3.36414">
        <ele>861</ele>
        <time>2009-07-08T07:19:48Z</time>
      </trkpt>
      <trkpt lat="44.30735" lon="3.36416">
        <ele>860</ele>
        <time>2009-07-08T07:20:41Z</time>
      </trkpt>
      <trkpt lat="44.30735" lon="3.36415">
        <ele>860</ele>
        <time>2009-07-08T07:21:02Z</time>
      </trkpt>
      <trkpt lat="44.30751" lon="3.36396">
        <ele>860</ele>
        <time>2009-07-08T07:21:13Z</time>
      </trkpt>
      <trkpt lat="44.30754" lon="3.36354">
        <ele>862</ele>
        <time>2009-07-08T07:21:26Z</time>
      </trkpt>
      <trkpt lat="44.30757" lon="3.36293">
        <ele>864</ele>
        <time>2009-07-08T07:21:45Z</time>
      </trkpt>
      <trkpt lat="44.30773" lon="3.3624">
        <ele>867</ele>
        <time>2009-07-08T07:22:03Z</time>
      </trkpt>
      <trkpt lat="44.30789" lon="3.36196">
        <ele>870</ele>
        <time>2009-07-08T07:22:18Z</time>
      </trkpt>
      <trkpt lat="44.30822" lon="3.36151">
        <ele>870</ele>
        <time>2009-07-08T07:22:35Z</time>
      </trkpt>
      <trkpt lat="44.30869" lon="3.36113">
        <ele>870</ele>
        <time>2009-07-08T07:22:51Z</time>
      </trkpt>
      <trkpt lat="44.30918" lon="3.36075">
        <ele>870</ele>
        <time>2009-07-08T07:23:08Z</time>
      </trkpt>
      <trkpt lat="44.30952" lon="3.36047">
        <ele>868</ele>
        <time>2009-07-08T07:23:19Z</time>
      </trkpt>
      <trkpt lat="44.30979" lon="3.36034">
        <ele>867</ele>
        <time>2009-07-08T07:23:26Z</time>
      </trkpt>
      <trkpt lat="44.31045" lon="3.35991">
        <ele>867</ele>
        <time>2009-07-08T07:23:44Z</time>
      </trkpt>
      <trkpt lat="44.31058" lon="3.35941">
        <ele>867</ele>
        <time>2009-07-08T07:23:55Z</time>
      </trkpt>
      <trkpt lat="44.31087" lon="3.3589">
        <ele>869</ele>
        <time>2009-07-08T07:24:09Z</time>
      </trkpt>
      <trkpt lat="44.31131" lon="3.35857">
        <ele>871</ele>
        <time>2009-07-08T07:24:26Z</time>
      </trkpt>
      <trkpt lat="44.31173" lon="3.35796">
        <ele>872</ele>
        <time>2009-07-08T07:24:44Z</time>
      </trkpt>
      <trkpt lat="44.31197" lon="3.35761">
        <ele>869</ele>
        <time>2009-07-08T07:24:53Z</time>
      </trkpt>
      <trkpt lat="44.312" lon="3.35757">
        <ele>869</ele>
        <time>2009-07-08T07:24:54Z</time>
      </trkpt>
      <trkpt lat="44.31245" lon="3.357">
        <ele>870</ele>
        <time>2009-07-08T07:25:10Z</time>
      </trkpt>
      <trkpt lat="44.31266" lon="3.35655">
        <ele>866</ele>
        <time>2009-07-08T07:25:20Z</time>
      </trkpt>
      <trkpt lat="44.31268" lon="3.35649">
        <ele>865</ele>
        <time>2009-07-08T07:25:21Z</time>
      </trkpt>
      <trkpt lat="44.31307" lon="3.35604">
        <ele>865</ele>
        <time>2009-07-08T07:25:32Z</time>
      </trkpt>
      <trkpt lat="44.31357" lon="3.35542">
        <ele>863</ele>
        <time>2009-07-08T07:25:47Z</time>
      </trkpt>
      <trkpt lat="44.31385" lon="3.35498">
        <ele>864</ele>
        <time>2009-07-08T07:25:58Z</time>
      </trkpt>
      <trkpt lat="44.31425" lon="3.35426">
        <ele>863</ele>
        <time>2009-07-08T07:26:15Z</time>
      </trkpt>
      <trkpt lat="44.31427" lon="3.35421">
        <ele>864</ele>
        <time>2009-07-08T07:26:16Z</time>
      </trkpt>
      <trkpt lat="44.31456" lon="3.35365">
        <ele>864</ele>
        <time>2009-07-08T07:26:29Z</time>
      </trkpt>
      <trkpt lat="44.31455" lon="3.3536">
        <ele>863</ele>
        <time>2009-07-08T07:26:42Z</time>
      </trkpt>
      <trkpt lat="44.31454" lon="3.35362">
        <ele>864</ele>
        <time>2009-07-08T07:27:20Z</time>
      </trkpt>
      <trkpt lat="44.31453" lon="3.35362">
        <ele>864</ele>
        <time>2009-07-08T07:27:50Z</time>
      </trkpt>
      <trkpt lat="44.31453" lon="3.35363">
        <ele>862</ele>
        <time>2009-07-08T07:29:03Z</time>
      </trkpt>
      <trkpt lat="44.31453" lon="3.35362">
        <ele>862</ele>
        <time>2009-07-08T07:29:09Z</time>
      </trkpt>
      <trkpt lat="44.31454" lon="3.35354">
        <ele>862</ele>
        <time>2009-07-08T07:29:13Z</time>
      </trkpt>
      <trkpt lat="44.31472" lon="3.35349">
        <ele>860</ele>
        <time>2009-07-08T07:29:20Z</time>
      </trkpt>
      <trkpt lat="44.31483" lon="3.3536">
        <ele>858</ele>
        <time>2009-07-08T07:29:23Z</time>
      </trkpt>
      <trkpt lat="44.31488" lon="3.35368">
        <ele>857</ele>
        <time>2009-07-08T07:29:25Z</time>
      </trkpt>
      <trkpt lat="44.31496" lon="3.35374">
        <ele>856</ele>
        <time>2009-07-08T07:29:27Z</time>
      </trkpt>
      <trkpt lat="44.3151" lon="3.35383">
        <ele>855</ele>
        <time>2009-07-08T07:29:30Z</time>
      </trkpt>
      <trkpt lat="44.31515" lon="3.35386">
        <ele>855</ele>
        <time>2009-07-08T07:29:31Z</time>
      </trkpt>
      <trkpt lat="44.31531" lon="3.35409">
        <ele>853</ele>
        <time>2009-07-08T07:29:36Z</time>
      </trkpt>
      <trkpt lat="44.31535" lon="3.35423">
        <ele>852</ele>
        <time>2009-07-08T07:29:38Z</time>
      </trkpt>
      <trkpt lat="44.31537" lon="3.3543">
        <ele>850</ele>
        <time>2009-07-08T07:29:39Z</time>
      </trkpt>
      <trkpt lat="44.31545" lon="3.35451">
        <ele>847</ele>
        <time>2009-07-08T07:29:42Z</time>
      </trkpt>
      <trkpt lat="44.31551" lon="3.35465">
        <ele>846</ele>
        <time>2009-07-08T07:29:45Z</time>
      </trkpt>
      <trkpt lat="44.31565" lon="3.35486">
        <ele>842</ele>
        <time>2009-07-08T07:29:50Z</time>
      </trkpt>
      <trkpt lat="44.31566" lon="3.35493">
        <ele>841</ele>
        <time>2009-07-08T07:29:51Z</time>
      </trkpt>
      <trkpt lat="44.31573" lon="3.35523">
        <ele>840</ele>
        <time>2009-07-08T07:29:55Z</time>
      </trkpt>
      <trkpt lat="44.31589" lon="3.35551">
        <ele>838</ele>
        <time>2009-07-08T07:30:01Z</time>
      </trkpt>
      <trkpt lat="44.31609" lon="3.35579">
        <ele>836</ele>
        <time>2009-07-08T07:30:06Z</time>
      </trkpt>
      <trkpt lat="44.31646" lon="3.35592">
        <ele>832</ele>
        <time>2009-07-08T07:30:14Z</time>
      </trkpt>
      <trkpt lat="44.31655" lon="3.35587">
        <ele>831</ele>
        <time>2009-07-08T07:30:16Z</time>
      </trkpt>
      <trkpt lat="44.3167" lon="3.35576">
        <ele>826</ele>
        <time>2009-07-08T07:30:20Z</time>
      </trkpt>
      <trkpt lat="44.31686" lon="3.35567">
        <ele>823</ele>
        <time>2009-07-08T07:30:25Z</time>
      </trkpt>
      <trkpt lat="44.31696" lon="3.35559">
        <ele>820</ele>
        <time>2009-07-08T07:30:28Z</time>
      </trkpt>
      <trkpt lat="44.31713" lon="3.3555">
        <ele>815</ele>
        <time>2009-07-08T07:30:32Z</time>
      </trkpt>
      <trkpt lat="44.31722" lon="3.35546">
        <ele>815</ele>
        <time>2009-07-08T07:30:39Z</time>
      </trkpt>
      <trkpt lat="44.31728" lon="3.35544">
        <ele>813</ele>
        <time>2009-07-08T07:30:58Z</time>
      </trkpt>
      <trkpt lat="44.31734" lon="3.35543">
        <ele>813</ele>
        <time>2009-07-08T07:31:00Z</time>
      </trkpt>
      <trkpt lat="44.31747" lon="3.35547">
        <ele>811</ele>
        <time>2009-07-08T07:31:03Z</time>
      </trkpt>
      <trkpt lat="44.31751" lon="3.3555">
        <ele>810</ele>
        <time>2009-07-08T07:31:04Z</time>
      </trkpt>
      <trkpt lat="44.31765" lon="3.35556">
        <ele>807</ele>
        <time>2009-07-08T07:31:07Z</time>
      </trkpt>
      <trkpt lat="44.3178" lon="3.35561">
        <ele>802</ele>
        <time>2009-07-08T07:31:10Z</time>
      </trkpt>
      <trkpt lat="44.31793" lon="3.35565">
        <ele>798</ele>
        <time>2009-07-08T07:31:12Z</time>
      </trkpt>
      <trkpt lat="44.31802" lon="3.35561">
        <ele>795</ele>
        <time>2009-07-08T07:31:18Z</time>
      </trkpt>
      <trkpt lat="44.31799" lon="3.35556">
        <ele>793</ele>
        <time>2009-07-08T07:31:19Z</time>
      </trkpt>
      <trkpt lat="44.31786" lon="3.3553">
        <ele>788</ele>
        <time>2009-07-08T07:31:24Z</time>
      </trkpt>
      <trkpt lat="44.31777" lon="3.35512">
        <ele>785</ele>
        <time>2009-07-08T07:31:27Z</time>
      </trkpt>
      <trkpt lat="44.31771" lon="3.35501">
        <ele>781</ele>
        <time>2009-07-08T07:31:29Z</time>
      </trkpt>
      <trkpt lat="44.31764" lon="3.35491">
        <ele>779</ele>
        <time>2009-07-08T07:31:31Z</time>
      </trkpt>
      <trkpt lat="44.31748" lon="3.35475">
        <ele>775</ele>
        <time>2009-07-08T07:31:35Z</time>
      </trkpt>
      <trkpt lat="44.31744" lon="3.35473">
        <ele>774</ele>
        <time>2009-07-08T07:31:36Z</time>
      </trkpt>
      <trkpt lat="44.31727" lon="3.35469">
        <ele>773</ele>
        <time>2009-07-08T07:31:40Z</time>
      </trkpt>
      <trkpt lat="44.31718" lon="3.35464">
        <ele>772</ele>
        <time>2009-07-08T07:31:42Z</time>
      </trkpt>
      <trkpt lat="44.31709" lon="3.35461">
        <ele>770</ele>
        <time>2009-07-08T07:31:44Z</time>
      </trkpt>
      <trkpt lat="44.31686" lon="3.35454">
        <ele>768</ele>
        <time>2009-07-08T07:31:49Z</time>
      </trkpt>
      <trkpt lat="44.31671" lon="3.35445">
        <ele>766</ele>
        <time>2009-07-08T07:31:53Z</time>
      </trkpt>
      <trkpt lat="44.31661" lon="3.35428">
        <ele>762</ele>
        <time>2009-07-08T07:31:56Z</time>
      </trkpt>
      <trkpt lat="44.31652" lon="3.35409">
        <ele>761</ele>
        <time>2009-07-08T07:32:01Z</time>
      </trkpt>
      <trkpt lat="44.31649" lon="3.35399">
        <ele>760</ele>
        <time>2009-07-08T07:32:03Z</time>
      </trkpt>
      <trkpt lat="44.31647" lon="3.35386">
        <ele>758</ele>
        <time>2009-07-08T07:32:05Z</time>
      </trkpt>
      <trkpt lat="44.31642" lon="3.35363">
        <ele>755</ele>
        <time>2009-07-08T07:32:09Z</time>
      </trkpt>
      <trkpt lat="44.31648" lon="3.35369">
        <ele>753</ele>
        <time>2009-07-08T07:32:13Z</time>
      </trkpt>
      <trkpt lat="44.3165" lon="3.35373">
        <ele>753</ele>
        <time>2009-07-08T07:32:14Z</time>
      </trkpt>
      <trkpt lat="44.31671" lon="3.35405">
        <ele>752</ele>
        <time>2009-07-08T07:32:21Z</time>
      </trkpt>
      <trkpt lat="44.31674" lon="3.35403">
        <ele>750</ele>
        <time>2009-07-08T07:32:28Z</time>
      </trkpt>
      <trkpt lat="44.31673" lon="3.35393">
        <ele>747</ele>
        <time>2009-07-08T07:32:42Z</time>
      </trkpt>
      <trkpt lat="44.3167" lon="3.35389">
        <ele>746</ele>
        <time>2009-07-08T07:34:13Z</time>
      </trkpt>
      <trkpt lat="44.31668" lon="3.35373">
        <ele>743</ele>
        <time>2009-07-08T07:34:20Z</time>
      </trkpt>
      <trkpt lat="44.31663" lon="3.35347">
        <ele>738</ele>
        <time>2009-07-08T07:34:26Z</time>
      </trkpt>
      <trkpt lat="44.31661" lon="3.35332">
        <ele>733</ele>
        <time>2009-07-08T07:34:29Z</time>
      </trkpt>
      <trkpt lat="44.31661" lon="3.35327">
        <ele>731</ele>
        <time>2009-07-08T07:34:30Z</time>
      </trkpt>
      <trkpt lat="44.31661" lon="3.353">
        <ele>727</ele>
        <time>2009-07-08T07:34:35Z</time>
      </trkpt>
      <trkpt lat="44.31657" lon="3.35271">
        <ele>724</ele>
        <time>2009-07-08T07:34:42Z</time>
      </trkpt>
      <trkpt lat="44.31652" lon="3.3526">
        <ele>723</ele>
        <time>2009-07-08T07:34:49Z</time>
      </trkpt>
      <trkpt lat="44.31653" lon="3.35242">
        <ele>719</ele>
        <time>2009-07-08T07:35:00Z</time>
      </trkpt>
      <trkpt lat="44.31653" lon="3.35236">
        <ele>718</ele>
        <time>2009-07-08T07:35:02Z</time>
      </trkpt>
      <trkpt lat="44.31654" lon="3.35231">
        <ele>718</ele>
        <time>2009-07-08T07:35:05Z</time>
      </trkpt>
      <trkpt lat="44.31658" lon="3.35243">
        <ele>716</ele>
        <time>2009-07-08T07:35:09Z</time>
      </trkpt>
      <trkpt lat="44.31671" lon="3.35258">
        <ele>713</ele>
        <time>2009-07-08T07:35:15Z</time>
      </trkpt>
      <trkpt lat="44.31682" lon="3.35271">
        <ele>709</ele>
        <time>2009-07-08T07:35:19Z</time>
      </trkpt>
      <trkpt lat="44.3169" lon="3.3528">
        <ele>707</ele>
        <time>2009-07-08T07:35:22Z</time>
      </trkpt>
      <trkpt lat="44.31715" lon="3.35297">
        <ele>704</ele>
        <time>2009-07-08T07:35:30Z</time>
      </trkpt>
      <trkpt lat="44.31728" lon="3.35298">
        <ele>702</ele>
        <time>2009-07-08T07:35:33Z</time>
      </trkpt>
      <trkpt lat="44.31741" lon="3.35301">
        <ele>698</ele>
        <time>2009-07-08T07:35:36Z</time>
      </trkpt>
      <trkpt lat="44.31762" lon="3.35302">
        <ele>695</ele>
        <time>2009-07-08T07:35:41Z</time>
      </trkpt>
      <trkpt lat="44.31756" lon="3.35291">
        <ele>692</ele>
        <time>2009-07-08T07:35:46Z</time>
      </trkpt>
      <trkpt lat="44.31741" lon="3.3527">
        <ele>690</ele>
        <time>2009-07-08T07:35:51Z</time>
      </trkpt>
      <trkpt lat="44.3174" lon="3.35264">
        <ele>688</ele>
        <time>2009-07-08T07:35:53Z</time>
      </trkpt>
      <trkpt lat="44.31753" lon="3.35266">
        <ele>685</ele>
        <time>2009-07-08T07:35:57Z</time>
      </trkpt>
      <trkpt lat="44.31769" lon="3.35268">
        <ele>681</ele>
        <time>2009-07-08T07:36:01Z</time>
      </trkpt>
      <trkpt lat="44.31767" lon="3.35258">
        <ele>679</ele>
        <time>2009-07-08T07:36:06Z</time>
      </trkpt>
      <trkpt lat="44.31755" lon="3.35239">
        <ele>675</ele>
        <time>2009-07-08T07:36:10Z</time>
      </trkpt>
      <trkpt lat="44.31738" lon="3.3522">
        <ele>671</ele>
        <time>2009-07-08T07:36:15Z</time>
      </trkpt>
      <trkpt lat="44.31732" lon="3.35206">
        <ele>670</ele>
        <time>2009-07-08T07:36:18Z</time>
      </trkpt>
      <trkpt lat="44.31742" lon="3.35205">
        <ele>667</ele>
        <time>2009-07-08T07:36:23Z</time>
      </trkpt>
      <trkpt lat="44.31756" lon="3.35208">
        <ele>664</ele>
        <time>2009-07-08T07:36:26Z</time>
      </trkpt>
      <trkpt lat="44.31773" lon="3.35211">
        <ele>661</ele>
        <time>2009-07-08T07:36:30Z</time>
      </trkpt>
      <trkpt lat="44.31774" lon="3.35212">
        <ele>661</ele>
        <time>2009-07-08T07:36:31Z</time>
      </trkpt>
      <trkpt lat="44.31771" lon="3.35202">
        <ele>659</ele>
        <time>2009-07-08T07:36:35Z</time>
      </trkpt>
      <trkpt lat="44.31765" lon="3.35196">
        <ele>657</ele>
        <time>2009-07-08T07:36:37Z</time>
      </trkpt>
      <trkpt lat="44.31759" lon="3.3519">
        <ele>656</ele>
        <time>2009-07-08T07:36:39Z</time>
      </trkpt>
      <trkpt lat="44.31754" lon="3.35168">
        <ele>652</ele>
        <time>2009-07-08T07:36:46Z</time>
      </trkpt>
      <trkpt lat="44.31773" lon="3.35177">
        <ele>649</ele>
        <time>2009-07-08T07:36:52Z</time>
      </trkpt>
      <trkpt lat="44.31775" lon="3.35177">
        <ele>649</ele>
        <time>2009-07-08T07:36:53Z</time>
      </trkpt>
      <trkpt lat="44.31779" lon="3.35176">
        <ele>647</ele>
        <time>2009-07-08T07:36:55Z</time>
      </trkpt>
      <trkpt lat="44.3178" lon="3.35176">
        <ele>647</ele>
        <time>2009-07-08T07:36:56Z</time>
      </trkpt>
      <trkpt lat="44.31785" lon="3.35175">
        <ele>646</ele>
        <time>2009-07-08T07:36:59Z</time>
      </trkpt>
      <trkpt lat="44.31783" lon="3.35169">
        <ele>645</ele>
        <time>2009-07-08T07:37:02Z</time>
      </trkpt>
      <trkpt lat="44.31776" lon="3.35163">
        <ele>643</ele>
        <time>2009-07-08T07:37:05Z</time>
      </trkpt>
      <trkpt lat="44.31774" lon="3.35161">
        <ele>642</ele>
        <time>2009-07-08T07:37:06Z</time>
      </trkpt>
      <trkpt lat="44.31774" lon="3.35157">
        <ele>641</ele>
        <time>2009-07-08T07:37:08Z</time>
      </trkpt>
      <trkpt lat="44.31785" lon="3.35157">
        <ele>640</ele>
        <time>2009-07-08T07:37:17Z</time>
      </trkpt>
      <trkpt lat="44.31786" lon="3.35157">
        <ele>640</ele>
        <time>2009-07-08T07:37:21Z</time>
      </trkpt>
      <trkpt lat="44.31793" lon="3.35167">
        <ele>639</ele>
        <time>2009-07-08T07:37:26Z</time>
      </trkpt>
      <trkpt lat="44.31812" lon="3.3517">
        <ele>636</ele>
        <time>2009-07-08T07:37:34Z</time>
      </trkpt>
      <trkpt lat="44.31817" lon="3.35164">
        <ele>635</ele>
        <time>2009-07-08T07:37:36Z</time>
      </trkpt>
      <trkpt lat="44.31825" lon="3.35149">
        <ele>631</ele>
        <time>2009-07-08T07:37:41Z</time>
      </trkpt>
      <trkpt lat="44.31828" lon="3.35148">
        <ele>630</ele>
        <time>2009-07-08T07:37:42Z</time>
      </trkpt>
      <trkpt lat="44.31834" lon="3.35146">
        <ele>629</ele>
        <time>2009-07-08T07:37:44Z</time>
      </trkpt>
      <trkpt lat="44.31835" lon="3.35145">
        <ele>629</ele>
        <time>2009-07-08T07:37:46Z</time>
      </trkpt>
      <trkpt lat="44.31831" lon="3.35132">
        <ele>625</ele>
        <time>2009-07-08T07:37:55Z</time>
      </trkpt>
      <trkpt lat="44.31843" lon="3.35125">
        <ele>622</ele>
        <time>2009-07-08T07:37:59Z</time>
      </trkpt>
      <trkpt lat="44.31861" lon="3.35107">
        <ele>617</ele>
        <time>2009-07-08T07:38:04Z</time>
      </trkpt>
      <trkpt lat="44.31872" lon="3.35095">
        <ele>613</ele>
        <time>2009-07-08T07:38:07Z</time>
      </trkpt>
      <trkpt lat="44.31889" lon="3.3508">
        <ele>610</ele>
        <time>2009-07-08T07:38:12Z</time>
      </trkpt>
      <trkpt lat="44.31901" lon="3.35073">
        <ele>606</ele>
        <time>2009-07-08T07:38:16Z</time>
      </trkpt>
      <trkpt lat="44.31905" lon="3.35071">
        <ele>606</ele>
        <time>2009-07-08T07:38:17Z</time>
      </trkpt>
      <trkpt lat="44.31922" lon="3.35067">
        <ele>603</ele>
        <time>2009-07-08T07:38:21Z</time>
      </trkpt>
      <trkpt lat="44.31932" lon="3.35064">
        <ele>600</ele>
        <time>2009-07-08T07:38:23Z</time>
      </trkpt>
      <trkpt lat="44.31937" lon="3.35062">
        <ele>599</ele>
        <time>2009-07-08T07:38:24Z</time>
      </trkpt>
      <trkpt lat="44.31951" lon="3.35058">
        <ele>596</ele>
        <time>2009-07-08T07:38:27Z</time>
      </trkpt>
      <trkpt lat="44.31967" lon="3.35049">
        <ele>594</ele>
        <time>2009-07-08T07:38:31Z</time>
      </trkpt>
      <trkpt lat="44.31979" lon="3.3504">
        <ele>591</ele>
        <time>2009-07-08T07:38:34Z</time>
      </trkpt>
      <trkpt lat="44.31995" lon="3.35023">
        <ele>588</ele>
        <time>2009-07-08T07:38:40Z</time>
      </trkpt>
      <trkpt lat="44.31998" lon="3.35021">
        <ele>588</ele>
        <time>2009-07-08T07:38:41Z</time>
      </trkpt>
      <trkpt lat="44.32008" lon="3.35009">
        <ele>584</ele>
        <time>2009-07-08T07:38:45Z</time>
      </trkpt>
      <trkpt lat="44.32014" lon="3.35002">
        <ele>581</ele>
        <time>2009-07-08T07:38:47Z</time>
      </trkpt>
      <trkpt lat="44.32019" lon="3.34996">
        <ele>579</ele>
        <time>2009-07-08T07:38:49Z</time>
      </trkpt>
      <trkpt lat="44.32027" lon="3.34979">
        <ele>575</ele>
        <time>2009-07-08T07:38:53Z</time>
      </trkpt>
      <trkpt lat="44.3203" lon="3.34974">
        <ele>575</ele>
        <time>2009-07-08T07:38:54Z</time>
      </trkpt>
      <trkpt lat="44.32043" lon="3.34956">
        <ele>570</ele>
        <time>2009-07-08T07:38:59Z</time>
      </trkpt>
      <trkpt lat="44.32039" lon="3.34952">
        <ele>568</ele>
        <time>2009-07-08T07:39:03Z</time>
      </trkpt>
      <trkpt lat="44.32031" lon="3.34951">
        <ele>566</ele>
        <time>2009-07-08T07:39:07Z</time>
      </trkpt>
      <trkpt lat="44.32029" lon="3.34949">
        <ele>566</ele>
        <time>2009-07-08T07:39:18Z</time>
      </trkpt>
      <trkpt lat="44.32028" lon="3.34952">
        <ele>566</ele>
        <time>2009-07-08T07:40:29Z</time>
      </trkpt>
      <trkpt lat="44.32029" lon="3.34949">
        <ele>566</ele>
        <time>2009-07-08T07:40:53Z</time>
      </trkpt>
      <trkpt lat="44.32032" lon="3.34941">
        <ele>564</ele>
        <time>2009-07-08T07:40:58Z</time>
      </trkpt>
      <trkpt lat="44.32035" lon="3.34934">
        <ele>562</ele>
        <time>2009-07-08T07:41:01Z</time>
      </trkpt>
      <trkpt lat="44.32031" lon="3.34925">
        <ele>559</ele>
        <time>2009-07-08T07:41:08Z</time>
      </trkpt>
      <trkpt lat="44.32031" lon="3.34921">
        <ele>558</ele>
        <time>2009-07-08T07:41:10Z</time>
      </trkpt>
      <trkpt lat="44.32039" lon="3.34917">
        <ele>555</ele>
        <time>2009-07-08T07:41:14Z</time>
      </trkpt>
      <trkpt lat="44.32041" lon="3.34911">
        <ele>554</ele>
        <time>2009-07-08T07:41:17Z</time>
      </trkpt>
      <trkpt lat="44.32038" lon="3.34905">
        <ele>552</ele>
        <time>2009-07-08T07:41:19Z</time>
      </trkpt>
      <trkpt lat="44.32039" lon="3.3489">
        <ele>548</ele>
        <time>2009-07-08T07:41:25Z</time>
      </trkpt>
      <trkpt lat="44.32048" lon="3.34895">
        <ele>546</ele>
        <time>2009-07-08T07:41:28Z</time>
      </trkpt>
      <trkpt lat="44.32059" lon="3.34898">
        <ele>543</ele>
        <time>2009-07-08T07:41:32Z</time>
      </trkpt>
      <trkpt lat="44.32069" lon="3.34898">
        <ele>540</ele>
        <time>2009-07-08T07:41:35Z</time>
      </trkpt>
      <trkpt lat="44.32086" lon="3.34892">
        <ele>536</ele>
        <time>2009-07-08T07:41:40Z</time>
      </trkpt>
      <trkpt lat="44.32089" lon="3.34889">
        <ele>535</ele>
        <time>2009-07-08T07:41:41Z</time>
      </trkpt>
      <trkpt lat="44.32103" lon="3.34874">
        <ele>532</ele>
        <time>2009-07-08T07:41:45Z</time>
      </trkpt>
      <trkpt lat="44.32118" lon="3.34861">
        <ele>529</ele>
        <time>2009-07-08T07:41:49Z</time>
      </trkpt>
      <trkpt lat="44.32132" lon="3.34851">
        <ele>526</ele>
        <time>2009-07-08T07:41:52Z</time>
      </trkpt>
      <trkpt lat="44.32149" lon="3.34846">
        <ele>523</ele>
        <time>2009-07-08T07:41:55Z</time>
      </trkpt>
      <trkpt lat="44.32162" lon="3.34845">
        <ele>525</ele>
        <time>2009-07-08T07:41:59Z</time>
      </trkpt>
      <trkpt lat="44.32172" lon="3.34841">
        <ele>523</ele>
        <time>2009-07-08T07:42:20Z</time>
      </trkpt>
      <trkpt lat="44.32191" lon="3.34829">
        <ele>519</ele>
        <time>2009-07-08T07:42:25Z</time>
      </trkpt>
      <trkpt lat="44.32204" lon="3.3482">
        <ele>515</ele>
        <time>2009-07-08T07:42:28Z</time>
      </trkpt>
      <trkpt lat="44.32213" lon="3.34813">
        <ele>514</ele>
        <time>2009-07-08T07:42:30Z</time>
      </trkpt>
      <trkpt lat="44.3223" lon="3.34805">
        <ele>509</ele>
        <time>2009-07-08T07:42:34Z</time>
      </trkpt>
      <trkpt lat="44.32233" lon="3.34804">
        <ele>508</ele>
        <time>2009-07-08T07:42:35Z</time>
      </trkpt>
      <trkpt lat="44.32235" lon="3.34801">
        <ele>508</ele>
        <time>2009-07-08T07:42:37Z</time>
      </trkpt>
      <trkpt lat="44.32224" lon="3.34794">
        <ele>504</ele>
        <time>2009-07-08T07:42:42Z</time>
      </trkpt>
      <trkpt lat="44.32232" lon="3.34789">
        <ele>501</ele>
        <time>2009-07-08T07:42:47Z</time>
      </trkpt>
      <trkpt lat="44.32222" lon="3.34783">
        <ele>497</ele>
        <time>2009-07-08T07:42:52Z</time>
      </trkpt>
      <trkpt lat="44.32227" lon="3.34773">
        <ele>494</ele>
        <time>2009-07-08T07:42:57Z</time>
      </trkpt>
      <trkpt lat="44.32228" lon="3.3477">
        <ele>493</ele>
        <time>2009-07-08T07:43:00Z</time>
      </trkpt>
      <trkpt lat="44.32222" lon="3.34768">
        <ele>491</ele>
        <time>2009-07-08T07:43:10Z</time>
      </trkpt>
      <trkpt lat="44.32213" lon="3.34762">
        <ele>490</ele>
        <time>2009-07-08T07:44:00Z</time>
      </trkpt>
      <trkpt lat="44.32206" lon="3.34759">
        <ele>488</ele>
        <time>2009-07-08T07:44:02Z</time>
      </trkpt>
      <trkpt lat="44.32184" lon="3.3476">
        <ele>486</ele>
        <time>2009-07-08T07:44:07Z</time>
      </trkpt>
      <trkpt lat="44.32168" lon="3.34761">
        <ele>485</ele>
        <time>2009-07-08T07:44:10Z</time>
      </trkpt>
      <trkpt lat="44.32158" lon="3.3476">
        <ele>485</ele>
        <time>2009-07-08T07:44:12Z</time>
      </trkpt>
      <trkpt lat="44.32136" lon="3.34757">
        <ele>482</ele>
        <time>2009-07-08T07:44:17Z</time>
      </trkpt>
      <trkpt lat="44.32132" lon="3.34759">
        <ele>482</ele>
        <time>2009-07-08T07:44:26Z</time>
      </trkpt>
      <trkpt lat="44.32131" lon="3.3476">
        <ele>482</ele>
        <time>2009-07-08T07:44:42Z</time>
      </trkpt>
      <trkpt lat="44.32112" lon="3.3476">
        <ele>478</ele>
        <time>2009-07-08T07:44:49Z</time>
      </trkpt>
      <trkpt lat="44.32104" lon="3.34757">
        <ele>476</ele>
        <time>2009-07-08T07:44:51Z</time>
      </trkpt>
      <trkpt lat="44.3209" lon="3.34755">
        <ele>474</ele>
        <time>2009-07-08T07:44:54Z</time>
      </trkpt>
      <trkpt lat="44.32068" lon="3.34756">
        <ele>471</ele>
        <time>2009-07-08T07:44:59Z</time>
      </trkpt>
      <trkpt lat="44.32063" lon="3.34755">
        <ele>470</ele>
        <time>2009-07-08T07:45:02Z</time>
      </trkpt>
      <trkpt lat="44.32063" lon="3.34746">
        <ele>468</ele>
        <time>2009-07-08T07:45:06Z</time>
      </trkpt>
      <trkpt lat="44.32066" lon="3.34743">
        <ele>467</ele>
        <time>2009-07-08T07:45:08Z</time>
      </trkpt>
      <trkpt lat="44.32067" lon="3.34738">
        <ele>465</ele>
        <time>2009-07-08T07:45:12Z</time>
      </trkpt>
      <trkpt lat="44.32058" lon="3.34733">
        <ele>461</ele>
        <time>2009-07-08T07:45:16Z</time>
      </trkpt>
      <trkpt lat="44.3204" lon="3.34733">
        <ele>458</ele>
        <time>2009-07-08T07:45:20Z</time>
      </trkpt>
      <trkpt lat="44.32015" lon="3.34736">
        <ele>458</ele>
        <time>2009-07-08T07:45:30Z</time>
      </trkpt>
      <trkpt lat="44.32014" lon="3.34735">
        <ele>458</ele>
        <time>2009-07-08T07:46:05Z</time>
      </trkpt>
      <trkpt lat="44.32009" lon="3.34737">
        <ele>460</ele>
        <time>2009-07-08T07:46:11Z</time>
      </trkpt>
      <trkpt lat="44.31997" lon="3.34742">
        <ele>461</ele>
        <time>2009-07-08T07:46:26Z</time>
      </trkpt>
      <trkpt lat="44.31991" lon="3.34745">
        <ele>462</ele>
        <time>2009-07-08T07:46:38Z</time>
      </trkpt>
      <trkpt lat="44.3196" lon="3.34736">
        <ele>460</ele>
        <time>2009-07-08T07:46:51Z</time>
      </trkpt>
      <trkpt lat="44.31927" lon="3.34733">
        <ele>463</ele>
        <time>2009-07-08T07:47:08Z</time>
      </trkpt>
      <trkpt lat="44.31924" lon="3.34742">
        <ele>465</ele>
        <time>2009-07-08T07:47:20Z</time>
      </trkpt>
      <trkpt lat="44.31911" lon="3.34742">
        <ele>466</ele>
        <time>2009-07-08T07:47:31Z</time>
      </trkpt>
      <trkpt lat="44.31906" lon="3.34755">
        <ele>467</ele>
        <time>2009-07-08T07:47:45Z</time>
      </trkpt>
      <trkpt lat="44.3189" lon="3.34763">
        <ele>466</ele>
        <time>2009-07-08T07:47:54Z</time>
      </trkpt>
      <trkpt lat="44.31867" lon="3.34769">
        <ele>468</ele>
        <time>2009-07-08T07:48:07Z</time>
      </trkpt>
      <trkpt lat="44.31838" lon="3.34769">
        <ele>469</ele>
        <time>2009-07-08T07:48:21Z</time>
      </trkpt>
      <trkpt lat="44.31832" lon="3.3477">
        <ele>471</ele>
        <time>2009-07-08T07:48:25Z</time>
      </trkpt>
      <trkpt lat="44.31821" lon="3.34776">
        <ele>474</ele>
        <time>2009-07-08T07:48:35Z</time>
      </trkpt>
      <trkpt lat="44.31817" lon="3.34779">
        <ele>477</ele>
        <time>2009-07-08T07:48:40Z</time>
      </trkpt>
      <trkpt lat="44.31813" lon="3.34781">
        <ele>477</ele>
        <time>2009-07-08T07:48:51Z</time>
      </trkpt>
      <trkpt lat="44.31808" lon="3.34781">
        <ele>476</ele>
        <time>2009-07-08T07:48:55Z</time>
      </trkpt>
      <trkpt lat="44.31775" lon="3.34775">
        <ele>480</ele>
        <time>2009-07-08T07:49:12Z</time>
      </trkpt>
      <trkpt lat="44.31759" lon="3.34758">
        <ele>480</ele>
        <time>2009-07-08T07:49:21Z</time>
      </trkpt>
      <trkpt lat="44.31739" lon="3.34752">
        <ele>483</ele>
        <time>2009-07-08T07:49:35Z</time>
      </trkpt>
      <trkpt lat="44.31726" lon="3.34749">
        <ele>485</ele>
        <time>2009-07-08T07:49:45Z</time>
      </trkpt>
      <trkpt lat="44.31714" lon="3.34753">
        <ele>488</ele>
        <time>2009-07-08T07:49:57Z</time>
      </trkpt>
      <trkpt lat="44.3171" lon="3.34754">
        <ele>489</ele>
        <time>2009-07-08T07:50:13Z</time>
      </trkpt>
      <trkpt lat="44.317" lon="3.34761">
        <ele>490</ele>
        <time>2009-07-08T07:50:25Z</time>
      </trkpt>
      <trkpt lat="44.31691" lon="3.34769">
        <ele>492</ele>
        <time>2009-07-08T07:50:43Z</time>
      </trkpt>
      <trkpt lat="44.31684" lon="3.34767">
        <ele>495</ele>
        <time>2009-07-08T07:50:59Z</time>
      </trkpt>
      <trkpt lat="44.31684" lon="3.34766">
        <ele>496</ele>
        <time>2009-07-08T07:51:00Z</time>
      </trkpt>
      <trkpt lat="44.31677" lon="3.34745">
        <ele>496</ele>
        <time>2009-07-08T07:51:16Z</time>
      </trkpt>
      <trkpt lat="44.31669" lon="3.34724">
        <ele>499</ele>
        <time>2009-07-08T07:51:23Z</time>
      </trkpt>
      <trkpt lat="44.31649" lon="3.34691">
        <ele>501</ele>
        <time>2009-07-08T07:51:38Z</time>
      </trkpt>
      <trkpt lat="44.31649" lon="3.34691">
        <ele>501</ele>
        <time>2009-07-08T07:51:49Z</time>
      </trkpt>
      <trkpt lat="44.31647" lon="3.34685">
        <ele>501</ele>
        <time>2009-07-08T07:54:04Z</time>
      </trkpt>
      <trkpt lat="44.31632" lon="3.34654">
        <ele>502</ele>
        <time>2009-07-08T07:54:16Z</time>
      </trkpt>
      <trkpt lat="44.31623" lon="3.34651">
        <ele>506</ele>
        <time>2009-07-08T07:54:28Z</time>
      </trkpt>
      <trkpt lat="44.31622" lon="3.34651">
        <ele>506</ele>
        <time>2009-07-08T07:54:29Z</time>
      </trkpt>
      <trkpt lat="44.31614" lon="3.34652">
        <ele>508</ele>
        <time>2009-07-08T07:54:45Z</time>
      </trkpt>
      <trkpt lat="44.31611" lon="3.34652">
        <ele>510</ele>
        <time>2009-07-08T07:54:58Z</time>
      </trkpt>
      <trkpt lat="44.31594" lon="3.34631">
        <ele>511</ele>
        <time>2009-07-08T07:55:11Z</time>
      </trkpt>
      <trkpt lat="44.31588" lon="3.34588">
        <ele>511</ele>
        <time>2009-07-08T07:55:22Z</time>
      </trkpt>
      <trkpt lat="44.31588" lon="3.34585">
        <ele>512</ele>
        <time>2009-07-08T07:55:23Z</time>
      </trkpt>
      <trkpt lat="44.31581" lon="3.34546">
        <ele>515</ele>
        <time>2009-07-08T07:55:38Z</time>
      </trkpt>
      <trkpt lat="44.31581" lon="3.34542">
        <ele>517</ele>
        <time>2009-07-08T07:55:42Z</time>
      </trkpt>
      <trkpt lat="44.31581" lon="3.34538">
        <ele>517</ele>
        <time>2009-07-08T07:55:46Z</time>
      </trkpt>
      <trkpt lat="44.31578" lon="3.34527">
        <ele>519</ele>
        <time>2009-07-08T07:55:57Z</time>
      </trkpt>
      <trkpt lat="44.3157" lon="3.34511">
        <ele>516</ele>
        <time>2009-07-08T07:56:09Z</time>
      </trkpt>
      <trkpt lat="44.31565" lon="3.34508">
        <ele>515</ele>
        <time>2009-07-08T07:56:11Z</time>
      </trkpt>
      <trkpt lat="44.31539" lon="3.34513">
        <ele>514</ele>
        <time>2009-07-08T07:56:20Z</time>
      </trkpt>
      <trkpt lat="44.31519" lon="3.34518">
        <ele>514</ele>
        <time>2009-07-08T07:56:34Z</time>
      </trkpt>
      <trkpt lat="44.31518" lon="3.34514">
        <ele>513</ele>
        <time>2009-07-08T07:56:52Z</time>
      </trkpt>
      <trkpt lat="44.3152" lon="3.34511">
        <ele>511</ele>
        <time>2009-07-08T07:57:01Z</time>
      </trkpt>
      <trkpt lat="44.31528" lon="3.34501">
        <ele>508</ele>
        <time>2009-07-08T07:57:10Z</time>
      </trkpt>
      <trkpt lat="44.31532" lon="3.34494">
        <ele>505</ele>
        <time>2009-07-08T07:57:14Z</time>
      </trkpt>
      <trkpt lat="44.31535" lon="3.34493">
        <ele>504</ele>
        <time>2009-07-08T07:57:20Z</time>
      </trkpt>
      <trkpt lat="44.31541" lon="3.34491">
        <ele>503</ele>
        <time>2009-07-08T07:57:24Z</time>
      </trkpt>
      <trkpt lat="44.31545" lon="3.34483">
        <ele>500</ele>
        <time>2009-07-08T07:57:36Z</time>
      </trkpt>
      <trkpt lat="44.31542" lon="3.34479">
        <ele>500</ele>
        <time>2009-07-08T07:57:47Z</time>
      </trkpt>
      <trkpt lat="44.31548" lon="3.34475">
        <ele>498</ele>
        <time>2009-07-08T07:57:54Z</time>
      </trkpt>
      <trkpt lat="44.31555" lon="3.34471">
        <ele>495</ele>
        <time>2009-07-08T07:58:03Z</time>
      </trkpt>
      <trkpt lat="44.31554" lon="3.34468">
        <ele>493</ele>
        <time>2009-07-08T07:58:14Z</time>
      </trkpt>
      <trkpt lat="44.31553" lon="3.34462">
        <ele>490</ele>
        <time>2009-07-08T07:58:21Z</time>
      </trkpt>
      <trkpt lat="44.31553" lon="3.3446">
        <ele>489</ele>
        <time>2009-07-08T07:58:25Z</time>
      </trkpt>
      <trkpt lat="44.31556" lon="3.34428">
        <ele>488</ele>
        <time>2009-07-08T07:58:34Z</time>
      </trkpt>
      <trkpt lat="44.31555" lon="3.34421">
        <ele>488</ele>
        <time>2009-07-08T07:58:37Z</time>
      </trkpt>
      <trkpt lat="44.31556" lon="3.34415">
        <ele>488</ele>
        <time>2009-07-08T07:58:42Z</time>
      </trkpt>
      <trkpt lat="44.31559" lon="3.34414">
        <ele>487</ele>
        <time>2009-07-08T07:58:44Z</time>
      </trkpt>
      <trkpt lat="44.31564" lon="3.34414">
        <ele>485</ele>
        <time>2009-07-08T07:58:48Z</time>
      </trkpt>
      <trkpt lat="44.31566" lon="3.34403">
        <ele>483</ele>
        <time>2009-07-08T07:59:00Z</time>
      </trkpt>
      <trkpt lat="44.31572" lon="3.34395">
        <ele>480</ele>
        <time>2009-07-08T07:59:17Z</time>
      </trkpt>
      <trkpt lat="44.31582" lon="3.34397">
        <ele>478</ele>
        <time>2009-07-08T07:59:29Z</time>
      </trkpt>
      <trkpt lat="44.31582" lon="3.34399">
        <ele>478</ele>
        <time>2009-07-08T07:59:31Z</time>
      </trkpt>
      <trkpt lat="44.31583" lon="3.34404">
        <ele>479</ele>
        <time>2009-07-08T07:59:34Z</time>
      </trkpt>
      <trkpt lat="44.31581" lon="3.34417">
        <ele>477</ele>
        <time>2009-07-08T07:59:45Z</time>
      </trkpt>
      <trkpt lat="44.31578" lon="3.34426">
        <ele>478</ele>
        <time>2009-07-08T07:59:58Z</time>
      </trkpt>
      <trkpt lat="44.3158" lon="3.3443">
        <ele>475</ele>
        <time>2009-07-08T08:00:08Z</time>
      </trkpt>
      <trkpt lat="44.31585" lon="3.34427">
        <ele>473</ele>
        <time>2009-07-08T08:00:18Z</time>
      </trkpt>
      <trkpt lat="44.31591" lon="3.34417">
        <ele>471</ele>
        <time>2009-07-08T08:00:25Z</time>
      </trkpt>
      <trkpt lat="44.31598" lon="3.34402">
        <ele>468</ele>
        <time>2009-07-08T08:00:38Z</time>
      </trkpt>
      <trkpt lat="44.31597" lon="3.34397">
        <ele>466</ele>
        <time>2009-07-08T08:00:44Z</time>
      </trkpt>
      <trkpt lat="44.31596" lon="3.34392">
        <ele>465</ele>
        <time>2009-07-08T08:00:48Z</time>
      </trkpt>
      <trkpt lat="44.31595" lon="3.34386">
        <ele>463</ele>
        <time>2009-07-08T08:00:59Z</time>
      </trkpt>
      <trkpt lat="44.31592" lon="3.34387">
        <ele>464</ele>
        <time>2009-07-08T08:01:36Z</time>
      </trkpt>
      <trkpt lat="44.31615" lon="3.34372">
        <ele>466</ele>
        <time>2009-07-08T08:02:44Z</time>
      </trkpt>
      <trkpt lat="44.31597" lon="3.34382">
        <ele>467</ele>
        <time>2009-07-08T08:03:23Z</time>
      </trkpt>
      <trkpt lat="44.31592" lon="3.34389">
        <ele>468</ele>
        <time>2009-07-08T08:05:02Z</time>
      </trkpt>
      <trkpt lat="44.31594" lon="3.34387">
        <ele>467</ele>
        <time>2009-07-08T08:05:40Z</time>
      </trkpt>
      <trkpt lat="44.31585" lon="3.34391">
        <ele>467</ele>
        <time>2009-07-08T08:06:26Z</time>
      </trkpt>
      <trkpt lat="44.31587" lon="3.34387">
        <ele>467</ele>
        <time>2009-07-08T08:06:41Z</time>
      </trkpt>
      <trkpt lat="44.31588" lon="3.34352">
        <ele>467</ele>
        <time>2009-07-08T08:06:51Z</time>
      </trkpt>
      <trkpt lat="44.31591" lon="3.34329">
        <ele>466</ele>
        <time>2009-07-08T08:06:56Z</time>
      </trkpt>
      <trkpt lat="44.31588" lon="3.3429">
        <ele>467</ele>
        <time>2009-07-08T08:07:06Z</time>
      </trkpt>
      <trkpt lat="44.31588" lon="3.34282">
        <ele>466</ele>
        <time>2009-07-08T08:07:08Z</time>
      </trkpt>
      <trkpt lat="44.31576" lon="3.34234">
        <ele>466</ele>
        <time>2009-07-08T08:07:20Z</time>
      </trkpt>
      <trkpt lat="44.31574" lon="3.34225">
        <ele>466</ele>
        <time>2009-07-08T08:07:22Z</time>
      </trkpt>
      <trkpt lat="44.3157" lon="3.34171">
        <ele>466</ele>
        <time>2009-07-08T08:07:32Z</time>
      </trkpt>
      <trkpt lat="44.31566" lon="3.34151">
        <ele>466</ele>
        <time>2009-07-08T08:07:36Z</time>
      </trkpt>
      <trkpt lat="44.31556" lon="3.3414">
        <ele>467</ele>
        <time>2009-07-08T08:07:41Z</time>
      </trkpt>
      <trkpt lat="44.31543" lon="3.34102">
        <ele>467</ele>
        <time>2009-07-08T08:07:52Z</time>
      </trkpt>
      <trkpt lat="44.31528" lon="3.34045">
        <ele>467</ele>
        <time>2009-07-08T08:08:04Z</time>
      </trkpt>
      <trkpt lat="44.31514" lon="3.34016">
        <ele>467</ele>
        <time>2009-07-08T08:08:11Z</time>
      </trkpt>
      <trkpt lat="44.31492" lon="3.33971">
        <ele>466</ele>
        <time>2009-07-08T08:08:22Z</time>
      </trkpt>
      <trkpt lat="44.31465" lon="3.3394">
        <ele>466</ele>
        <time>2009-07-08T08:08:32Z</time>
      </trkpt>
      <trkpt lat="44.31428" lon="3.33907">
        <ele>465</ele>
        <time>2009-07-08T08:08:43Z</time>
      </trkpt>
      <trkpt lat="44.3142" lon="3.33899">
        <ele>465</ele>
        <time>2009-07-08T08:08:46Z</time>
      </trkpt>
      <trkpt lat="44.31413" lon="3.33901">
        <ele>466</ele>
        <time>2009-07-08T08:08:49Z</time>
      </trkpt>
      <trkpt lat="44.31387" lon="3.33889">
        <ele>466</ele>
        <time>2009-07-08T08:08:59Z</time>
      </trkpt>
      <trkpt lat="44.31376" lon="3.33884">
        <ele>467</ele>
        <time>2009-07-08T08:09:03Z</time>
      </trkpt>
      <trkpt lat="44.31355" lon="3.33868">
        <ele>466</ele>
        <time>2009-07-08T08:09:10Z</time>
      </trkpt>
      <trkpt lat="44.31333" lon="3.33852">
        <ele>466</ele>
        <time>2009-07-08T08:09:17Z</time>
      </trkpt>
      <trkpt lat="44.31328" lon="3.33848">
        <ele>465</ele>
        <time>2009-07-08T08:09:27Z</time>
      </trkpt>
      <trkpt lat="44.31325" lon="3.33848">
        <ele>463</ele>
        <time>2009-07-08T08:09:29Z</time>
      </trkpt>
      <trkpt lat="44.31322" lon="3.33849">
        <ele>465</ele>
        <time>2009-07-08T08:09:42Z</time>
      </trkpt>
      <trkpt lat="44.31315" lon="3.33843">
        <ele>463</ele>
        <time>2009-07-08T08:09:53Z</time>
      </trkpt>
      <trkpt lat="44.31311" lon="3.3384">
        <ele>462</ele>
        <time>2009-07-08T08:09:56Z</time>
      </trkpt>
      <trkpt lat="44.31308" lon="3.33838">
        <ele>463</ele>
        <time>2009-07-08T08:09:58Z</time>
      </trkpt>
      <trkpt lat="44.31305" lon="3.33837">
        <ele>463</ele>
        <time>2009-07-08T08:10:00Z</time>
      </trkpt>
      <trkpt lat="44.31297" lon="3.33833">
        <ele>466</ele>
        <time>2009-07-08T08:10:09Z</time>
      </trkpt>
      <trkpt lat="44.31289" lon="3.33825">
        <ele>465</ele>
        <time>2009-07-08T08:10:14Z</time>
      </trkpt>
      <trkpt lat="44.31264" lon="3.33796">
        <ele>464</ele>
        <time>2009-07-08T08:10:25Z</time>
      </trkpt>
      <trkpt lat="44.31257" lon="3.3379">
        <ele>463</ele>
        <time>2009-07-08T08:10:27Z</time>
      </trkpt>
      <trkpt lat="44.31234" lon="3.33768">
        <ele>464</ele>
        <time>2009-07-08T08:10:36Z</time>
      </trkpt>
      <trkpt lat="44.31198" lon="3.33737">
        <ele>464</ele>
        <time>2009-07-08T08:10:47Z</time>
      </trkpt>
      <trkpt lat="44.31187" lon="3.33732">
        <ele>464</ele>
        <time>2009-07-08T08:10:52Z</time>
      </trkpt>
      <trkpt lat="44.31183" lon="3.33727">
        <ele>466</ele>
        <time>2009-07-08T08:10:54Z</time>
      </trkpt>
      <trkpt lat="44.31171" lon="3.33708">
        <ele>464</ele>
        <time>2009-07-08T08:10:59Z</time>
      </trkpt>
      <trkpt lat="44.31162" lon="3.3369">
        <ele>464</ele>
        <time>2009-07-08T08:11:03Z</time>
      </trkpt>
      <trkpt lat="44.31147" lon="3.33667">
        <ele>462</ele>
        <time>2009-07-08T08:11:08Z</time>
      </trkpt>
      <trkpt lat="44.31145" lon="3.33653">
        <ele>463</ele>
        <time>2009-07-08T08:11:12Z</time>
      </trkpt>
      <trkpt lat="44.31128" lon="3.33617">
        <ele>463</ele>
        <time>2009-07-08T08:11:21Z</time>
      </trkpt>
      <trkpt lat="44.31117" lon="3.33605">
        <ele>466</ele>
        <time>2009-07-08T08:11:27Z</time>
      </trkpt>
      <trkpt lat="44.31113" lon="3.33596">
        <ele>467</ele>
        <time>2009-07-08T08:11:30Z</time>
      </trkpt>
      <trkpt lat="44.31109" lon="3.33572">
        <ele>465</ele>
        <time>2009-07-08T08:11:35Z</time>
      </trkpt>
      <trkpt lat="44.31094" lon="3.33556">
        <ele>467</ele>
        <time>2009-07-08T08:11:41Z</time>
      </trkpt>
      <trkpt lat="44.3109" lon="3.33551">
        <ele>469</ele>
        <time>2009-07-08T08:11:44Z</time>
      </trkpt>
      <trkpt lat="44.31074" lon="3.33531">
        <ele>470</ele>
        <time>2009-07-08T08:11:56Z</time>
      </trkpt>
      <trkpt lat="44.31068" lon="3.33521">
        <ele>470</ele>
        <time>2009-07-08T08:12:13Z</time>
      </trkpt>
      <trkpt lat="44.31062" lon="3.33505">
        <ele>469</ele>
        <time>2009-07-08T08:12:24Z</time>
      </trkpt>
      <trkpt lat="44.31062" lon="3.33502">
        <ele>468</ele>
        <time>2009-07-08T08:12:29Z</time>
      </trkpt>
      <trkpt lat="44.31062" lon="3.33496">
        <ele>466</ele>
        <time>2009-07-08T08:12:36Z</time>
      </trkpt>
      <trkpt lat="44.31046" lon="3.33464">
        <ele>465</ele>
        <time>2009-07-08T08:12:45Z</time>
      </trkpt>
      <trkpt lat="44.3104" lon="3.33452">
        <ele>464</ele>
        <time>2009-07-08T08:12:48Z</time>
      </trkpt>
      <trkpt lat="44.31037" lon="3.33442">
        <ele>462</ele>
        <time>2009-07-08T08:12:50Z</time>
      </trkpt>
      <trkpt lat="44.31024" lon="3.33422">
        <ele>462</ele>
        <time>2009-07-08T08:12:56Z</time>
      </trkpt>
      <trkpt lat="44.31004" lon="3.33383">
        <ele>463</ele>
        <time>2009-07-08T08:13:06Z</time>
      </trkpt>
      <trkpt lat="44.3098" lon="3.33338">
        <ele>464</ele>
        <time>2009-07-08T08:13:18Z</time>
      </trkpt>
      <trkpt lat="44.30962" lon="3.33301">
        <ele>463</ele>
        <time>2009-07-08T08:13:27Z</time>
      </trkpt>
      <trkpt lat="44.30948" lon="3.3327">
        <ele>462</ele>
        <time>2009-07-08T08:13:35Z</time>
      </trkpt>
      <trkpt lat="44.30941" lon="3.33253">
        <ele>462</ele>
        <time>2009-07-08T08:13:42Z</time>
      </trkpt>
      <trkpt lat="44.30924" lon="3.33233">
        <ele>463</ele>
        <time>2009-07-08T08:13:55Z</time>
      </trkpt>
      <trkpt lat="44.30906" lon="3.33213">
        <ele>463</ele>
        <time>2009-07-08T08:14:03Z</time>
      </trkpt>
      <trkpt lat="44.30886" lon="3.33191">
        <ele>463</ele>
        <time>2009-07-08T08:14:12Z</time>
      </trkpt>
      <trkpt lat="44.30862" lon="3.33167">
        <ele>462</ele>
        <time>2009-07-08T08:14:21Z</time>
      </trkpt>
      <trkpt lat="44.3086" lon="3.33154">
        <ele>460</ele>
        <time>2009-07-08T08:14:25Z</time>
      </trkpt>
      <trkpt lat="44.30855" lon="3.3315">
        <ele>460</ele>
        <time>2009-07-08T08:14:27Z</time>
      </trkpt>
      <trkpt lat="44.30824" lon="3.33126">
        <ele>459</ele>
        <time>2009-07-08T08:14:38Z</time>
      </trkpt>
      <trkpt lat="44.30819" lon="3.33123">
        <ele>459</ele>
        <time>2009-07-08T08:14:40Z</time>
      </trkpt>
      <trkpt lat="44.30782" lon="3.33106">
        <ele>459</ele>
        <time>2009-07-08T08:14:52Z</time>
      </trkpt>
      <trkpt lat="44.30764" lon="3.33095">
        <ele>459</ele>
        <time>2009-07-08T08:14:58Z</time>
      </trkpt>
      <trkpt lat="44.30723" lon="3.33081">
        <ele>460</ele>
        <time>2009-07-08T08:15:11Z</time>
      </trkpt>
      <trkpt lat="44.30681" lon="3.33058">
        <ele>460</ele>
        <time>2009-07-08T08:15:23Z</time>
      </trkpt>
      <trkpt lat="44.30662" lon="3.33048">
        <ele>460</ele>
        <time>2009-07-08T08:15:29Z</time>
      </trkpt>
      <trkpt lat="44.30648" lon="3.33034">
        <ele>461</ele>
        <time>2009-07-08T08:15:39Z</time>
      </trkpt>
      <trkpt lat="44.30647" lon="3.33027">
        <ele>459</ele>
        <time>2009-07-08T08:15:52Z</time>
      </trkpt>
      <trkpt lat="44.30646" lon="3.33027">
        <ele>459</ele>
        <time>2009-07-08T08:15:54Z</time>
      </trkpt>
      <trkpt lat="44.3063" lon="3.33013">
        <ele>460</ele>
        <time>2009-07-08T08:16:03Z</time>
      </trkpt>
      <trkpt lat="44.30614" lon="3.32985">
        <ele>460</ele>
        <time>2009-07-08T08:16:13Z</time>
      </trkpt>
      <trkpt lat="44.30611" lon="3.3298">
        <ele>459</ele>
        <time>2009-07-08T08:16:23Z</time>
      </trkpt>
      <trkpt lat="44.30601" lon="3.32966">
        <ele>459</ele>
        <time>2009-07-08T08:16:30Z</time>
      </trkpt>
      <trkpt lat="44.30571" lon="3.32934">
        <ele>460</ele>
        <time>2009-07-08T08:16:43Z</time>
      </trkpt>
      <trkpt lat="44.30543" lon="3.32899">
        <ele>458</ele>
        <time>2009-07-08T08:16:54Z</time>
      </trkpt>
      <trkpt lat="44.30523" lon="3.3287">
        <ele>457</ele>
        <time>2009-07-08T08:17:04Z</time>
      </trkpt>
      <trkpt lat="44.30502" lon="3.32842">
        <ele>457</ele>
        <time>2009-07-08T08:17:14Z</time>
      </trkpt>
      <trkpt lat="44.30482" lon="3.32808">
        <ele>457</ele>
        <time>2009-07-08T08:17:26Z</time>
      </trkpt>
      <trkpt lat="44.30463" lon="3.32777">
        <ele>457</ele>
        <time>2009-07-08T08:17:34Z</time>
      </trkpt>
      <trkpt lat="44.30456" lon="3.32769">
        <ele>457</ele>
        <time>2009-07-08T08:17:38Z</time>
      </trkpt>
      <trkpt lat="44.3044" lon="3.32749">
        <ele>456</ele>
        <time>2009-07-08T08:17:49Z</time>
      </trkpt>
      <trkpt lat="44.30435" lon="3.32741">
        <ele>457</ele>
        <time>2009-07-08T08:18:04Z</time>
      </trkpt>
      <trkpt lat="44.30431" lon="3.32732">
        <ele>457</ele>
        <time>2009-07-08T08:18:18Z</time>
      </trkpt>
      <trkpt lat="44.30417" lon="3.32705">
        <ele>457</ele>
        <time>2009-07-08T08:18:30Z</time>
      </trkpt>
      <trkpt lat="44.30411" lon="3.32689">
        <ele>456</ele>
        <time>2009-07-08T08:18:35Z</time>
      </trkpt>
      <trkpt lat="44.30396" lon="3.32674">
        <ele>457</ele>
        <time>2009-07-08T08:18:42Z</time>
      </trkpt>
      <trkpt lat="44.3037" lon="3.32629">
        <ele>457</ele>
        <time>2009-07-08T08:18:57Z</time>
      </trkpt>
      <trkpt lat="44.3036" lon="3.32605">
        <ele>458</ele>
        <time>2009-07-08T08:19:07Z</time>
      </trkpt>
      <trkpt lat="44.30338" lon="3.32577">
        <ele>458</ele>
        <time>2009-07-08T08:19:18Z</time>
      </trkpt>
      <trkpt lat="44.30316" lon="3.3255">
        <ele>461</ele>
        <time>2009-07-08T08:19:29Z</time>
      </trkpt>
      <trkpt lat="44.30301" lon="3.32531">
        <ele>459</ele>
        <time>2009-07-08T08:19:38Z</time>
      </trkpt>
      <trkpt lat="44.30299" lon="3.32521">
        <ele>459</ele>
        <time>2009-07-08T08:19:47Z</time>
      </trkpt>
      <trkpt lat="44.30297" lon="3.32518">
        <ele>458</ele>
        <time>2009-07-08T08:19:52Z</time>
      </trkpt>
      <trkpt lat="44.30291" lon="3.32514">
        <ele>458</ele>
        <time>2009-07-08T08:19:59Z</time>
      </trkpt>
      <trkpt lat="44.3028" lon="3.32502">
        <ele>457</ele>
        <time>2009-07-08T08:20:13Z</time>
      </trkpt>
      <trkpt lat="44.30287" lon="3.32503">
        <ele>457</ele>
        <time>2009-07-08T08:20:41Z</time>
      </trkpt>
      <trkpt lat="44.30294" lon="3.32514">
        <ele>458</ele>
        <time>2009-07-08T08:20:59Z</time>
      </trkpt>
      <trkpt lat="44.30298" lon="3.32519">
        <ele>458</ele>
        <time>2009-07-08T08:21:14Z</time>
      </trkpt>
      <trkpt lat="44.30297" lon="3.32523">
        <ele>460</ele>
        <time>2009-07-08T08:21:28Z</time>
      </trkpt>
      <trkpt lat="44.30294" lon="3.32529">
        <ele>461</ele>
        <time>2009-07-08T08:21:49Z</time>
      </trkpt>
      <trkpt lat="44.30292" lon="3.32524">
        <ele>462</ele>
        <time>2009-07-08T08:22:01Z</time>
      </trkpt>
      <trkpt lat="44.30291" lon="3.32523">
        <ele>462</ele>
        <time>2009-07-08T08:22:12Z</time>
      </trkpt>
      <trkpt lat="44.30286" lon="3.32521">
        <ele>463</ele>
        <time>2009-07-08T08:22:16Z</time>
      </trkpt>
      <trkpt lat="44.30275" lon="3.32505">
        <ele>462</ele>
        <time>2009-07-08T08:22:24Z</time>
      </trkpt>
      <trkpt lat="44.30266" lon="3.32492">
        <ele>460</ele>
        <time>2009-07-08T08:22:30Z</time>
      </trkpt>
      <trkpt lat="44.30248" lon="3.32466">
        <ele>457</ele>
        <time>2009-07-08T08:22:42Z</time>
      </trkpt>
      <trkpt lat="44.30231" lon="3.32448">
        <ele>458</ele>
        <time>2009-07-08T08:23:00Z</time>
      </trkpt>
      <trkpt lat="44.30208" lon="3.32422">
        <ele>457</ele>
        <time>2009-07-08T08:23:10Z</time>
      </trkpt>
      <trkpt lat="44.30189" lon="3.32396">
        <ele>457</ele>
        <time>2009-07-08T08:23:21Z</time>
      </trkpt>
      <trkpt lat="44.30169" lon="3.32371">
        <ele>457</ele>
        <time>2009-07-08T08:23:37Z</time>
      </trkpt>
      <trkpt lat="44.30154" lon="3.32349">
        <ele>456</ele>
        <time>2009-07-08T08:23:47Z</time>
      </trkpt>
      <trkpt lat="44.30128" lon="3.32316">
        <ele>457</ele>
        <time>2009-07-08T08:23:59Z</time>
      </trkpt>
      <trkpt lat="44.30114" lon="3.32301">
        <ele>459</ele>
        <time>2009-07-08T08:24:07Z</time>
      </trkpt>
      <trkpt lat="44.30097" lon="3.32271">
        <ele>459</ele>
        <time>2009-07-08T08:24:21Z</time>
      </trkpt>
      <trkpt lat="44.30077" lon="3.32244">
        <ele>463</ele>
        <time>2009-07-08T08:24:34Z</time>
      </trkpt>
      <trkpt lat="44.30065" lon="3.32217">
        <ele>460</ele>
        <time>2009-07-08T08:24:40Z</time>
      </trkpt>
      <trkpt lat="44.30052" lon="3.322">
        <ele>464</ele>
        <time>2009-07-08T08:24:48Z</time>
      </trkpt>
      <trkpt lat="44.30042" lon="3.32182">
        <ele>467</ele>
        <time>2009-07-08T08:25:02Z</time>
      </trkpt>
      <trkpt lat="44.30038" lon="3.3218">
        <ele>467</ele>
        <time>2009-07-08T08:25:05Z</time>
      </trkpt>
      <trkpt lat="44.30034" lon="3.32173">
        <ele>466</ele>
        <time>2009-07-08T08:25:08Z</time>
      </trkpt>
      <trkpt lat="44.30017" lon="3.32124">
        <ele>465</ele>
        <time>2009-07-08T08:25:20Z</time>
      </trkpt>
      <trkpt lat="44.30013" lon="3.32106">
        <ele>464</ele>
        <time>2009-07-08T08:25:24Z</time>
      </trkpt>
      <trkpt lat="44.30019" lon="3.32092">
        <ele>464</ele>
        <time>2009-07-08T08:25:28Z</time>
      </trkpt>
      <trkpt lat="44.30045" lon="3.32075">
        <ele>466</ele>
        <time>2009-07-08T08:25:41Z</time>
      </trkpt>
      <trkpt lat="44.30044" lon="3.32078">
        <ele>465</ele>
        <time>2009-07-08T08:26:21Z</time>
      </trkpt>
      <trkpt lat="44.30045" lon="3.32079">
        <ele>465</ele>
        <time>2009-07-08T08:26:53Z</time>
      </trkpt>
      <trkpt lat="44.30045" lon="3.32078">
        <ele>465</ele>
        <time>2009-07-08T08:28:37Z</time>
      </trkpt>
      <trkpt lat="44.30045" lon="3.32077">
        <ele>465</ele>
        <time>2009-07-08T08:30:11Z</time>
      </trkpt>
      <trkpt lat="44.30045" lon="3.32076">
        <ele>464</ele>
        <time>2009-07-08T08:30:28Z</time>
      </trkpt>
      <trkpt lat="44.30042" lon="3.32074">
        <ele>463</ele>
        <time>2009-07-08T08:30:42Z</time>
      </trkpt>
      <trkpt lat="44.30037" lon="3.32078">
        <ele>464</ele>
        <time>2009-07-08T08:30:46Z</time>
      </trkpt>
      <trkpt lat="44.30005" lon="3.32087">
        <ele>463</ele>
        <time>2009-07-08T08:30:58Z</time>
      </trkpt>
      <trkpt lat="44.29993" lon="3.32038">
        <ele>462</ele>
        <time>2009-07-08T08:31:09Z</time>
      </trkpt>
      <trkpt lat="44.29988" lon="3.31949">
        <ele>464</ele>
        <time>2009-07-08T08:31:27Z</time>
      </trkpt>
      <trkpt lat="44.29992" lon="3.31884">
        <ele>467</ele>
        <time>2009-07-08T08:31:43Z</time>
      </trkpt>
      <trkpt lat="44.29989" lon="3.31817">
        <ele>470</ele>
        <time>2009-07-08T08:31:59Z</time>
      </trkpt>
      <trkpt lat="44.29983" lon="3.31729">
        <ele>472</ele>
        <time>2009-07-08T08:32:20Z</time>
      </trkpt>
      <trkpt lat="44.29976" lon="3.31654">
        <ele>475</ele>
        <time>2009-07-08T08:32:38Z</time>
      </trkpt>
      <trkpt lat="44.29991" lon="3.31618">
        <ele>475</ele>
        <time>2009-07-08T08:32:47Z</time>
      </trkpt>
      <trkpt lat="44.29986" lon="3.31598">
        <ele>474</ele>
        <time>2009-07-08T08:32:52Z</time>
      </trkpt>
      <trkpt lat="44.29982" lon="3.31588">
        <ele>474</ele>
        <time>2009-07-08T08:32:54Z</time>
      </trkpt>
      <trkpt lat="44.2997" lon="3.31564">
        <ele>474</ele>
        <time>2009-07-08T08:32:59Z</time>
      </trkpt>
      <trkpt lat="44.29948" lon="3.31528">
        <ele>473</ele>
        <time>2009-07-08T08:33:07Z</time>
      </trkpt>
      <trkpt lat="44.29937" lon="3.31502">
        <ele>471</ele>
        <time>2009-07-08T08:33:12Z</time>
      </trkpt>
      <trkpt lat="44.299" lon="3.31449">
        <ele>467</ele>
        <time>2009-07-08T08:33:21Z</time>
      </trkpt>
      <trkpt lat="44.29885" lon="3.31423">
        <ele>466</ele>
        <time>2009-07-08T08:33:25Z</time>
      </trkpt>
      <trkpt lat="44.29876" lon="3.31411">
        <ele>465</ele>
        <time>2009-07-08T08:33:27Z</time>
      </trkpt>
      <trkpt lat="44.29866" lon="3.31405">
        <ele>464</ele>
        <time>2009-07-08T08:33:29Z</time>
      </trkpt>
      <trkpt lat="44.29856" lon="3.31401">
        <ele>465</ele>
        <time>2009-07-08T08:33:31Z</time>
      </trkpt>
      <trkpt lat="44.29836" lon="3.31393">
        <ele>465</ele>
        <time>2009-07-08T08:33:35Z</time>
      </trkpt>
      <trkpt lat="44.2982" lon="3.31348">
        <ele>466</ele>
        <time>2009-07-08T08:33:44Z</time>
      </trkpt>
      <trkpt lat="44.29837" lon="3.31324">
        <ele>468</ele>
        <time>2009-07-08T08:33:51Z</time>
      </trkpt>
      <trkpt lat="44.29835" lon="3.31315">
        <ele>468</ele>
        <time>2009-07-08T08:33:53Z</time>
      </trkpt>
      <trkpt lat="44.29832" lon="3.31221">
        <ele>469</ele>
        <time>2009-07-08T08:34:13Z</time>
      </trkpt>
      <trkpt lat="44.29842" lon="3.31164">
        <ele>472</ele>
        <time>2009-07-08T08:34:25Z</time>
      </trkpt>
      <trkpt lat="44.2986" lon="3.31143">
        <ele>472</ele>
        <time>2009-07-08T08:34:31Z</time>
      </trkpt>
      <trkpt lat="44.29892" lon="3.31113">
        <ele>473</ele>
        <time>2009-07-08T08:34:42Z</time>
      </trkpt>
      <trkpt lat="44.29895" lon="3.31108">
        <ele>473</ele>
        <time>2009-07-08T08:34:43Z</time>
      </trkpt>
      <trkpt lat="44.29903" lon="3.31088">
        <ele>473</ele>
        <time>2009-07-08T08:34:47Z</time>
      </trkpt>
      <trkpt lat="44.29928" lon="3.31063">
        <ele>475</ele>
        <time>2009-07-08T08:34:55Z</time>
      </trkpt>
      <trkpt lat="44.29971" lon="3.31043">
        <ele>476</ele>
        <time>2009-07-08T08:35:07Z</time>
      </trkpt>
      <trkpt lat="44.3" lon="3.31047">
        <ele>476</ele>
        <time>2009-07-08T08:35:14Z</time>
      </trkpt>
      <trkpt lat="44.30016" lon="3.31046">
        <ele>476</ele>
        <time>2009-07-08T08:35:18Z</time>
      </trkpt>
      <trkpt lat="44.30065" lon="3.31036">
        <ele>476</ele>
        <time>2009-07-08T08:35:30Z</time>
      </trkpt>
      <trkpt lat="44.30082" lon="3.31037">
        <ele>478</ele>
        <time>2009-07-08T08:35:34Z</time>
      </trkpt>
      <trkpt lat="44.30104" lon="3.31034">
        <ele>477</ele>
        <time>2009-07-08T08:35:40Z</time>
      </trkpt>
      <trkpt lat="44.30116" lon="3.31">
        <ele>476</ele>
        <time>2009-07-08T08:35:46Z</time>
      </trkpt>
      <trkpt lat="44.30131" lon="3.30969">
        <ele>475</ele>
        <time>2009-07-08T08:35:51Z</time>
      </trkpt>
      <trkpt lat="44.30163" lon="3.30932">
        <ele>474</ele>
        <time>2009-07-08T08:35:59Z</time>
      </trkpt>
      <trkpt lat="44.30217" lon="3.3087">
        <ele>473</ele>
        <time>2009-07-08T08:36:13Z</time>
      </trkpt>
      <trkpt lat="44.30243" lon="3.30831">
        <ele>473</ele>
        <time>2009-07-08T08:36:21Z</time>
      </trkpt>
      <trkpt lat="44.30276" lon="3.30786">
        <ele>471</ele>
        <time>2009-07-08T08:36:30Z</time>
      </trkpt>
      <trkpt lat="44.30288" lon="3.30765">
        <ele>472</ele>
        <time>2009-07-08T08:36:34Z</time>
      </trkpt>
      <trkpt lat="44.30299" lon="3.30732">
        <ele>470</ele>
        <time>2009-07-08T08:36:39Z</time>
      </trkpt>
      <trkpt lat="44.30341" lon="3.30641">
        <ele>471</ele>
        <time>2009-07-08T08:36:54Z</time>
      </trkpt>
      <trkpt lat="44.30351" lon="3.30625">
        <ele>470</ele>
        <time>2009-07-08T08:36:57Z</time>
      </trkpt>
      <trkpt lat="44.30363" lon="3.30594">
        <ele>470</ele>
        <time>2009-07-08T08:37:02Z</time>
      </trkpt>
      <trkpt lat="44.30403" lon="3.30503">
        <ele>470</ele>
        <time>2009-07-08T08:37:17Z</time>
      </trkpt>
      <trkpt lat="44.30437" lon="3.30421">
        <ele>469</ele>
        <time>2009-07-08T08:37:30Z</time>
      </trkpt>
      <trkpt lat="44.30451" lon="3.30388">
        <ele>469</ele>
        <time>2009-07-08T08:37:35Z</time>
      </trkpt>
      <trkpt lat="44.30489" lon="3.30291">
        <ele>467</ele>
        <time>2009-07-08T08:37:50Z</time>
      </trkpt>
      <trkpt lat="44.30498" lon="3.30272">
        <ele>467</ele>
        <time>2009-07-08T08:37:53Z</time>
      </trkpt>
      <trkpt lat="44.30506" lon="3.30204">
        <ele>467</ele>
        <time>2009-07-08T08:38:03Z</time>
      </trkpt>
      <trkpt lat="44.30515" lon="3.30169">
        <ele>468</ele>
        <time>2009-07-08T08:38:09Z</time>
      </trkpt>
      <trkpt lat="44.30506" lon="3.30129">
        <ele>467</ele>
        <time>2009-07-08T08:38:15Z</time>
      </trkpt>
      <trkpt lat="44.30502" lon="3.30085">
        <ele>466</ele>
        <time>2009-07-08T08:38:21Z</time>
      </trkpt>
      <trkpt lat="44.30501" lon="3.30071">
        <ele>467</ele>
        <time>2009-07-08T08:38:23Z</time>
      </trkpt>
      <trkpt lat="44.30492" lon="3.30041">
        <ele>466</ele>
        <time>2009-07-08T08:38:27Z</time>
      </trkpt>
      <trkpt lat="44.30453" lon="3.29957">
        <ele>464</ele>
        <time>2009-07-08T08:38:41Z</time>
      </trkpt>
      <trkpt lat="44.3043" lon="3.2993">
        <ele>464</ele>
        <time>2009-07-08T08:38:47Z</time>
      </trkpt>
      <trkpt lat="44.30377" lon="3.29873">
        <ele>464</ele>
        <time>2009-07-08T08:39:00Z</time>
      </trkpt>
      <trkpt lat="44.30349" lon="3.29861">
        <ele>464</ele>
        <time>2009-07-08T08:39:06Z</time>
      </trkpt>
      <trkpt lat="44.30273" lon="3.29823">
        <ele>467</ele>
        <time>2009-07-08T08:39:23Z</time>
      </trkpt>
      <trkpt lat="44.30222" lon="3.29789">
        <ele>470</ele>
        <time>2009-07-08T08:39:38Z</time>
      </trkpt>
      <trkpt lat="44.30177" lon="3.29774">
        <ele>473</ele>
        <time>2009-07-08T08:39:52Z</time>
      </trkpt>
      <trkpt lat="44.30175" lon="3.29772">
        <ele>473</ele>
        <time>2009-07-08T08:39:53Z</time>
      </trkpt>
      <trkpt lat="44.30109" lon="3.2974">
        <ele>472</ele>
        <time>2009-07-08T08:40:13Z</time>
      </trkpt>
      <trkpt lat="44.30098" lon="3.2973">
        <ele>472</ele>
        <time>2009-07-08T08:40:16Z</time>
      </trkpt>
      <trkpt lat="44.3007" lon="3.29701">
        <ele>468</ele>
        <time>2009-07-08T08:40:23Z</time>
      </trkpt>
      <trkpt lat="44.3005" lon="3.29679">
        <ele>465</ele>
        <time>2009-07-08T08:40:27Z</time>
      </trkpt>
      <trkpt lat="44.30045" lon="3.29673">
        <ele>464</ele>
        <time>2009-07-08T08:40:28Z</time>
      </trkpt>
      <trkpt lat="44.30019" lon="3.29633">
        <ele>460</ele>
        <time>2009-07-08T08:40:33Z</time>
      </trkpt>
      <trkpt lat="44.30014" lon="3.29625">
        <ele>458</ele>
        <time>2009-07-08T08:40:34Z</time>
      </trkpt>
      <trkpt lat="44.3" lon="3.29584">
        <ele>453</ele>
        <time>2009-07-08T08:40:38Z</time>
      </trkpt>
      <trkpt lat="44.2999" lon="3.29553">
        <ele>455</ele>
        <time>2009-07-08T08:40:41Z</time>
      </trkpt>
      <trkpt lat="44.2998" lon="3.29517">
        <ele>460</ele>
        <time>2009-07-08T08:40:47Z</time>
      </trkpt>
      <trkpt lat="44.29977" lon="3.29503">
        <ele>460</ele>
        <time>2009-07-08T08:40:50Z</time>
      </trkpt>
      <trkpt lat="44.29976" lon="3.29493">
        <ele>460</ele>
        <time>2009-07-08T08:40:52Z</time>
      </trkpt>
      <trkpt lat="44.29972" lon="3.29474">
        <ele>460</ele>
        <time>2009-07-08T08:40:56Z</time>
      </trkpt>
      <trkpt lat="44.29958" lon="3.29419">
        <ele>462</ele>
        <time>2009-07-08T08:41:10Z</time>
      </trkpt>
      <trkpt lat="44.29947" lon="3.29389">
        <ele>464</ele>
        <time>2009-07-08T08:41:22Z</time>
      </trkpt>
      <trkpt lat="44.29939" lon="3.2939">
        <ele>465</ele>
        <time>2009-07-08T08:41:28Z</time>
      </trkpt>
      <trkpt lat="44.29934" lon="3.29392">
        <ele>467</ele>
        <time>2009-07-08T08:41:44Z</time>
      </trkpt>
      <trkpt lat="44.29935" lon="3.29403">
        <ele>470</ele>
        <time>2009-07-08T08:41:59Z</time>
      </trkpt>
      <trkpt lat="44.29936" lon="3.29405">
        <ele>471</ele>
        <time>2009-07-08T08:42:01Z</time>
      </trkpt>
      <trkpt lat="44.29941" lon="3.2941">
        <ele>473</ele>
        <time>2009-07-08T08:42:13Z</time>
      </trkpt>
      <trkpt lat="44.29935" lon="3.29412">
        <ele>474</ele>
        <time>2009-07-08T08:42:27Z</time>
      </trkpt>
      <trkpt lat="44.29919" lon="3.29412">
        <ele>477</ele>
        <time>2009-07-08T08:42:36Z</time>
      </trkpt>
      <trkpt lat="44.29917" lon="3.29412">
        <ele>478</ele>
        <time>2009-07-08T08:42:37Z</time>
      </trkpt>
      <trkpt lat="44.299" lon="3.29412">
        <ele>480</ele>
        <time>2009-07-08T08:42:49Z</time>
      </trkpt>
      <trkpt lat="44.29893" lon="3.29416">
        <ele>481</ele>
        <time>2009-07-08T08:42:56Z</time>
      </trkpt>
      <trkpt lat="44.29888" lon="3.29416">
        <ele>483</ele>
        <time>2009-07-08T08:43:00Z</time>
      </trkpt>
      <trkpt lat="44.29885" lon="3.29418">
        <ele>484</ele>
        <time>2009-07-08T08:43:09Z</time>
      </trkpt>
      <trkpt lat="44.29881" lon="3.2941">
        <ele>486</ele>
        <time>2009-07-08T08:43:23Z</time>
      </trkpt>
      <trkpt lat="44.2988" lon="3.29404">
        <ele>487</ele>
        <time>2009-07-08T08:43:35Z</time>
      </trkpt>
      <trkpt lat="44.29879" lon="3.2939">
        <ele>490</ele>
        <time>2009-07-08T08:43:43Z</time>
      </trkpt>
      <trkpt lat="44.29874" lon="3.29378">
        <ele>491</ele>
        <time>2009-07-08T08:43:56Z</time>
      </trkpt>
      <trkpt lat="44.29871" lon="3.29374">
        <ele>492</ele>
        <time>2009-07-08T08:43:59Z</time>
      </trkpt>
      <trkpt lat="44.29863" lon="3.29366">
        <ele>495</ele>
        <time>2009-07-08T08:44:05Z</time>
      </trkpt>
      <trkpt lat="44.29858" lon="3.29357">
        <ele>497</ele>
        <time>2009-07-08T08:44:21Z</time>
      </trkpt>
      <trkpt lat="44.29856" lon="3.29353">
        <ele>496</ele>
        <time>2009-07-08T08:45:20Z</time>
      </trkpt>
      <trkpt lat="44.29856" lon="3.29357">
        <ele>498</ele>
        <time>2009-07-08T08:45:38Z</time>
      </trkpt>
      <trkpt lat="44.29858" lon="3.29364">
        <ele>496</ele>
        <time>2009-07-08T08:47:38Z</time>
      </trkpt>
      <trkpt lat="44.29858" lon="3.29364">
        <ele>500</ele>
        <time>2009-07-08T08:47:40Z</time>
      </trkpt>
      <trkpt lat="44.29858" lon="3.29364">
        <ele>500</ele>
        <time>2009-07-08T08:47:41Z</time>
      </trkpt>
      <trkpt lat="44.29858" lon="3.29364">
        <ele>496</ele>
        <time>2009-07-08T08:47:44Z</time>
      </trkpt>
      <trkpt lat="44.29859" lon="3.29364">
        <ele>498</ele>
        <time>2009-07-08T08:47:45Z</time>
      </trkpt>
      <trkpt lat="44.29854" lon="3.29357">
        <ele>501</ele>
        <time>2009-07-08T08:48:07Z</time>
      </trkpt>
      <trkpt lat="44.29854" lon="3.29358">
        <ele>498</ele>
        <time>2009-07-08T08:48:14Z</time>
      </trkpt>
      <trkpt lat="44.2986" lon="3.29363">
        <ele>497</ele>
        <time>2009-07-08T08:49:37Z</time>
      </trkpt>
      <trkpt lat="44.29857" lon="3.29357">
        <ele>497</ele>
        <time>2009-07-08T08:49:54Z</time>
      </trkpt>
      <trkpt lat="44.29848" lon="3.29324">
        <ele>494</ele>
        <time>2009-07-08T08:50:06Z</time>
      </trkpt>
      <trkpt lat="44.29842" lon="3.29309">
        <ele>492</ele>
        <time>2009-07-08T08:50:09Z</time>
      </trkpt>
      <trkpt lat="44.29835" lon="3.29293">
        <ele>491</ele>
        <time>2009-07-08T08:50:12Z</time>
      </trkpt>
      <trkpt lat="44.29827" lon="3.29278">
        <ele>490</ele>
        <time>2009-07-08T08:50:15Z</time>
      </trkpt>
      <trkpt lat="44.29807" lon="3.29262">
        <ele>493</ele>
        <time>2009-07-08T08:50:23Z</time>
      </trkpt>
      <trkpt lat="44.29789" lon="3.29233">
        <ele>492</ele>
        <time>2009-07-08T08:50:33Z</time>
      </trkpt>
      <trkpt lat="44.29776" lon="3.29218">
        <ele>493</ele>
        <time>2009-07-08T08:50:41Z</time>
      </trkpt>
      <trkpt lat="44.29773" lon="3.29216">
        <ele>493</ele>
        <time>2009-07-08T08:50:43Z</time>
      </trkpt>
      <trkpt lat="44.29771" lon="3.29214">
        <ele>494</ele>
        <time>2009-07-08T08:50:44Z</time>
      </trkpt>
      <trkpt lat="44.29758" lon="3.29188">
        <ele>494</ele>
        <time>2009-07-08T08:50:54Z</time>
      </trkpt>
      <trkpt lat="44.29735" lon="3.29165">
        <ele>495</ele>
        <time>2009-07-08T08:51:06Z</time>
      </trkpt>
      <trkpt lat="44.29724" lon="3.29156">
        <ele>498</ele>
        <time>2009-07-08T08:51:12Z</time>
      </trkpt>
      <trkpt lat="44.29704" lon="3.29132">
        <ele>494</ele>
        <time>2009-07-08T08:51:22Z</time>
      </trkpt>
      <trkpt lat="44.29701" lon="3.29129">
        <ele>494</ele>
        <time>2009-07-08T08:51:23Z</time>
      </trkpt>
      <trkpt lat="44.29695" lon="3.29124">
        <ele>492</ele>
        <time>2009-07-08T08:51:25Z</time>
      </trkpt>
      <trkpt lat="44.29678" lon="3.29107">
        <ele>492</ele>
        <time>2009-07-08T08:51:34Z</time>
      </trkpt>
      <trkpt lat="44.29671" lon="3.29093">
        <ele>488</ele>
        <time>2009-07-08T08:51:39Z</time>
      </trkpt>
      <trkpt lat="44.29669" lon="3.2909">
        <ele>488</ele>
        <time>2009-07-08T08:51:40Z</time>
      </trkpt>
      <trkpt lat="44.29657" lon="3.29078">
        <ele>487</ele>
        <time>2009-07-08T08:51:45Z</time>
      </trkpt>
      <trkpt lat="44.29659" lon="3.2907">
        <ele>486</ele>
        <time>2009-07-08T08:51:49Z</time>
      </trkpt>
      <trkpt lat="44.29661" lon="3.29066">
        <ele>485</ele>
        <time>2009-07-08T08:51:51Z</time>
      </trkpt>
      <trkpt lat="44.29662" lon="3.29057">
        <ele>485</ele>
        <time>2009-07-08T08:52:05Z</time>
      </trkpt>
      <trkpt lat="44.2967" lon="3.29045">
        <ele>483</ele>
        <time>2009-07-08T08:52:41Z</time>
      </trkpt>
      <trkpt lat="44.29674" lon="3.29037">
        <ele>483</ele>
        <time>2009-07-08T08:52:44Z</time>
      </trkpt>
      <trkpt lat="44.29672" lon="3.29008">
        <ele>483</ele>
        <time>2009-07-08T08:52:52Z</time>
      </trkpt>
      <trkpt lat="44.29671" lon="3.28996">
        <ele>483</ele>
        <time>2009-07-08T08:53:02Z</time>
      </trkpt>
      <trkpt lat="44.29667" lon="3.28974">
        <ele>484</ele>
        <time>2009-07-08T08:53:13Z</time>
      </trkpt>
      <trkpt lat="44.29655" lon="3.28946">
        <ele>484</ele>
        <time>2009-07-08T08:53:22Z</time>
      </trkpt>
      <trkpt lat="44.29652" lon="3.2893">
        <ele>486</ele>
        <time>2009-07-08T08:53:28Z</time>
      </trkpt>
      <trkpt lat="44.29656" lon="3.28921">
        <ele>486</ele>
        <time>2009-07-08T08:53:39Z</time>
      </trkpt>
      <trkpt lat="44.29655" lon="3.2892">
        <ele>487</ele>
        <time>2009-07-08T08:53:42Z</time>
      </trkpt>
      <trkpt lat="44.29654" lon="3.28909">
        <ele>490</ele>
        <time>2009-07-08T08:53:48Z</time>
      </trkpt>
      <trkpt lat="44.29655" lon="3.28893">
        <ele>493</ele>
        <time>2009-07-08T08:53:57Z</time>
      </trkpt>
      <trkpt lat="44.29656" lon="3.28881">
        <ele>496</ele>
        <time>2009-07-08T08:54:08Z</time>
      </trkpt>
      <trkpt lat="44.29656" lon="3.28878">
        <ele>496</ele>
        <time>2009-07-08T08:54:10Z</time>
      </trkpt>
      <trkpt lat="44.29651" lon="3.28864">
        <ele>497</ele>
        <time>2009-07-08T08:54:22Z</time>
      </trkpt>
      <trkpt lat="44.29653" lon="3.28861">
        <ele>497</ele>
        <time>2009-07-08T08:54:29Z</time>
      </trkpt>
      <trkpt lat="44.29653" lon="3.28857">
        <ele>497</ele>
        <time>2009-07-08T08:54:31Z</time>
      </trkpt>
      <trkpt lat="44.29645" lon="3.2884">
        <ele>497</ele>
        <time>2009-07-08T08:54:40Z</time>
      </trkpt>
      <trkpt lat="44.29648" lon="3.28809">
        <ele>497</ele>
        <time>2009-07-08T08:54:49Z</time>
      </trkpt>
      <trkpt lat="44.29646" lon="3.28799">
        <ele>497</ele>
        <time>2009-07-08T08:55:02Z</time>
      </trkpt>
      <trkpt lat="44.29643" lon="3.28795">
        <ele>497</ele>
        <time>2009-07-08T08:55:18Z</time>
      </trkpt>
      <trkpt lat="44.29646" lon="3.28786">
        <ele>498</ele>
        <time>2009-07-08T08:55:22Z</time>
      </trkpt>
      <trkpt lat="44.2965" lon="3.28778">
        <ele>499</ele>
        <time>2009-07-08T08:55:26Z</time>
      </trkpt>
      <trkpt lat="44.29652" lon="3.28753">
        <ele>499</ele>
        <time>2009-07-08T08:55:33Z</time>
      </trkpt>
      <trkpt lat="44.29653" lon="3.28731">
        <ele>503</ele>
        <time>2009-07-08T08:55:43Z</time>
      </trkpt>
      <trkpt lat="44.29647" lon="3.28722">
        <ele>504</ele>
        <time>2009-07-08T08:55:54Z</time>
      </trkpt>
      <trkpt lat="44.29643" lon="3.2871">
        <ele>503</ele>
        <time>2009-07-08T08:56:04Z</time>
      </trkpt>
      <trkpt lat="44.29642" lon="3.28705">
        <ele>502</ele>
        <time>2009-07-08T08:56:07Z</time>
      </trkpt>
      <trkpt lat="44.29634" lon="3.28701">
        <ele>501</ele>
        <time>2009-07-08T08:56:10Z</time>
      </trkpt>
      <trkpt lat="44.29621" lon="3.28683">
        <ele>504</ele>
        <time>2009-07-08T08:56:19Z</time>
      </trkpt>
      <trkpt lat="44.29619" lon="3.28679">
        <ele>504</ele>
        <time>2009-07-08T08:56:21Z</time>
      </trkpt>
      <trkpt lat="44.29609" lon="3.28666">
        <ele>505</ele>
        <time>2009-07-08T08:56:30Z</time>
      </trkpt>
      <trkpt lat="44.29611" lon="3.28654">
        <ele>506</ele>
        <time>2009-07-08T08:56:40Z</time>
      </trkpt>
      <trkpt lat="44.29612" lon="3.2865">
        <ele>507</ele>
        <time>2009-07-08T08:56:45Z</time>
      </trkpt>
      <trkpt lat="44.29614" lon="3.28641">
        <ele>507</ele>
        <time>2009-07-08T08:56:51Z</time>
      </trkpt>
      <trkpt lat="44.29619" lon="3.28623">
        <ele>508</ele>
        <time>2009-07-08T08:56:57Z</time>
      </trkpt>
      <trkpt lat="44.2962" lon="3.286">
        <ele>508</ele>
        <time>2009-07-08T08:57:05Z</time>
      </trkpt>
      <trkpt lat="44.2962" lon="3.2858">
        <ele>507</ele>
        <time>2009-07-08T08:57:11Z</time>
      </trkpt>
      <trkpt lat="44.29622" lon="3.28556">
        <ele>507</ele>
        <time>2009-07-08T08:57:18Z</time>
      </trkpt>
      <trkpt lat="44.29627" lon="3.28539">
        <ele>505</ele>
        <time>2009-07-08T08:57:28Z</time>
      </trkpt>
      <trkpt lat="44.29623" lon="3.28529">
        <ele>506</ele>
        <time>2009-07-08T08:57:37Z</time>
      </trkpt>
      <trkpt lat="44.29623" lon="3.28516">
        <ele>506</ele>
        <time>2009-07-08T08:57:51Z</time>
      </trkpt>
      <trkpt lat="44.29631" lon="3.28495">
        <ele>507</ele>
        <time>2009-07-08T08:58:02Z</time>
      </trkpt>
      <trkpt lat="44.29636" lon="3.28479">
        <ele>506</ele>
        <time>2009-07-08T08:58:07Z</time>
      </trkpt>
      <trkpt lat="44.29637" lon="3.28465">
        <ele>506</ele>
        <time>2009-07-08T08:58:11Z</time>
      </trkpt>
      <trkpt lat="44.29638" lon="3.28447">
        <ele>506</ele>
        <time>2009-07-08T08:58:15Z</time>
      </trkpt>
      <trkpt lat="44.29634" lon="3.28424">
        <ele>507</ele>
        <time>2009-07-08T08:58:21Z</time>
      </trkpt>
      <trkpt lat="44.29631" lon="3.28408">
        <ele>509</ele>
        <time>2009-07-08T08:58:31Z</time>
      </trkpt>
      <trkpt lat="44.2963" lon="3.28405">
        <ele>509</ele>
        <time>2009-07-08T08:58:33Z</time>
      </trkpt>
      <trkpt lat="44.29618" lon="3.28381">
        <ele>506</ele>
        <time>2009-07-08T08:58:42Z</time>
      </trkpt>
      <trkpt lat="44.29607" lon="3.28367">
        <ele>506</ele>
        <time>2009-07-08T08:58:46Z</time>
      </trkpt>
      <trkpt lat="44.29602" lon="3.28358">
        <ele>507</ele>
        <time>2009-07-08T08:58:49Z</time>
      </trkpt>
      <trkpt lat="44.29596" lon="3.28347">
        <ele>510</ele>
        <time>2009-07-08T08:58:59Z</time>
      </trkpt>
      <trkpt lat="44.29594" lon="3.28345">
        <ele>511</ele>
        <time>2009-07-08T08:59:02Z</time>
      </trkpt>
      <trkpt lat="44.29593" lon="3.28334">
        <ele>514</ele>
        <time>2009-07-08T08:59:15Z</time>
      </trkpt>
      <trkpt lat="44.29594" lon="3.28306">
        <ele>516</ele>
        <time>2009-07-08T08:59:27Z</time>
      </trkpt>
      <trkpt lat="44.29593" lon="3.28305">
        <ele>516</ele>
        <time>2009-07-08T08:59:28Z</time>
      </trkpt>
      <trkpt lat="44.29586" lon="3.28293">
        <ele>516</ele>
        <time>2009-07-08T08:59:35Z</time>
      </trkpt>
      <trkpt lat="44.29586" lon="3.28283">
        <ele>516</ele>
        <time>2009-07-08T08:59:40Z</time>
      </trkpt>
      <trkpt lat="44.29601" lon="3.28266">
        <ele>514</ele>
        <time>2009-07-08T08:59:51Z</time>
      </trkpt>
      <trkpt lat="44.29618" lon="3.28249">
        <ele>517</ele>
        <time>2009-07-08T09:00:02Z</time>
      </trkpt>
      <trkpt lat="44.2962" lon="3.28242">
        <ele>517</ele>
        <time>2009-07-08T09:00:06Z</time>
      </trkpt>
      <trkpt lat="44.29624" lon="3.28237">
        <ele>519</ele>
        <time>2009-07-08T09:00:09Z</time>
      </trkpt>
      <trkpt lat="44.29627" lon="3.28234">
        <ele>520</ele>
        <time>2009-07-08T09:00:11Z</time>
      </trkpt>
      <trkpt lat="44.29632" lon="3.28218">
        <ele>520</ele>
        <time>2009-07-08T09:00:17Z</time>
      </trkpt>
      <trkpt lat="44.29632" lon="3.282">
        <ele>521</ele>
        <time>2009-07-08T09:00:28Z</time>
      </trkpt>
      <trkpt lat="44.29635" lon="3.28184">
        <ele>521</ele>
        <time>2009-07-08T09:00:35Z</time>
      </trkpt>
      <trkpt lat="44.29638" lon="3.28172">
        <ele>521</ele>
        <time>2009-07-08T09:00:39Z</time>
      </trkpt>
      <trkpt lat="44.29639" lon="3.28155">
        <ele>521</ele>
        <time>2009-07-08T09:00:45Z</time>
      </trkpt>
      <trkpt lat="44.29636" lon="3.28143">
        <ele>522</ele>
        <time>2009-07-08T09:00:54Z</time>
      </trkpt>
      <trkpt lat="44.29635" lon="3.2814">
        <ele>521</ele>
        <time>2009-07-08T09:00:56Z</time>
      </trkpt>
      <trkpt lat="44.29632" lon="3.28125">
        <ele>521</ele>
        <time>2009-07-08T09:01:01Z</time>
      </trkpt>
      <trkpt lat="44.29648" lon="3.28124">
        <ele>521</ele>
        <time>2009-07-08T09:01:07Z</time>
      </trkpt>
      <trkpt lat="44.29661" lon="3.28122">
        <ele>521</ele>
        <time>2009-07-08T09:01:21Z</time>
      </trkpt>
      <trkpt lat="44.29687" lon="3.28119">
        <ele>521</ele>
        <time>2009-07-08T09:01:32Z</time>
      </trkpt>
      <trkpt lat="44.29703" lon="3.28102">
        <ele>522</ele>
        <time>2009-07-08T09:01:39Z</time>
      </trkpt>
      <trkpt lat="44.29717" lon="3.2808">
        <ele>522</ele>
        <time>2009-07-08T09:01:49Z</time>
      </trkpt>
      <trkpt lat="44.29724" lon="3.28074">
        <ele>521</ele>
        <time>2009-07-08T09:02:02Z</time>
      </trkpt>
      <trkpt lat="44.29733" lon="3.28069">
        <ele>520</ele>
        <time>2009-07-08T09:02:09Z</time>
      </trkpt>
      <trkpt lat="44.29739" lon="3.28053">
        <ele>522</ele>
        <time>2009-07-08T09:02:15Z</time>
      </trkpt>
      <trkpt lat="44.29754" lon="3.28023">
        <ele>522</ele>
        <time>2009-07-08T09:02:26Z</time>
      </trkpt>
      <trkpt lat="44.29759" lon="3.28011">
        <ele>521</ele>
        <time>2009-07-08T09:02:31Z</time>
      </trkpt>
      <trkpt lat="44.29763" lon="3.27991">
        <ele>521</ele>
        <time>2009-07-08T09:02:37Z</time>
      </trkpt>
      <trkpt lat="44.29775" lon="3.27968">
        <ele>520</ele>
        <time>2009-07-08T09:02:47Z</time>
      </trkpt>
      <trkpt lat="44.29778" lon="3.27964">
        <ele>521</ele>
        <time>2009-07-08T09:02:49Z</time>
      </trkpt>
      <trkpt lat="44.29795" lon="3.27935">
        <ele>521</ele>
        <time>2009-07-08T09:03:01Z</time>
      </trkpt>
      <trkpt lat="44.29805" lon="3.27906">
        <ele>522</ele>
        <time>2009-07-08T09:03:11Z</time>
      </trkpt>
      <trkpt lat="44.29825" lon="3.2787">
        <ele>520</ele>
        <time>2009-07-08T09:03:21Z</time>
      </trkpt>
      <trkpt lat="44.29831" lon="3.27833">
        <ele>517</ele>
        <time>2009-07-08T09:03:29Z</time>
      </trkpt>
      <trkpt lat="44.29827" lon="3.27799">
        <ele>516</ele>
        <time>2009-07-08T09:03:39Z</time>
      </trkpt>
      <trkpt lat="44.29825" lon="3.27798">
        <ele>516</ele>
        <time>2009-07-08T09:03:46Z</time>
      </trkpt>
      <trkpt lat="44.2982" lon="3.27793">
        <ele>515</ele>
        <time>2009-07-08T09:04:03Z</time>
      </trkpt>
      <trkpt lat="44.29823" lon="3.27779">
        <ele>515</ele>
        <time>2009-07-08T09:04:10Z</time>
      </trkpt>
      <trkpt lat="44.29821" lon="3.27769">
        <ele>516</ele>
        <time>2009-07-08T09:04:23Z</time>
      </trkpt>
      <trkpt lat="44.29821" lon="3.27764">
        <ele>516</ele>
        <time>2009-07-08T09:05:52Z</time>
      </trkpt>
      <trkpt lat="44.29817" lon="3.27762">
        <ele>517</ele>
        <time>2009-07-08T09:06:30Z</time>
      </trkpt>
      <trkpt lat="44.29813" lon="3.27759">
        <ele>516</ele>
        <time>2009-07-08T09:07:05Z</time>
      </trkpt>
      <trkpt lat="44.29814" lon="3.27767">
        <ele>516</ele>
        <time>2009-07-08T09:08:16Z</time>
      </trkpt>
      <trkpt lat="44.29819" lon="3.27761">
        <ele>515</ele>
        <time>2009-07-08T09:10:01Z</time>
      </trkpt>
      <trkpt lat="44.29814" lon="3.27755">
        <ele>516</ele>
        <time>2009-07-08T09:11:29Z</time>
      </trkpt>
      <trkpt lat="44.29823" lon="3.27761">
        <ele>515</ele>
        <time>2009-07-08T09:14:25Z</time>
      </trkpt>
      <trkpt lat="44.29828" lon="3.27748">
        <ele>517</ele>
        <time>2009-07-08T09:14:43Z</time>
      </trkpt>
      <trkpt lat="44.29831" lon="3.27742">
        <ele>517</ele>
        <time>2009-07-08T09:14:46Z</time>
      </trkpt>
      <trkpt lat="44.29845" lon="3.27718">
        <ele>517</ele>
        <time>2009-07-08T09:14:56Z</time>
      </trkpt>
      <trkpt lat="44.29843" lon="3.27702">
        <ele>515</ele>
        <time>2009-07-08T09:15:02Z</time>
      </trkpt>
      <trkpt lat="44.29844" lon="3.27693">
        <ele>516</ele>
        <time>2009-07-08T09:15:06Z</time>
      </trkpt>
      <trkpt lat="44.29842" lon="3.27688">
        <ele>517</ele>
        <time>2009-07-08T09:15:11Z</time>
      </trkpt>
      <trkpt lat="44.29845" lon="3.27676">
        <ele>517</ele>
        <time>2009-07-08T09:15:17Z</time>
      </trkpt>
      <trkpt lat="44.29859" lon="3.27644">
        <ele>514</ele>
        <time>2009-07-08T09:15:28Z</time>
      </trkpt>
      <trkpt lat="44.2986" lon="3.27637">
        <ele>513</ele>
        <time>2009-07-08T09:15:30Z</time>
      </trkpt>
      <trkpt lat="44.29865" lon="3.2762">
        <ele>513</ele>
        <time>2009-07-08T09:15:35Z</time>
      </trkpt>
      <trkpt lat="44.29868" lon="3.27612">
        <ele>512</ele>
        <time>2009-07-08T09:15:37Z</time>
      </trkpt>
      <trkpt lat="44.29868" lon="3.27588">
        <ele>511</ele>
        <time>2009-07-08T09:15:43Z</time>
      </trkpt>
      <trkpt lat="44.29867" lon="3.27574">
        <ele>510</ele>
        <time>2009-07-08T09:15:48Z</time>
      </trkpt>
      <trkpt lat="44.29857" lon="3.27547">
        <ele>510</ele>
        <time>2009-07-08T09:15:59Z</time>
      </trkpt>
      <trkpt lat="44.29858" lon="3.27538">
        <ele>508</ele>
        <time>2009-07-08T09:16:08Z</time>
      </trkpt>
      <trkpt lat="44.29855" lon="3.27534">
        <ele>508</ele>
        <time>2009-07-08T09:16:32Z</time>
      </trkpt>
      <trkpt lat="44.29873" lon="3.27536">
        <ele>508</ele>
        <time>2009-07-08T09:17:25Z</time>
      </trkpt>
      <trkpt lat="44.29899" lon="3.27537">
        <ele>508</ele>
        <time>2009-07-08T09:17:44Z</time>
      </trkpt>
      <trkpt lat="44.29889" lon="3.27539">
        <ele>508</ele>
        <time>2009-07-08T09:19:08Z</time>
      </trkpt>
      <trkpt lat="44.29887" lon="3.27538">
        <ele>508</ele>
        <time>2009-07-08T09:19:12Z</time>
      </trkpt>
      <trkpt lat="44.29871" lon="3.27528">
        <ele>506</ele>
        <time>2009-07-08T09:19:25Z</time>
      </trkpt>
      <trkpt lat="44.29869" lon="3.27524">
        <ele>503</ele>
        <time>2009-07-08T09:19:33Z</time>
      </trkpt>
      <trkpt lat="44.29869" lon="3.27521">
        <ele>501</ele>
        <time>2009-07-08T09:19:53Z</time>
      </trkpt>
      <trkpt lat="44.29869" lon="3.27519">
        <ele>500</ele>
        <time>2009-07-08T09:20:12Z</time>
      </trkpt>
      <trkpt lat="44.29879" lon="3.27506">
        <ele>496</ele>
        <time>2009-07-08T09:20:17Z</time>
      </trkpt>
      <trkpt lat="44.29882" lon="3.27499">
        <ele>495</ele>
        <time>2009-07-08T09:20:19Z</time>
      </trkpt>
      <trkpt lat="44.2989" lon="3.27487">
        <ele>490</ele>
        <time>2009-07-08T09:20:23Z</time>
      </trkpt>
      <trkpt lat="44.2989" lon="3.27476">
        <ele>488</ele>
        <time>2009-07-08T09:20:28Z</time>
      </trkpt>
      <trkpt lat="44.29892" lon="3.2747">
        <ele>486</ele>
        <time>2009-07-08T09:20:32Z</time>
      </trkpt>
      <trkpt lat="44.29891" lon="3.27463">
        <ele>483</ele>
        <time>2009-07-08T09:20:43Z</time>
      </trkpt>
      <trkpt lat="44.29893" lon="3.27459">
        <ele>482</ele>
        <time>2009-07-08T09:20:49Z</time>
      </trkpt>
      <trkpt lat="44.29893" lon="3.27457">
        <ele>481</ele>
        <time>2009-07-08T09:21:01Z</time>
      </trkpt>
      <trkpt lat="44.29904" lon="3.27454">
        <ele>480</ele>
        <time>2009-07-08T09:21:19Z</time>
      </trkpt>
      <trkpt lat="44.29898" lon="3.27445">
        <ele>477</ele>
        <time>2009-07-08T09:21:37Z</time>
      </trkpt>
      <trkpt lat="44.29898" lon="3.27439">
        <ele>474</ele>
        <time>2009-07-08T09:21:46Z</time>
      </trkpt>
      <trkpt lat="44.29901" lon="3.27439">
        <ele>471</ele>
        <time>2009-07-08T09:22:03Z</time>
      </trkpt>
      <trkpt lat="44.299" lon="3.27426">
        <ele>469</ele>
        <time>2009-07-08T09:22:34Z</time>
      </trkpt>
      <trkpt lat="44.29902" lon="3.27422">
        <ele>468</ele>
        <time>2009-07-08T09:22:42Z</time>
      </trkpt>
      <trkpt lat="44.2991" lon="3.27428">
        <ele>466</ele>
        <time>2009-07-08T09:22:47Z</time>
      </trkpt>
      <trkpt lat="44.29917" lon="3.27442">
        <ele>464</ele>
        <time>2009-07-08T09:22:54Z</time>
      </trkpt>
      <trkpt lat="44.29922" lon="3.27442">
        <ele>463</ele>
        <time>2009-07-08T09:22:56Z</time>
      </trkpt>
      <trkpt lat="44.29936" lon="3.27445">
        <ele>460</ele>
        <time>2009-07-08T09:23:00Z</time>
      </trkpt>
      <trkpt lat="44.29945" lon="3.27443">
        <ele>456</ele>
        <time>2009-07-08T09:23:03Z</time>
      </trkpt>
      <trkpt lat="44.29949" lon="3.27434">
        <ele>456</ele>
        <time>2009-07-08T09:23:12Z</time>
      </trkpt>
      <trkpt lat="44.2995" lon="3.27417">
        <ele>459</ele>
        <time>2009-07-08T09:23:28Z</time>
      </trkpt>
      <trkpt lat="44.29958" lon="3.27414">
        <ele>462</ele>
        <time>2009-07-08T09:23:39Z</time>
      </trkpt>
      <trkpt lat="44.29964" lon="3.27404">
        <ele>466</ele>
        <time>2009-07-08T09:23:54Z</time>
      </trkpt>
      <trkpt lat="44.29965" lon="3.27398">
        <ele>467</ele>
        <time>2009-07-08T09:24:00Z</time>
      </trkpt>
      <trkpt lat="44.29976" lon="3.27382">
        <ele>467</ele>
        <time>2009-07-08T09:24:12Z</time>
      </trkpt>
      <trkpt lat="44.29985" lon="3.2737">
        <ele>470</ele>
        <time>2009-07-08T09:24:20Z</time>
      </trkpt>
      <trkpt lat="44.29974" lon="3.27364">
        <ele>473</ele>
        <time>2009-07-08T09:24:33Z</time>
      </trkpt>
      <trkpt lat="44.2996" lon="3.27355">
        <ele>476</ele>
        <time>2009-07-08T09:24:45Z</time>
      </trkpt>
      <trkpt lat="44.29956" lon="3.27338">
        <ele>477</ele>
        <time>2009-07-08T09:24:56Z</time>
      </trkpt>
      <trkpt lat="44.29952" lon="3.2733">
        <ele>479</ele>
        <time>2009-07-08T09:25:05Z</time>
      </trkpt>
      <trkpt lat="44.29953" lon="3.27328">
        <ele>480</ele>
        <time>2009-07-08T09:25:07Z</time>
      </trkpt>
      <trkpt lat="44.2996" lon="3.27319">
        <ele>480</ele>
        <time>2009-07-08T09:25:12Z</time>
      </trkpt>
      <trkpt lat="44.29959" lon="3.27301">
        <ele>483</ele>
        <time>2009-07-08T09:25:26Z</time>
      </trkpt>
      <trkpt lat="44.29954" lon="3.27291">
        <ele>486</ele>
        <time>2009-07-08T09:25:49Z</time>
      </trkpt>
      <trkpt lat="44.29955" lon="3.27286">
        <ele>487</ele>
        <time>2009-07-08T09:25:56Z</time>
      </trkpt>
      <trkpt lat="44.29958" lon="3.27283">
        <ele>487</ele>
        <time>2009-07-08T09:25:59Z</time>
      </trkpt>
      <trkpt lat="44.2996" lon="3.27279">
        <ele>487</ele>
        <time>2009-07-08T09:26:02Z</time>
      </trkpt>
      <trkpt lat="44.2998" lon="3.27249">
        <ele>488</ele>
        <time>2009-07-08T09:26:15Z</time>
      </trkpt>
      <trkpt lat="44.29982" lon="3.27229">
        <ele>492</ele>
        <time>2009-07-08T09:26:23Z</time>
      </trkpt>
      <trkpt lat="44.29982" lon="3.27226">
        <ele>492</ele>
        <time>2009-07-08T09:26:24Z</time>
      </trkpt>
      <trkpt lat="44.29983" lon="3.2722">
        <ele>492</ele>
        <time>2009-07-08T09:26:28Z</time>
      </trkpt>
      <trkpt lat="44.30006" lon="3.27202">
        <ele>489</ele>
        <time>2009-07-08T09:26:38Z</time>
      </trkpt>
      <trkpt lat="44.30021" lon="3.27193">
        <ele>485</ele>
        <time>2009-07-08T09:26:44Z</time>
      </trkpt>
      <trkpt lat="44.30023" lon="3.27193">
        <ele>485</ele>
        <time>2009-07-08T09:26:45Z</time>
      </trkpt>
      <trkpt lat="44.30028" lon="3.27188">
        <ele>483</ele>
        <time>2009-07-08T09:26:49Z</time>
      </trkpt>
      <trkpt lat="44.30029" lon="3.2718">
        <ele>480</ele>
        <time>2009-07-08T09:27:03Z</time>
      </trkpt>
      <trkpt lat="44.30031" lon="3.27175">
        <ele>478</ele>
        <time>2009-07-08T09:27:13Z</time>
      </trkpt>
      <trkpt lat="44.30035" lon="3.27177">
        <ele>478</ele>
        <time>2009-07-08T09:27:15Z</time>
      </trkpt>
      <trkpt lat="44.30049" lon="3.27177">
        <ele>479</ele>
        <time>2009-07-08T09:27:25Z</time>
      </trkpt>
      <trkpt lat="44.3006" lon="3.27176">
        <ele>481</ele>
        <time>2009-07-08T09:27:35Z</time>
      </trkpt>
      <trkpt lat="44.30072" lon="3.27168">
        <ele>484</ele>
        <time>2009-07-08T09:27:44Z</time>
      </trkpt>
      <trkpt lat="44.30079" lon="3.27162">
        <ele>484</ele>
        <time>2009-07-08T09:27:56Z</time>
      </trkpt>
      <trkpt lat="44.30083" lon="3.27159">
        <ele>483</ele>
        <time>2009-07-08T09:28:01Z</time>
      </trkpt>
      <trkpt lat="44.3009" lon="3.27153">
        <ele>481</ele>
        <time>2009-07-08T09:28:06Z</time>
      </trkpt>
      <trkpt lat="44.30101" lon="3.27134">
        <ele>480</ele>
        <time>2009-07-08T09:28:13Z</time>
      </trkpt>
      <trkpt lat="44.30105" lon="3.27121">
        <ele>477</ele>
        <time>2009-07-08T09:28:16Z</time>
      </trkpt>
      <trkpt lat="44.30118" lon="3.27095">
        <ele>474</ele>
        <time>2009-07-08T09:28:23Z</time>
      </trkpt>
      <trkpt lat="44.30118" lon="3.27089">
        <ele>474</ele>
        <time>2009-07-08T09:28:25Z</time>
      </trkpt>
      <trkpt lat="44.30123" lon="3.27078">
        <ele>474</ele>
        <time>2009-07-08T09:28:29Z</time>
      </trkpt>
      <trkpt lat="44.3013" lon="3.27035">
        <ele>475</ele>
        <time>2009-07-08T09:28:41Z</time>
      </trkpt>
      <trkpt lat="44.30129" lon="3.27009">
        <ele>478</ele>
        <time>2009-07-08T09:28:51Z</time>
      </trkpt>
      <trkpt lat="44.30134" lon="3.26987">
        <ele>482</ele>
        <time>2009-07-08T09:29:08Z</time>
      </trkpt>
      <trkpt lat="44.30136" lon="3.2698">
        <ele>483</ele>
        <time>2009-07-08T09:29:12Z</time>
      </trkpt>
      <trkpt lat="44.30143" lon="3.26973">
        <ele>484</ele>
        <time>2009-07-08T09:29:18Z</time>
      </trkpt>
      <trkpt lat="44.30148" lon="3.26968">
        <ele>485</ele>
        <time>2009-07-08T09:29:22Z</time>
      </trkpt>
      <trkpt lat="44.3016" lon="3.26932">
        <ele>488</ele>
        <time>2009-07-08T09:29:38Z</time>
      </trkpt>
      <trkpt lat="44.30174" lon="3.26906">
        <ele>489</ele>
        <time>2009-07-08T09:29:48Z</time>
      </trkpt>
      <trkpt lat="44.30197" lon="3.26871">
        <ele>489</ele>
        <time>2009-07-08T09:29:59Z</time>
      </trkpt>
      <trkpt lat="44.30209" lon="3.26851">
        <ele>491</ele>
        <time>2009-07-08T09:30:08Z</time>
      </trkpt>
      <trkpt lat="44.3021" lon="3.26849">
        <ele>491</ele>
        <time>2009-07-08T09:30:09Z</time>
      </trkpt>
      <trkpt lat="44.30215" lon="3.26841">
        <ele>494</ele>
        <time>2009-07-08T09:30:14Z</time>
      </trkpt>
      <trkpt lat="44.30229" lon="3.26819">
        <ele>497</ele>
        <time>2009-07-08T09:30:29Z</time>
      </trkpt>
      <trkpt lat="44.30247" lon="3.26796">
        <ele>499</ele>
        <time>2009-07-08T09:30:43Z</time>
      </trkpt>
      <trkpt lat="44.30262" lon="3.2677">
        <ele>501</ele>
        <time>2009-07-08T09:30:55Z</time>
      </trkpt>
      <trkpt lat="44.30276" lon="3.26743">
        <ele>502</ele>
        <time>2009-07-08T09:31:07Z</time>
      </trkpt>
      <trkpt lat="44.30278" lon="3.26736">
        <ele>503</ele>
        <time>2009-07-08T09:31:10Z</time>
      </trkpt>
      <trkpt lat="44.30286" lon="3.26729">
        <ele>503</ele>
        <time>2009-07-08T09:31:20Z</time>
      </trkpt>
      <trkpt lat="44.30291" lon="3.26718">
        <ele>503</ele>
        <time>2009-07-08T09:31:26Z</time>
      </trkpt>
      <trkpt lat="44.30311" lon="3.26699">
        <ele>503</ele>
        <time>2009-07-08T09:31:36Z</time>
      </trkpt>
      <trkpt lat="44.30314" lon="3.26695">
        <ele>504</ele>
        <time>2009-07-08T09:31:38Z</time>
      </trkpt>
      <trkpt lat="44.30324" lon="3.26682">
        <ele>504</ele>
        <time>2009-07-08T09:31:44Z</time>
      </trkpt>
      <trkpt lat="44.30332" lon="3.26672">
        <ele>504</ele>
        <time>2009-07-08T09:31:48Z</time>
      </trkpt>
      <trkpt lat="44.30332" lon="3.26659">
        <ele>504</ele>
        <time>2009-07-08T09:31:52Z</time>
      </trkpt>
      <trkpt lat="44.30321" lon="3.2662">
        <ele>504</ele>
        <time>2009-07-08T09:32:04Z</time>
      </trkpt>
      <trkpt lat="44.30321" lon="3.26618">
        <ele>505</ele>
        <time>2009-07-08T09:32:05Z</time>
      </trkpt>
      <trkpt lat="44.3032" lon="3.26612">
        <ele>506</ele>
        <time>2009-07-08T09:32:09Z</time>
      </trkpt>
      <trkpt lat="44.30321" lon="3.26611">
        <ele>506</ele>
        <time>2009-07-08T09:32:23Z</time>
      </trkpt>
      <trkpt lat="44.30321" lon="3.26618">
        <ele>506</ele>
        <time>2009-07-08T09:33:57Z</time>
      </trkpt>
      <trkpt lat="44.30342" lon="3.26613">
        <ele>505</ele>
        <time>2009-07-08T09:34:06Z</time>
      </trkpt>
      <trkpt lat="44.30363" lon="3.26607">
        <ele>508</ele>
        <time>2009-07-08T09:34:21Z</time>
      </trkpt>
      <trkpt lat="44.30365" lon="3.26604">
        <ele>510</ele>
        <time>2009-07-08T09:34:25Z</time>
      </trkpt>
      <trkpt lat="44.30366" lon="3.26602">
        <ele>510</ele>
        <time>2009-07-08T09:34:27Z</time>
      </trkpt>
      <trkpt lat="44.30378" lon="3.26586">
        <ele>510</ele>
        <time>2009-07-08T09:34:38Z</time>
      </trkpt>
      <trkpt lat="44.30385" lon="3.26556">
        <ele>513</ele>
        <time>2009-07-08T09:34:50Z</time>
      </trkpt>
      <trkpt lat="44.30382" lon="3.2655">
        <ele>513</ele>
        <time>2009-07-08T09:34:52Z</time>
      </trkpt>
      <trkpt lat="44.30383" lon="3.2653">
        <ele>515</ele>
        <time>2009-07-08T09:34:59Z</time>
      </trkpt>
      <trkpt lat="44.30397" lon="3.26501">
        <ele>515</ele>
        <time>2009-07-08T09:35:09Z</time>
      </trkpt>
      <trkpt lat="44.30399" lon="3.26499">
        <ele>515</ele>
        <time>2009-07-08T09:35:10Z</time>
      </trkpt>
      <trkpt lat="44.30404" lon="3.26489">
        <ele>515</ele>
        <time>2009-07-08T09:35:14Z</time>
      </trkpt>
      <trkpt lat="44.30406" lon="3.26446">
        <ele>517</ele>
        <time>2009-07-08T09:35:26Z</time>
      </trkpt>
      <trkpt lat="44.30404" lon="3.26413">
        <ele>519</ele>
        <time>2009-07-08T09:35:36Z</time>
      </trkpt>
      <trkpt lat="44.3041" lon="3.26379">
        <ele>522</ele>
        <time>2009-07-08T09:35:46Z</time>
      </trkpt>
      <trkpt lat="44.30411" lon="3.26376">
        <ele>522</ele>
        <time>2009-07-08T09:35:47Z</time>
      </trkpt>
      <trkpt lat="44.30415" lon="3.26356">
        <ele>521</ele>
        <time>2009-07-08T09:35:52Z</time>
      </trkpt>
      <trkpt lat="44.3042" lon="3.26341">
        <ele>519</ele>
        <time>2009-07-08T09:35:55Z</time>
      </trkpt>
      <trkpt lat="44.30423" lon="3.26323">
        <ele>520</ele>
        <time>2009-07-08T09:36:00Z</time>
      </trkpt>
      <trkpt lat="44.30431" lon="3.263">
        <ele>523</ele>
        <time>2009-07-08T09:36:08Z</time>
      </trkpt>
      <trkpt lat="44.30432" lon="3.26295">
        <ele>525</ele>
        <time>2009-07-08T09:36:10Z</time>
      </trkpt>
      <trkpt lat="44.30432" lon="3.26286">
        <ele>527</ele>
        <time>2009-07-08T09:36:13Z</time>
      </trkpt>
      <trkpt lat="44.30432" lon="3.26283">
        <ele>526</ele>
        <time>2009-07-08T09:36:14Z</time>
      </trkpt>
      <trkpt lat="44.30436" lon="3.26269">
        <ele>525</ele>
        <time>2009-07-08T09:36:18Z</time>
      </trkpt>
      <trkpt lat="44.30431" lon="3.26233">
        <ele>523</ele>
        <time>2009-07-08T09:36:28Z</time>
      </trkpt>
      <trkpt lat="44.30409" lon="3.2621">
        <ele>521</ele>
        <time>2009-07-08T09:36:37Z</time>
      </trkpt>
      <trkpt lat="44.304" lon="3.26204">
        <ele>522</ele>
        <time>2009-07-08T09:36:41Z</time>
      </trkpt>
      <trkpt lat="44.30395" lon="3.26194">
        <ele>522</ele>
        <time>2009-07-08T09:36:45Z</time>
      </trkpt>
      <trkpt lat="44.304" lon="3.26179">
        <ele>522</ele>
        <time>2009-07-08T09:36:49Z</time>
      </trkpt>
      <trkpt lat="44.30427" lon="3.26157">
        <ele>524</ele>
        <time>2009-07-08T09:37:01Z</time>
      </trkpt>
      <trkpt lat="44.30441" lon="3.26132">
        <ele>524</ele>
        <time>2009-07-08T09:37:10Z</time>
      </trkpt>
      <trkpt lat="44.30427" lon="3.26087">
        <ele>525</ele>
        <time>2009-07-08T09:37:23Z</time>
      </trkpt>
      <trkpt lat="44.30414" lon="3.26057">
        <ele>527</ele>
        <time>2009-07-08T09:37:31Z</time>
      </trkpt>
      <trkpt lat="44.30403" lon="3.26037">
        <ele>526</ele>
        <time>2009-07-08T09:37:39Z</time>
      </trkpt>
      <trkpt lat="44.30387" lon="3.26006">
        <ele>526</ele>
        <time>2009-07-08T09:37:48Z</time>
      </trkpt>
      <trkpt lat="44.30386" lon="3.26001">
        <ele>525</ele>
        <time>2009-07-08T09:37:49Z</time>
      </trkpt>
      <trkpt lat="44.30383" lon="3.25989">
        <ele>525</ele>
        <time>2009-07-08T09:37:51Z</time>
      </trkpt>
      <trkpt lat="44.30381" lon="3.25975">
        <ele>525</ele>
        <time>2009-07-08T09:37:54Z</time>
      </trkpt>
      <trkpt lat="44.30383" lon="3.25957">
        <ele>525</ele>
        <time>2009-07-08T09:37:59Z</time>
      </trkpt>
      <trkpt lat="44.30391" lon="3.25945">
        <ele>525</ele>
        <time>2009-07-08T09:38:11Z</time>
      </trkpt>
      <trkpt lat="44.30393" lon="3.2593">
        <ele>526</ele>
        <time>2009-07-08T09:38:25Z</time>
      </trkpt>
      <trkpt lat="44.30385" lon="3.25926">
        <ele>525</ele>
        <time>2009-07-08T09:38:57Z</time>
      </trkpt>
      <trkpt lat="44.30379" lon="3.25914">
        <ele>524</ele>
        <time>2009-07-08T09:39:04Z</time>
      </trkpt>
      <trkpt lat="44.30374" lon="3.25895">
        <ele>524</ele>
        <time>2009-07-08T09:39:08Z</time>
      </trkpt>
      <trkpt lat="44.3037" lon="3.2589">
        <ele>525</ele>
        <time>2009-07-08T09:39:10Z</time>
      </trkpt>
      <trkpt lat="44.30369" lon="3.25879">
        <ele>527</ele>
        <time>2009-07-08T09:39:14Z</time>
      </trkpt>
      <trkpt lat="44.30372" lon="3.25871">
        <ele>527</ele>
        <time>2009-07-08T09:39:17Z</time>
      </trkpt>
      <trkpt lat="44.30371" lon="3.25852">
        <ele>527</ele>
        <time>2009-07-08T09:39:28Z</time>
      </trkpt>
      <trkpt lat="44.30369" lon="3.25846">
        <ele>528</ele>
        <time>2009-07-08T09:39:34Z</time>
      </trkpt>
      <trkpt lat="44.30369" lon="3.25826">
        <ele>529</ele>
        <time>2009-07-08T09:39:43Z</time>
      </trkpt>
      <trkpt lat="44.30371" lon="3.25803">
        <ele>528</ele>
        <time>2009-07-08T09:39:51Z</time>
      </trkpt>
      <trkpt lat="44.30367" lon="3.25798">
        <ele>528</ele>
        <time>2009-07-08T09:39:55Z</time>
      </trkpt>
      <trkpt lat="44.30364" lon="3.25792">
        <ele>528</ele>
        <time>2009-07-08T09:39:59Z</time>
      </trkpt>
      <trkpt lat="44.30341" lon="3.25774">
        <ele>528</ele>
        <time>2009-07-08T09:40:10Z</time>
      </trkpt>
      <trkpt lat="44.30333" lon="3.25744">
        <ele>529</ele>
        <time>2009-07-08T09:40:19Z</time>
      </trkpt>
      <trkpt lat="44.30334" lon="3.2574">
        <ele>530</ele>
        <time>2009-07-08T09:40:20Z</time>
      </trkpt>
      <trkpt lat="44.30334" lon="3.25735">
        <ele>531</ele>
        <time>2009-07-08T09:40:22Z</time>
      </trkpt>
      <trkpt lat="44.30339" lon="3.25722">
        <ele>532</ele>
        <time>2009-07-08T09:40:31Z</time>
      </trkpt>
      <trkpt lat="44.30336" lon="3.25715">
        <ele>533</ele>
        <time>2009-07-08T09:40:39Z</time>
      </trkpt>
      <trkpt lat="44.30333" lon="3.25707">
        <ele>534</ele>
        <time>2009-07-08T09:40:54Z</time>
      </trkpt>
      <trkpt lat="44.30327" lon="3.257">
        <ele>537</ele>
        <time>2009-07-08T09:41:05Z</time>
      </trkpt>
      <trkpt lat="44.30321" lon="3.25693">
        <ele>538</ele>
        <time>2009-07-08T09:41:17Z</time>
      </trkpt>
      <trkpt lat="44.30315" lon="3.25689">
        <ele>539</ele>
        <time>2009-07-08T09:41:27Z</time>
      </trkpt>
      <trkpt lat="44.30314" lon="3.25688">
        <ele>539</ele>
        <time>2009-07-08T09:41:35Z</time>
      </trkpt>
      <trkpt lat="44.30308" lon="3.25678">
        <ele>541</ele>
        <time>2009-07-08T09:41:40Z</time>
      </trkpt>
      <trkpt lat="44.30306" lon="3.25673">
        <ele>543</ele>
        <time>2009-07-08T09:41:43Z</time>
      </trkpt>
      <trkpt lat="44.30301" lon="3.2567">
        <ele>544</ele>
        <time>2009-07-08T09:41:50Z</time>
      </trkpt>
      <trkpt lat="44.30297" lon="3.25663">
        <ele>545</ele>
        <time>2009-07-08T09:42:01Z</time>
      </trkpt>
      <trkpt lat="44.30297" lon="3.25657">
        <ele>546</ele>
        <time>2009-07-08T09:42:11Z</time>
      </trkpt>
      <trkpt lat="44.30306" lon="3.25643">
        <ele>548</ele>
        <time>2009-07-08T09:42:36Z</time>
      </trkpt>
      <trkpt lat="44.30301" lon="3.25636">
        <ele>549</ele>
        <time>2009-07-08T09:42:44Z</time>
      </trkpt>
      <trkpt lat="44.30299" lon="3.25628">
        <ele>550</ele>
        <time>2009-07-08T09:42:48Z</time>
      </trkpt>
      <trkpt lat="44.3029" lon="3.25609">
        <ele>554</ele>
        <time>2009-07-08T09:42:57Z</time>
      </trkpt>
      <trkpt lat="44.30289" lon="3.25593">
        <ele>557</ele>
        <time>2009-07-08T09:43:04Z</time>
      </trkpt>
      <trkpt lat="44.30288" lon="3.25589">
        <ele>557</ele>
        <time>2009-07-08T09:43:07Z</time>
      </trkpt>
      <trkpt lat="44.3029" lon="3.25579">
        <ele>558</ele>
        <time>2009-07-08T09:43:12Z</time>
      </trkpt>
      <trkpt lat="44.30289" lon="3.25575">
        <ele>559</ele>
        <time>2009-07-08T09:43:15Z</time>
      </trkpt>
      <trkpt lat="44.30288" lon="3.25571">
        <ele>560</ele>
        <time>2009-07-08T09:43:17Z</time>
      </trkpt>
      <trkpt lat="44.30283" lon="3.25559">
        <ele>561</ele>
        <time>2009-07-08T09:43:23Z</time>
      </trkpt>
      <trkpt lat="44.30284" lon="3.2554">
        <ele>562</ele>
        <time>2009-07-08T09:43:30Z</time>
      </trkpt>
      <trkpt lat="44.30269" lon="3.25515">
        <ele>564</ele>
        <time>2009-07-08T09:43:41Z</time>
      </trkpt>
      <trkpt lat="44.30261" lon="3.25499">
        <ele>565</ele>
        <time>2009-07-08T09:43:47Z</time>
      </trkpt>
      <trkpt lat="44.30239" lon="3.25486">
        <ele>565</ele>
        <time>2009-07-08T09:43:53Z</time>
      </trkpt>
      <trkpt lat="44.30213" lon="3.25458">
        <ele>566</ele>
        <time>2009-07-08T09:44:05Z</time>
      </trkpt>
      <trkpt lat="44.30211" lon="3.25445">
        <ele>566</ele>
        <time>2009-07-08T09:44:09Z</time>
      </trkpt>
      <trkpt lat="44.30219" lon="3.25411">
        <ele>567</ele>
        <time>2009-07-08T09:44:18Z</time>
      </trkpt>
      <trkpt lat="44.30265" lon="3.25365">
        <ele>569</ele>
        <time>2009-07-08T09:44:29Z</time>
      </trkpt>
      <trkpt lat="44.30269" lon="3.25357">
        <ele>571</ele>
        <time>2009-07-08T09:44:35Z</time>
      </trkpt>
      <trkpt lat="44.30279" lon="3.25346">
        <ele>573</ele>
        <time>2009-07-08T09:44:46Z</time>
      </trkpt>
      <trkpt lat="44.30299" lon="3.25338">
        <ele>571</ele>
        <time>2009-07-08T09:44:55Z</time>
      </trkpt>
      <trkpt lat="44.30313" lon="3.25332">
        <ele>573</ele>
        <time>2009-07-08T09:45:01Z</time>
      </trkpt>
      <trkpt lat="44.30322" lon="3.25332">
        <ele>573</ele>
        <time>2009-07-08T09:45:05Z</time>
      </trkpt>
      <trkpt lat="44.30337" lon="3.25335">
        <ele>570</ele>
        <time>2009-07-08T09:45:11Z</time>
      </trkpt>
      <trkpt lat="44.30356" lon="3.25334">
        <ele>570</ele>
        <time>2009-07-08T09:45:17Z</time>
      </trkpt>
      <trkpt lat="44.30362" lon="3.25335">
        <ele>570</ele>
        <time>2009-07-08T09:45:19Z</time>
      </trkpt>
      <trkpt lat="44.30365" lon="3.25334">
        <ele>571</ele>
        <time>2009-07-08T09:45:22Z</time>
      </trkpt>
      <trkpt lat="44.30367" lon="3.25336">
        <ele>570</ele>
        <time>2009-07-08T09:45:24Z</time>
      </trkpt>
      <trkpt lat="44.30397" lon="3.25339">
        <ele>570</ele>
        <time>2009-07-08T09:45:37Z</time>
      </trkpt>
      <trkpt lat="44.30407" lon="3.25332">
        <ele>570</ele>
        <time>2009-07-08T09:45:40Z</time>
      </trkpt>
      <trkpt lat="44.30424" lon="3.25306">
        <ele>566</ele>
        <time>2009-07-08T09:45:45Z</time>
      </trkpt>
      <trkpt lat="44.3045" lon="3.25262">
        <ele>563</ele>
        <time>2009-07-08T09:45:54Z</time>
      </trkpt>
      <trkpt lat="44.30456" lon="3.25252">
        <ele>561</ele>
        <time>2009-07-08T09:45:57Z</time>
      </trkpt>
      <trkpt lat="44.30464" lon="3.25242">
        <ele>560</ele>
        <time>2009-07-08T09:46:00Z</time>
      </trkpt>
      <trkpt lat="44.30494" lon="3.25208">
        <ele>559</ele>
        <time>2009-07-08T09:46:11Z</time>
      </trkpt>
      <trkpt lat="44.30499" lon="3.252">
        <ele>557</ele>
        <time>2009-07-08T09:46:13Z</time>
      </trkpt>
      <trkpt lat="44.30515" lon="3.25171">
        <ele>554</ele>
        <time>2009-07-08T09:46:21Z</time>
      </trkpt>
      <trkpt lat="44.30526" lon="3.25159">
        <ele>552</ele>
        <time>2009-07-08T09:46:25Z</time>
      </trkpt>
      <trkpt lat="44.30538" lon="3.25135">
        <ele>549</ele>
        <time>2009-07-08T09:46:30Z</time>
      </trkpt>
      <trkpt lat="44.30544" lon="3.25127">
        <ele>548</ele>
        <time>2009-07-08T09:46:32Z</time>
      </trkpt>
      <trkpt lat="44.30546" lon="3.25122">
        <ele>548</ele>
        <time>2009-07-08T09:46:33Z</time>
      </trkpt>
      <trkpt lat="44.30559" lon="3.25105">
        <ele>547</ele>
        <time>2009-07-08T09:46:36Z</time>
      </trkpt>
      <trkpt lat="44.30569" lon="3.25077">
        <ele>548</ele>
        <time>2009-07-08T09:46:42Z</time>
      </trkpt>
      <trkpt lat="44.30567" lon="3.25065">
        <ele>550</ele>
        <time>2009-07-08T09:46:56Z</time>
      </trkpt>
      <trkpt lat="44.30563" lon="3.25037">
        <ele>549</ele>
        <time>2009-07-08T09:47:06Z</time>
      </trkpt>
      <trkpt lat="44.30562" lon="3.25025">
        <ele>550</ele>
        <time>2009-07-08T09:47:16Z</time>
      </trkpt>
      <trkpt lat="44.30568" lon="3.25018">
        <ele>547</ele>
        <time>2009-07-08T09:47:47Z</time>
      </trkpt>
      <trkpt lat="44.30568" lon="3.25017">
        <ele>551</ele>
        <time>2009-07-08T09:47:50Z</time>
      </trkpt>
      <trkpt lat="44.30571" lon="3.25016">
        <ele>547</ele>
        <time>2009-07-08T09:47:54Z</time>
      </trkpt>
      <trkpt lat="44.30571" lon="3.25016">
        <ele>553</ele>
        <time>2009-07-08T09:47:55Z</time>
      </trkpt>
      <trkpt lat="44.30571" lon="3.25016">
        <ele>550</ele>
        <time>2009-07-08T09:47:56Z</time>
      </trkpt>
      <trkpt lat="44.30571" lon="3.25015">
        <ele>554</ele>
        <time>2009-07-08T09:48:01Z</time>
      </trkpt>
      <trkpt lat="44.30571" lon="3.25015">
        <ele>548</ele>
        <time>2009-07-08T09:48:02Z</time>
      </trkpt>
      <trkpt lat="44.30571" lon="3.25015">
        <ele>552</ele>
        <time>2009-07-08T09:48:03Z</time>
      </trkpt>
      <trkpt lat="44.30556" lon="3.25019">
        <ele>550</ele>
        <time>2009-07-08T09:48:40Z</time>
      </trkpt>
      <trkpt lat="44.3056" lon="3.25016">
        <ele>552</ele>
        <time>2009-07-08T09:48:56Z</time>
      </trkpt>
      <trkpt lat="44.30558" lon="3.25012">
        <ele>552</ele>
        <time>2009-07-08T09:49:16Z</time>
      </trkpt>
      <trkpt lat="44.30559" lon="3.25011">
        <ele>552</ele>
        <time>2009-07-08T09:49:18Z</time>
      </trkpt>
      <trkpt lat="44.30557" lon="3.25006">
        <ele>553</ele>
        <time>2009-07-08T09:49:21Z</time>
      </trkpt>
      <trkpt lat="44.30549" lon="3.2499">
        <ele>555</ele>
        <time>2009-07-08T09:49:34Z</time>
      </trkpt>
      <trkpt lat="44.30549" lon="3.24986">
        <ele>555</ele>
        <time>2009-07-08T09:49:36Z</time>
      </trkpt>
      <trkpt lat="44.30556" lon="3.24969">
        <ele>558</ele>
        <time>2009-07-08T09:49:47Z</time>
      </trkpt>
      <trkpt lat="44.30555" lon="3.24966">
        <ele>559</ele>
        <time>2009-07-08T09:49:50Z</time>
      </trkpt>
      <trkpt lat="44.30559" lon="3.24951">
        <ele>560</ele>
        <time>2009-07-08T09:50:06Z</time>
      </trkpt>
      <trkpt lat="44.30554" lon="3.2494">
        <ele>562</ele>
        <time>2009-07-08T09:50:13Z</time>
      </trkpt>
      <trkpt lat="44.30551" lon="3.24936">
        <ele>562</ele>
        <time>2009-07-08T09:50:15Z</time>
      </trkpt>
      <trkpt lat="44.30544" lon="3.24902">
        <ele>563</ele>
        <time>2009-07-08T09:50:28Z</time>
      </trkpt>
      <trkpt lat="44.30541" lon="3.24872">
        <ele>563</ele>
        <time>2009-07-08T09:50:37Z</time>
      </trkpt>
      <trkpt lat="44.30544" lon="3.24863">
        <ele>564</ele>
        <time>2009-07-08T09:50:40Z</time>
      </trkpt>
      <trkpt lat="44.30566" lon="3.24829">
        <ele>565</ele>
        <time>2009-07-08T09:50:53Z</time>
      </trkpt>
      <trkpt lat="44.30576" lon="3.24816">
        <ele>568</ele>
        <time>2009-07-08T09:50:58Z</time>
      </trkpt>
      <trkpt lat="44.30582" lon="3.24789">
        <ele>569</ele>
        <time>2009-07-08T09:51:08Z</time>
      </trkpt>
      <trkpt lat="44.30581" lon="3.24785">
        <ele>569</ele>
        <time>2009-07-08T09:51:10Z</time>
      </trkpt>
      <trkpt lat="44.30584" lon="3.24774">
        <ele>568</ele>
        <time>2009-07-08T09:51:13Z</time>
      </trkpt>
      <trkpt lat="44.30585" lon="3.24756">
        <ele>569</ele>
        <time>2009-07-08T09:51:17Z</time>
      </trkpt>
      <trkpt lat="44.30568" lon="3.24749">
        <ele>568</ele>
        <time>2009-07-08T09:51:23Z</time>
      </trkpt>
      <trkpt lat="44.30538" lon="3.24745">
        <ele>569</ele>
        <time>2009-07-08T09:51:34Z</time>
      </trkpt>
      <trkpt lat="44.3053" lon="3.24746">
        <ele>571</ele>
        <time>2009-07-08T09:51:38Z</time>
      </trkpt>
      <trkpt lat="44.30518" lon="3.24748">
        <ele>572</ele>
        <time>2009-07-08T09:51:44Z</time>
      </trkpt>
      <trkpt lat="44.30514" lon="3.2475">
        <ele>574</ele>
        <time>2009-07-08T09:51:46Z</time>
      </trkpt>
      <trkpt lat="44.30505" lon="3.2475">
        <ele>574</ele>
        <time>2009-07-08T09:51:50Z</time>
      </trkpt>
      <trkpt lat="44.30488" lon="3.24746">
        <ele>577</ele>
        <time>2009-07-08T09:52:00Z</time>
      </trkpt>
      <trkpt lat="44.30485" lon="3.24747">
        <ele>577</ele>
        <time>2009-07-08T09:52:04Z</time>
      </trkpt>
      <trkpt lat="44.30477" lon="3.24748">
        <ele>578</ele>
        <time>2009-07-08T09:52:14Z</time>
      </trkpt>
      <trkpt lat="44.30471" lon="3.24749">
        <ele>578</ele>
        <time>2009-07-08T09:52:21Z</time>
      </trkpt>
      <trkpt lat="44.30453" lon="3.24746">
        <ele>580</ele>
        <time>2009-07-08T09:52:28Z</time>
      </trkpt>
      <trkpt lat="44.30445" lon="3.24744">
        <ele>582</ele>
        <time>2009-07-08T09:52:31Z</time>
      </trkpt>
      <trkpt lat="44.30425" lon="3.24743">
        <ele>583</ele>
        <time>2009-07-08T09:52:41Z</time>
      </trkpt>
      <trkpt lat="44.30413" lon="3.24744">
        <ele>585</ele>
        <time>2009-07-08T09:52:47Z</time>
      </trkpt>
      <trkpt lat="44.304" lon="3.24739">
        <ele>587</ele>
        <time>2009-07-08T09:52:57Z</time>
      </trkpt>
      <trkpt lat="44.30385" lon="3.24731">
        <ele>588</ele>
        <time>2009-07-08T09:53:06Z</time>
      </trkpt>
      <trkpt lat="44.30378" lon="3.24724">
        <ele>588</ele>
        <time>2009-07-08T09:53:10Z</time>
      </trkpt>
      <trkpt lat="44.30374" lon="3.24705">
        <ele>588</ele>
        <time>2009-07-08T09:53:17Z</time>
      </trkpt>
      <trkpt lat="44.30397" lon="3.24665">
        <ele>591</ele>
        <time>2009-07-08T09:53:26Z</time>
      </trkpt>
      <trkpt lat="44.30396" lon="3.24656">
        <ele>590</ele>
        <time>2009-07-08T09:53:30Z</time>
      </trkpt>
      <trkpt lat="44.30392" lon="3.24654">
        <ele>590</ele>
        <time>2009-07-08T09:53:32Z</time>
      </trkpt>
      <trkpt lat="44.30367" lon="3.24648">
        <ele>588</ele>
        <time>2009-07-08T09:53:42Z</time>
      </trkpt>
      <trkpt lat="44.30346" lon="3.24642">
        <ele>588</ele>
        <time>2009-07-08T09:53:49Z</time>
      </trkpt>
      <trkpt lat="44.30339" lon="3.24639">
        <ele>588</ele>
        <time>2009-07-08T09:53:53Z</time>
      </trkpt>
      <trkpt lat="44.30349" lon="3.2462">
        <ele>584</ele>
        <time>2009-07-08T09:53:59Z</time>
      </trkpt>
      <trkpt lat="44.30351" lon="3.24615">
        <ele>582</ele>
        <time>2009-07-08T09:54:00Z</time>
      </trkpt>
      <trkpt lat="44.30355" lon="3.24593">
        <ele>585</ele>
        <time>2009-07-08T09:54:05Z</time>
      </trkpt>
      <trkpt lat="44.30354" lon="3.24589">
        <ele>585</ele>
        <time>2009-07-08T09:54:07Z</time>
      </trkpt>
      <trkpt lat="44.30335" lon="3.2457">
        <ele>587</ele>
        <time>2009-07-08T09:54:17Z</time>
      </trkpt>
      <trkpt lat="44.3032" lon="3.24558">
        <ele>589</ele>
        <time>2009-07-08T09:54:24Z</time>
      </trkpt>
      <trkpt lat="44.30319" lon="3.24554">
        <ele>589</ele>
        <time>2009-07-08T09:54:26Z</time>
      </trkpt>
      <trkpt lat="44.30313" lon="3.24542">
        <ele>590</ele>
        <time>2009-07-08T09:54:32Z</time>
      </trkpt>
      <trkpt lat="44.30312" lon="3.2454">
        <ele>591</ele>
        <time>2009-07-08T09:54:33Z</time>
      </trkpt>
      <trkpt lat="44.30295" lon="3.24527">
        <ele>594</ele>
        <time>2009-07-08T09:54:45Z</time>
      </trkpt>
      <trkpt lat="44.3028" lon="3.24515">
        <ele>597</ele>
        <time>2009-07-08T09:54:56Z</time>
      </trkpt>
      <trkpt lat="44.30281" lon="3.245">
        <ele>595</ele>
        <time>2009-07-08T09:55:00Z</time>
      </trkpt>
      <trkpt lat="44.30281" lon="3.24489">
        <ele>596</ele>
        <time>2009-07-08T09:55:09Z</time>
      </trkpt>
      <trkpt lat="44.30276" lon="3.24488">
        <ele>598</ele>
        <time>2009-07-08T09:55:15Z</time>
      </trkpt>
      <trkpt lat="44.30275" lon="3.24485">
        <ele>598</ele>
        <time>2009-07-08T09:55:20Z</time>
      </trkpt>
      <trkpt lat="44.30269" lon="3.24476">
        <ele>596</ele>
        <time>2009-07-08T09:55:25Z</time>
      </trkpt>
      <trkpt lat="44.30257" lon="3.24462">
        <ele>596</ele>
        <time>2009-07-08T09:55:32Z</time>
      </trkpt>
      <trkpt lat="44.30266" lon="3.24437">
        <ele>596</ele>
        <time>2009-07-08T09:55:41Z</time>
      </trkpt>
      <trkpt lat="44.30268" lon="3.24435">
        <ele>596</ele>
        <time>2009-07-08T09:55:42Z</time>
      </trkpt>
      <trkpt lat="44.30272" lon="3.24413">
        <ele>597</ele>
        <time>2009-07-08T09:55:50Z</time>
      </trkpt>
      <trkpt lat="44.30265" lon="3.24358">
        <ele>600</ele>
        <time>2009-07-08T09:56:06Z</time>
      </trkpt>
      <trkpt lat="44.30265" lon="3.24355">
        <ele>601</ele>
        <time>2009-07-08T09:56:07Z</time>
      </trkpt>
      <trkpt lat="44.30262" lon="3.24351">
        <ele>601</ele>
        <time>2009-07-08T09:56:09Z</time>
      </trkpt>
      <trkpt lat="44.30248" lon="3.24344">
        <ele>601</ele>
        <time>2009-07-08T09:56:18Z</time>
      </trkpt>
      <trkpt lat="44.3023" lon="3.24326">
        <ele>603</ele>
        <time>2009-07-08T09:56:28Z</time>
      </trkpt>
      <trkpt lat="44.3023" lon="3.24325">
        <ele>602</ele>
        <time>2009-07-08T09:56:29Z</time>
      </trkpt>
      <trkpt lat="44.30266" lon="3.24293">
        <ele>602</ele>
        <time>2009-07-08T09:57:45Z</time>
      </trkpt>
      <trkpt lat="44.30239" lon="3.24307">
        <ele>604</ele>
        <time>2009-07-08T09:58:34Z</time>
      </trkpt>
      <trkpt lat="44.30238" lon="3.24311">
        <ele>605</ele>
        <time>2009-07-08T09:58:51Z</time>
      </trkpt>
      <trkpt lat="44.30215" lon="3.24321">
        <ele>607</ele>
        <time>2009-07-08T10:00:43Z</time>
      </trkpt>
      <trkpt lat="44.3017" lon="3.24338">
        <ele>606</ele>
        <time>2009-07-08T10:01:03Z</time>
      </trkpt>
      <trkpt lat="44.30185" lon="3.24329">
        <ele>607</ele>
        <time>2009-07-08T10:01:16Z</time>
      </trkpt>
      <trkpt lat="44.30188" lon="3.24319">
        <ele>607</ele>
        <time>2009-07-08T10:01:20Z</time>
      </trkpt>
      <trkpt lat="44.30197" lon="3.24305">
        <ele>606</ele>
        <time>2009-07-08T10:01:23Z</time>
      </trkpt>
      <trkpt lat="44.30206" lon="3.24291">
        <ele>604</ele>
        <time>2009-07-08T10:01:25Z</time>
      </trkpt>
      <trkpt lat="44.30213" lon="3.24264">
        <ele>606</ele>
        <time>2009-07-08T10:01:30Z</time>
      </trkpt>
      <trkpt lat="44.3022" lon="3.24258">
        <ele>606</ele>
        <time>2009-07-08T10:01:41Z</time>
      </trkpt>
      <trkpt lat="44.30234" lon="3.24253">
        <ele>606</ele>
        <time>2009-07-08T10:03:00Z</time>
      </trkpt>
      <trkpt lat="44.30242" lon="3.24236">
        <ele>606</ele>
        <time>2009-07-08T10:03:09Z</time>
      </trkpt>
      <trkpt lat="44.30244" lon="3.24213">
        <ele>606</ele>
        <time>2009-07-08T10:03:16Z</time>
      </trkpt>
      <trkpt lat="44.30232" lon="3.24199">
        <ele>607</ele>
        <time>2009-07-08T10:03:22Z</time>
      </trkpt>
      <trkpt lat="44.30206" lon="3.24184">
        <ele>608</ele>
        <time>2009-07-08T10:03:33Z</time>
      </trkpt>
      <trkpt lat="44.30183" lon="3.24192">
        <ele>606</ele>
        <time>2009-07-08T10:03:42Z</time>
      </trkpt>
      <trkpt lat="44.3017" lon="3.24193">
        <ele>606</ele>
        <time>2009-07-08T10:03:45Z</time>
      </trkpt>
      <trkpt lat="44.30157" lon="3.2418">
        <ele>606</ele>
        <time>2009-07-08T10:03:52Z</time>
      </trkpt>
      <trkpt lat="44.30148" lon="3.24174">
        <ele>606</ele>
        <time>2009-07-08T10:03:56Z</time>
      </trkpt>
      <trkpt lat="44.30137" lon="3.24176">
        <ele>605</ele>
        <time>2009-07-08T10:04:00Z</time>
      </trkpt>
      <trkpt lat="44.30108" lon="3.24194">
        <ele>605</ele>
        <time>2009-07-08T10:04:10Z</time>
      </trkpt>
      <trkpt lat="44.30098" lon="3.242">
        <ele>604</ele>
        <time>2009-07-08T10:04:13Z</time>
      </trkpt>
      <trkpt lat="44.30082" lon="3.24206">
        <ele>603</ele>
        <time>2009-07-08T10:04:17Z</time>
      </trkpt>
      <trkpt lat="44.30054" lon="3.24216">
        <ele>602</ele>
        <time>2009-07-08T10:04:24Z</time>
      </trkpt>
      <trkpt lat="44.30019" lon="3.24244">
        <ele>602</ele>
        <time>2009-07-08T10:04:36Z</time>
      </trkpt>
      <trkpt lat="44.30016" lon="3.24248">
        <ele>601</ele>
        <time>2009-07-08T10:04:40Z</time>
      </trkpt>
      <trkpt lat="44.30012" lon="3.24244">
        <ele>601</ele>
        <time>2009-07-08T10:04:51Z</time>
      </trkpt>
      <trkpt lat="44.30016" lon="3.24247">
        <ele>602</ele>
        <time>2009-07-08T10:05:28Z</time>
      </trkpt>
      <trkpt lat="44.30017" lon="3.24249">
        <ele>603</ele>
        <time>2009-07-08T10:05:45Z</time>
      </trkpt>
      <trkpt lat="44.30017" lon="3.24249">
        <ele>603</ele>
        <time>2009-07-08T10:06:01Z</time>
      </trkpt>
      <trkpt lat="44.30007" lon="3.24276">
        <ele>600</ele>
        <time>2009-07-08T10:06:11Z</time>
      </trkpt>
      <trkpt lat="44.30002" lon="3.24282">
        <ele>600</ele>
        <time>2009-07-08T10:06:21Z</time>
      </trkpt>
      <trkpt lat="44.29989" lon="3.24301">
        <ele>597</ele>
        <time>2009-07-08T10:06:34Z</time>
      </trkpt>
      <trkpt lat="44.29976" lon="3.24326">
        <ele>596</ele>
        <time>2009-07-08T10:06:42Z</time>
      </trkpt>
      <trkpt lat="44.29964" lon="3.24326">
        <ele>596</ele>
        <time>2009-07-08T10:06:47Z</time>
      </trkpt>
      <trkpt lat="44.29939" lon="3.24301">
        <ele>598</ele>
        <time>2009-07-08T10:06:59Z</time>
      </trkpt>
      <trkpt lat="44.29906" lon="3.24292">
        <ele>597</ele>
        <time>2009-07-08T10:07:10Z</time>
      </trkpt>
      <trkpt lat="44.29904" lon="3.24296">
        <ele>597</ele>
        <time>2009-07-08T10:07:11Z</time>
      </trkpt>
      <trkpt lat="44.29892" lon="3.24323">
        <ele>595</ele>
        <time>2009-07-08T10:07:17Z</time>
      </trkpt>
      <trkpt lat="44.29891" lon="3.24346">
        <ele>595</ele>
        <time>2009-07-08T10:07:21Z</time>
      </trkpt>
      <trkpt lat="44.29878" lon="3.24403">
        <ele>591</ele>
        <time>2009-07-08T10:07:30Z</time>
      </trkpt>
      <trkpt lat="44.29864" lon="3.24406">
        <ele>589</ele>
        <time>2009-07-08T10:07:36Z</time>
      </trkpt>
      <trkpt lat="44.29856" lon="3.244">
        <ele>591</ele>
        <time>2009-07-08T10:07:40Z</time>
      </trkpt>
      <trkpt lat="44.29831" lon="3.24373">
        <ele>591</ele>
        <time>2009-07-08T10:07:52Z</time>
      </trkpt>
      <trkpt lat="44.29804" lon="3.24359">
        <ele>589</ele>
        <time>2009-07-08T10:08:04Z</time>
      </trkpt>
      <trkpt lat="44.29795" lon="3.24352">
        <ele>591</ele>
        <time>2009-07-08T10:08:07Z</time>
      </trkpt>
      <trkpt lat="44.29757" lon="3.2435">
        <ele>589</ele>
        <time>2009-07-08T10:08:17Z</time>
      </trkpt>
      <trkpt lat="44.29753" lon="3.24354">
        <ele>589</ele>
        <time>2009-07-08T10:08:18Z</time>
      </trkpt>
      <trkpt lat="44.29744" lon="3.2436">
        <ele>589</ele>
        <time>2009-07-08T10:08:20Z</time>
      </trkpt>
      <trkpt lat="44.2972" lon="3.24389">
        <ele>586</ele>
        <time>2009-07-08T10:08:27Z</time>
      </trkpt>
      <trkpt lat="44.29712" lon="3.24389">
        <ele>585</ele>
        <time>2009-07-08T10:08:32Z</time>
      </trkpt>
      <trkpt lat="44.297" lon="3.24365">
        <ele>585</ele>
        <time>2009-07-08T10:08:38Z</time>
      </trkpt>
      <trkpt lat="44.29664" lon="3.24344">
        <ele>586</ele>
        <time>2009-07-08T10:08:50Z</time>
      </trkpt>
      <trkpt lat="44.2963" lon="3.24337">
        <ele>585</ele>
        <time>2009-07-08T10:09:00Z</time>
      </trkpt>
      <trkpt lat="44.29613" lon="3.24301">
        <ele>586</ele>
        <time>2009-07-08T10:09:10Z</time>
      </trkpt>
      <trkpt lat="44.29586" lon="3.24279">
        <ele>585</ele>
        <time>2009-07-08T10:09:19Z</time>
      </trkpt>
      <trkpt lat="44.2958" lon="3.24271">
        <ele>585</ele>
        <time>2009-07-08T10:09:21Z</time>
      </trkpt>
      <trkpt lat="44.29561" lon="3.24255">
        <ele>585</ele>
        <time>2009-07-08T10:09:27Z</time>
      </trkpt>
      <trkpt lat="44.29544" lon="3.24227">
        <ele>585</ele>
        <time>2009-07-08T10:09:35Z</time>
      </trkpt>
      <trkpt lat="44.29533" lon="3.24219">
        <ele>584</ele>
        <time>2009-07-08T10:09:39Z</time>
      </trkpt>
      <trkpt lat="44.29538" lon="3.2419">
        <ele>583</ele>
        <time>2009-07-08T10:09:48Z</time>
      </trkpt>
      <trkpt lat="44.29542" lon="3.24176">
        <ele>584</ele>
        <time>2009-07-08T10:09:51Z</time>
      </trkpt>
      <trkpt lat="44.29525" lon="3.24166">
        <ele>584</ele>
        <time>2009-07-08T10:09:58Z</time>
      </trkpt>
      <trkpt lat="44.29498" lon="3.24191">
        <ele>582</ele>
        <time>2009-07-08T10:10:08Z</time>
      </trkpt>
      <trkpt lat="44.29492" lon="3.24203">
        <ele>580</ele>
        <time>2009-07-08T10:10:11Z</time>
      </trkpt>
      <trkpt lat="44.29492" lon="3.24213">
        <ele>581</ele>
        <time>2009-07-08T10:10:13Z</time>
      </trkpt>
      <trkpt lat="44.29487" lon="3.24228">
        <ele>582</ele>
        <time>2009-07-08T10:10:17Z</time>
      </trkpt>
      <trkpt lat="44.2947" lon="3.24239">
        <ele>581</ele>
        <time>2009-07-08T10:10:23Z</time>
      </trkpt>
      <trkpt lat="44.29464" lon="3.24249">
        <ele>582</ele>
        <time>2009-07-08T10:10:26Z</time>
      </trkpt>
      <trkpt lat="44.29456" lon="3.24269">
        <ele>584</ele>
        <time>2009-07-08T10:10:36Z</time>
      </trkpt>
      <trkpt lat="44.29431" lon="3.24296">
        <ele>584</ele>
        <time>2009-07-08T10:10:48Z</time>
      </trkpt>
      <trkpt lat="44.29407" lon="3.24318">
        <ele>584</ele>
        <time>2009-07-08T10:10:59Z</time>
      </trkpt>
      <trkpt lat="44.294" lon="3.24319">
        <ele>585</ele>
        <time>2009-07-08T10:11:02Z</time>
      </trkpt>
      <trkpt lat="44.29397" lon="3.24316">
        <ele>586</ele>
        <time>2009-07-08T10:11:20Z</time>
      </trkpt>
      <trkpt lat="44.29392" lon="3.24316">
        <ele>587</ele>
        <time>2009-07-08T10:11:33Z</time>
      </trkpt>
      <trkpt lat="44.2939" lon="3.24316">
        <ele>586</ele>
        <time>2009-07-08T10:11:53Z</time>
      </trkpt>
      <trkpt lat="44.29383" lon="3.24328">
        <ele>583</ele>
        <time>2009-07-08T10:11:59Z</time>
      </trkpt>
      <trkpt lat="44.29375" lon="3.24331">
        <ele>585</ele>
        <time>2009-07-08T10:12:03Z</time>
      </trkpt>
      <trkpt lat="44.29372" lon="3.24331">
        <ele>586</ele>
        <time>2009-07-08T10:12:05Z</time>
      </trkpt>
      <trkpt lat="44.29368" lon="3.24332">
        <ele>585</ele>
        <time>2009-07-08T10:12:13Z</time>
      </trkpt>
      <trkpt lat="44.29353" lon="3.24331">
        <ele>585</ele>
        <time>2009-07-08T10:12:20Z</time>
      </trkpt>
      <trkpt lat="44.29341" lon="3.24335">
        <ele>585</ele>
        <time>2009-07-08T10:12:31Z</time>
      </trkpt>
      <trkpt lat="44.2934" lon="3.24335">
        <ele>585</ele>
        <time>2009-07-08T10:12:32Z</time>
      </trkpt>
      <trkpt lat="44.29332" lon="3.24317">
        <ele>583</ele>
        <time>2009-07-08T10:12:38Z</time>
      </trkpt>
      <trkpt lat="44.29322" lon="3.24304">
        <ele>582</ele>
        <time>2009-07-08T10:12:48Z</time>
      </trkpt>
      <trkpt lat="44.29311" lon="3.24307">
        <ele>582</ele>
        <time>2009-07-08T10:13:02Z</time>
      </trkpt>
      <trkpt lat="44.29287" lon="3.24305">
        <ele>582</ele>
        <time>2009-07-08T10:13:12Z</time>
      </trkpt>
      <trkpt lat="44.29283" lon="3.24299">
        <ele>582</ele>
        <time>2009-07-08T10:13:15Z</time>
      </trkpt>
      <trkpt lat="44.29287" lon="3.24271">
        <ele>580</ele>
        <time>2009-07-08T10:13:22Z</time>
      </trkpt>
      <trkpt lat="44.29312" lon="3.24217">
        <ele>577</ele>
        <time>2009-07-08T10:13:31Z</time>
      </trkpt>
      <trkpt lat="44.29312" lon="3.24205">
        <ele>576</ele>
        <time>2009-07-08T10:13:33Z</time>
      </trkpt>
      <trkpt lat="44.29293" lon="3.24184">
        <ele>577</ele>
        <time>2009-07-08T10:13:40Z</time>
      </trkpt>
      <trkpt lat="44.2928" lon="3.24166">
        <ele>579</ele>
        <time>2009-07-08T10:13:46Z</time>
      </trkpt>
      <trkpt lat="44.29276" lon="3.24152">
        <ele>578</ele>
        <time>2009-07-08T10:13:49Z</time>
      </trkpt>
      <trkpt lat="44.29273" lon="3.24141">
        <ele>578</ele>
        <time>2009-07-08T10:13:51Z</time>
      </trkpt>
      <trkpt lat="44.29269" lon="3.24105">
        <ele>576</ele>
        <time>2009-07-08T10:13:56Z</time>
      </trkpt>
      <trkpt lat="44.29265" lon="3.24089">
        <ele>578</ele>
        <time>2009-07-08T10:13:59Z</time>
      </trkpt>
      <trkpt lat="44.29262" lon="3.24076">
        <ele>581</ele>
        <time>2009-07-08T10:14:11Z</time>
      </trkpt>
      <trkpt lat="44.29261" lon="3.24075">
        <ele>581</ele>
        <time>2009-07-08T10:14:12Z</time>
      </trkpt>
      <trkpt lat="44.29248" lon="3.24072">
        <ele>579</ele>
        <time>2009-07-08T10:14:27Z</time>
      </trkpt>
      <trkpt lat="44.29239" lon="3.24071">
        <ele>578</ele>
        <time>2009-07-08T10:14:39Z</time>
      </trkpt>
      <trkpt lat="44.29236" lon="3.2407">
        <ele>577</ele>
        <time>2009-07-08T10:14:41Z</time>
      </trkpt>
      <trkpt lat="44.29218" lon="3.24068">
        <ele>574</ele>
        <time>2009-07-08T10:14:49Z</time>
      </trkpt>
      <trkpt lat="44.29193" lon="3.24067">
        <ele>571</ele>
        <time>2009-07-08T10:14:59Z</time>
      </trkpt>
      <trkpt lat="44.29182" lon="3.24072">
        <ele>568</ele>
        <time>2009-07-08T10:15:04Z</time>
      </trkpt>
      <trkpt lat="44.29164" lon="3.24078">
        <ele>565</ele>
        <time>2009-07-08T10:15:12Z</time>
      </trkpt>
      <trkpt lat="44.29152" lon="3.24083">
        <ele>562</ele>
        <time>2009-07-08T10:15:18Z</time>
      </trkpt>
      <trkpt lat="44.29129" lon="3.24094">
        <ele>559</ele>
        <time>2009-07-08T10:15:26Z</time>
      </trkpt>
      <trkpt lat="44.29101" lon="3.24077">
        <ele>557</ele>
        <time>2009-07-08T10:15:35Z</time>
      </trkpt>
      <trkpt lat="44.29081" lon="3.24053">
        <ele>559</ele>
        <time>2009-07-08T10:15:45Z</time>
      </trkpt>
      <trkpt lat="44.2908" lon="3.24042">
        <ele>562</ele>
        <time>2009-07-08T10:15:56Z</time>
      </trkpt>
      <trkpt lat="44.29078" lon="3.24031">
        <ele>564</ele>
        <time>2009-07-08T10:16:10Z</time>
      </trkpt>
      <trkpt lat="44.29066" lon="3.24024">
        <ele>567</ele>
        <time>2009-07-08T10:16:25Z</time>
      </trkpt>
      <trkpt lat="44.29051" lon="3.24022">
        <ele>569</ele>
        <time>2009-07-08T10:16:40Z</time>
      </trkpt>
      <trkpt lat="44.29042" lon="3.24013">
        <ele>572</ele>
        <time>2009-07-08T10:16:52Z</time>
      </trkpt>
      <trkpt lat="44.29035" lon="3.23999">
        <ele>573</ele>
        <time>2009-07-08T10:17:04Z</time>
      </trkpt>
      <trkpt lat="44.29031" lon="3.23995">
        <ele>574</ele>
        <time>2009-07-08T10:17:09Z</time>
      </trkpt>
      <trkpt lat="44.29025" lon="3.23992">
        <ele>577</ele>
        <time>2009-07-08T10:17:19Z</time>
      </trkpt>
      <trkpt lat="44.29024" lon="3.23991">
        <ele>574</ele>
        <time>2009-07-08T10:17:31Z</time>
      </trkpt>
      <trkpt lat="44.2902" lon="3.23991">
        <ele>576</ele>
        <time>2009-07-08T10:18:11Z</time>
      </trkpt>
      <trkpt lat="44.2902" lon="3.23991">
        <ele>576</ele>
        <time>2009-07-08T10:18:48Z</time>
      </trkpt>
      <trkpt lat="44.2902" lon="3.2399">
        <ele>576</ele>
        <time>2009-07-08T10:19:26Z</time>
      </trkpt>
      <trkpt lat="44.29019" lon="3.2399">
        <ele>575</ele>
        <time>2009-07-08T10:20:19Z</time>
      </trkpt>
      <trkpt lat="44.29002" lon="3.23989">
        <ele>576</ele>
        <time>2009-07-08T10:20:38Z</time>
      </trkpt>
      <trkpt lat="44.28986" lon="3.23989">
        <ele>574</ele>
        <time>2009-07-08T10:20:44Z</time>
      </trkpt>
      <trkpt lat="44.28977" lon="3.23991">
        <ele>574</ele>
        <time>2009-07-08T10:20:46Z</time>
      </trkpt>
      <trkpt lat="44.28955" lon="3.2398">
        <ele>575</ele>
        <time>2009-07-08T10:20:54Z</time>
      </trkpt>
      <trkpt lat="44.28947" lon="3.23969">
        <ele>574</ele>
        <time>2009-07-08T10:21:03Z</time>
      </trkpt>
      <trkpt lat="44.28942" lon="3.23967">
        <ele>574</ele>
        <time>2009-07-08T10:21:15Z</time>
      </trkpt>
      <trkpt lat="44.2894" lon="3.2397">
        <ele>574</ele>
        <time>2009-07-08T10:21:40Z</time>
      </trkpt>
      <trkpt lat="44.28938" lon="3.23972">
        <ele>575</ele>
        <time>2009-07-08T10:22:34Z</time>
      </trkpt>
      <trkpt lat="44.28937" lon="3.23974">
        <ele>576</ele>
        <time>2009-07-08T10:23:16Z</time>
      </trkpt>
      <trkpt lat="44.28929" lon="3.2398">
        <ele>575</ele>
        <time>2009-07-08T10:23:23Z</time>
      </trkpt>
      <trkpt lat="44.28918" lon="3.23993">
        <ele>574</ele>
        <time>2009-07-08T10:23:36Z</time>
      </trkpt>
      <trkpt lat="44.28911" lon="3.24017">
        <ele>573</ele>
        <time>2009-07-08T10:23:47Z</time>
      </trkpt>
      <trkpt lat="44.28905" lon="3.24042">
        <ele>571</ele>
        <time>2009-07-08T10:23:56Z</time>
      </trkpt>
      <trkpt lat="44.28898" lon="3.24042">
        <ele>570</ele>
        <time>2009-07-08T10:23:59Z</time>
      </trkpt>
      <trkpt lat="44.28891" lon="3.24043">
        <ele>569</ele>
        <time>2009-07-08T10:24:02Z</time>
      </trkpt>
      <trkpt lat="44.28878" lon="3.24058">
        <ele>565</ele>
        <time>2009-07-08T10:24:12Z</time>
      </trkpt>
      <trkpt lat="44.28877" lon="3.24064">
        <ele>564</ele>
        <time>2009-07-08T10:24:14Z</time>
      </trkpt>
      <trkpt lat="44.28877" lon="3.24074">
        <ele>563</ele>
        <time>2009-07-08T10:24:22Z</time>
      </trkpt>
      <trkpt lat="44.28861" lon="3.24099">
        <ele>561</ele>
        <time>2009-07-08T10:24:32Z</time>
      </trkpt>
      <trkpt lat="44.28857" lon="3.24104">
        <ele>560</ele>
        <time>2009-07-08T10:24:34Z</time>
      </trkpt>
      <trkpt lat="44.28838" lon="3.24119">
        <ele>558</ele>
        <time>2009-07-08T10:24:43Z</time>
      </trkpt>
      <trkpt lat="44.28829" lon="3.24126">
        <ele>555</ele>
        <time>2009-07-08T10:24:48Z</time>
      </trkpt>
      <trkpt lat="44.28815" lon="3.24136">
        <ele>552</ele>
        <time>2009-07-08T10:24:54Z</time>
      </trkpt>
      <trkpt lat="44.28795" lon="3.24144">
        <ele>553</ele>
        <time>2009-07-08T10:25:02Z</time>
      </trkpt>
      <trkpt lat="44.28793" lon="3.24143">
        <ele>553</ele>
        <time>2009-07-08T10:25:08Z</time>
      </trkpt>
      <trkpt lat="44.28788" lon="3.24137">
        <ele>554</ele>
        <time>2009-07-08T10:25:13Z</time>
      </trkpt>
      <trkpt lat="44.28789" lon="3.24127">
        <ele>553</ele>
        <time>2009-07-08T10:25:17Z</time>
      </trkpt>
      <trkpt lat="44.28796" lon="3.24112">
        <ele>549</ele>
        <time>2009-07-08T10:25:21Z</time>
      </trkpt>
      <trkpt lat="44.28802" lon="3.24093">
        <ele>546</ele>
        <time>2009-07-08T10:25:26Z</time>
      </trkpt>
      <trkpt lat="44.28804" lon="3.24089">
        <ele>545</ele>
        <time>2009-07-08T10:25:27Z</time>
      </trkpt>
      <trkpt lat="44.28808" lon="3.24055">
        <ele>542</ele>
        <time>2009-07-08T10:25:36Z</time>
      </trkpt>
      <trkpt lat="44.28813" lon="3.24043">
        <ele>539</ele>
        <time>2009-07-08T10:25:41Z</time>
      </trkpt>
      <trkpt lat="44.28813" lon="3.24043">
        <ele>539</ele>
        <time>2009-07-08T10:25:43Z</time>
      </trkpt>
      <trkpt lat="44.28815" lon="3.24016">
        <ele>537</ele>
        <time>2009-07-08T10:25:50Z</time>
      </trkpt>
      <trkpt lat="44.28817" lon="3.23963">
        <ele>538</ele>
        <time>2009-07-08T10:26:01Z</time>
      </trkpt>
      <trkpt lat="44.28819" lon="3.23949">
        <ele>539</ele>
        <time>2009-07-08T10:26:11Z</time>
      </trkpt>
      <trkpt lat="44.2882" lon="3.23942">
        <ele>540</ele>
        <time>2009-07-08T10:26:17Z</time>
      </trkpt>
      <trkpt lat="44.28817" lon="3.23926">
        <ele>541</ele>
        <time>2009-07-08T10:26:27Z</time>
      </trkpt>
      <trkpt lat="44.28817" lon="3.23914">
        <ele>543</ele>
        <time>2009-07-08T10:26:38Z</time>
      </trkpt>
      <trkpt lat="44.28812" lon="3.23905">
        <ele>544</ele>
        <time>2009-07-08T10:26:48Z</time>
      </trkpt>
      <trkpt lat="44.28808" lon="3.23902">
        <ele>542</ele>
        <time>2009-07-08T10:26:54Z</time>
      </trkpt>
      <trkpt lat="44.28797" lon="3.23888">
        <ele>541</ele>
        <time>2009-07-08T10:27:05Z</time>
      </trkpt>
      <trkpt lat="44.28794" lon="3.23866">
        <ele>540</ele>
        <time>2009-07-08T10:27:11Z</time>
      </trkpt>
      <trkpt lat="44.288" lon="3.23847">
        <ele>540</ele>
        <time>2009-07-08T10:27:20Z</time>
      </trkpt>
      <trkpt lat="44.28795" lon="3.23844">
        <ele>539</ele>
        <time>2009-07-08T10:27:31Z</time>
      </trkpt>
      <trkpt lat="44.28791" lon="3.23845">
        <ele>537</ele>
        <time>2009-07-08T10:27:35Z</time>
      </trkpt>
      <trkpt lat="44.28783" lon="3.2385">
        <ele>535</ele>
        <time>2009-07-08T10:27:46Z</time>
      </trkpt>
      <trkpt lat="44.28782" lon="3.23851">
        <ele>534</ele>
        <time>2009-07-08T10:27:47Z</time>
      </trkpt>
      <trkpt lat="44.28772" lon="3.23855">
        <ele>532</ele>
        <time>2009-07-08T10:27:58Z</time>
      </trkpt>
      <trkpt lat="44.28764" lon="3.23857">
        <ele>529</ele>
        <time>2009-07-08T10:28:12Z</time>
      </trkpt>
      <trkpt lat="44.28758" lon="3.23862">
        <ele>528</ele>
        <time>2009-07-08T10:28:15Z</time>
      </trkpt>
      <trkpt lat="44.28752" lon="3.23863">
        <ele>526</ele>
        <time>2009-07-08T10:28:18Z</time>
      </trkpt>
      <trkpt lat="44.28741" lon="3.23868">
        <ele>523</ele>
        <time>2009-07-08T10:28:22Z</time>
      </trkpt>
      <trkpt lat="44.2873" lon="3.2387">
        <ele>521</ele>
        <time>2009-07-08T10:28:26Z</time>
      </trkpt>
      <trkpt lat="44.28725" lon="3.23873">
        <ele>520</ele>
        <time>2009-07-08T10:28:28Z</time>
      </trkpt>
      <trkpt lat="44.28695" lon="3.2389">
        <ele>521</ele>
        <time>2009-07-08T10:28:39Z</time>
      </trkpt>
      <trkpt lat="44.28656" lon="3.23904">
        <ele>523</ele>
        <time>2009-07-08T10:28:54Z</time>
      </trkpt>
      <trkpt lat="44.2865" lon="3.23907">
        <ele>522</ele>
        <time>2009-07-08T10:28:57Z</time>
      </trkpt>
      <trkpt lat="44.28638" lon="3.23911">
        <ele>519</ele>
        <time>2009-07-08T10:29:02Z</time>
      </trkpt>
      <trkpt lat="44.28629" lon="3.23915">
        <ele>518</ele>
        <time>2009-07-08T10:29:04Z</time>
      </trkpt>
      <trkpt lat="44.2861" lon="3.23923">
        <ele>519</ele>
        <time>2009-07-08T10:29:11Z</time>
      </trkpt>
      <trkpt lat="44.28607" lon="3.23924">
        <ele>517</ele>
        <time>2009-07-08T10:29:13Z</time>
      </trkpt>
      <trkpt lat="44.28601" lon="3.23924">
        <ele>516</ele>
        <time>2009-07-08T10:29:23Z</time>
      </trkpt>
      <trkpt lat="44.28591" lon="3.23924">
        <ele>514</ele>
        <time>2009-07-08T10:29:32Z</time>
      </trkpt>
      <trkpt lat="44.28574" lon="3.23915">
        <ele>511</ele>
        <time>2009-07-08T10:29:39Z</time>
      </trkpt>
      <trkpt lat="44.28561" lon="3.23895">
        <ele>507</ele>
        <time>2009-07-08T10:29:45Z</time>
      </trkpt>
      <trkpt lat="44.28554" lon="3.23878">
        <ele>504</ele>
        <time>2009-07-08T10:29:49Z</time>
      </trkpt>
      <trkpt lat="44.28551" lon="3.23871">
        <ele>503</ele>
        <time>2009-07-08T10:29:51Z</time>
      </trkpt>
      <trkpt lat="44.2855" lon="3.2386">
        <ele>501</ele>
        <time>2009-07-08T10:29:53Z</time>
      </trkpt>
      <trkpt lat="44.28554" lon="3.23844">
        <ele>503</ele>
        <time>2009-07-08T10:29:57Z</time>
      </trkpt>
      <trkpt lat="44.28559" lon="3.23797">
        <ele>500</ele>
        <time>2009-07-08T10:30:07Z</time>
      </trkpt>
      <trkpt lat="44.2856" lon="3.2377">
        <ele>499</ele>
        <time>2009-07-08T10:30:10Z</time>
      </trkpt>
      <trkpt lat="44.28558" lon="3.2374">
        <ele>497</ele>
        <time>2009-07-08T10:30:13Z</time>
      </trkpt>
      <trkpt lat="44.28552" lon="3.23715">
        <ele>497</ele>
        <time>2009-07-08T10:30:16Z</time>
      </trkpt>
      <trkpt lat="44.28532" lon="3.23681">
        <ele>493</ele>
        <time>2009-07-08T10:30:21Z</time>
      </trkpt>
      <trkpt lat="44.28523" lon="3.23667">
        <ele>490</ele>
        <time>2009-07-08T10:30:23Z</time>
      </trkpt>
      <trkpt lat="44.28508" lon="3.23642">
        <ele>487</ele>
        <time>2009-07-08T10:30:26Z</time>
      </trkpt>
      <trkpt lat="44.28498" lon="3.23626">
        <ele>483</ele>
        <time>2009-07-08T10:30:28Z</time>
      </trkpt>
      <trkpt lat="44.28474" lon="3.23596">
        <ele>480</ele>
        <time>2009-07-08T10:30:32Z</time>
      </trkpt>
      <trkpt lat="44.2846" lon="3.23578">
        <ele>481</ele>
        <time>2009-07-08T10:30:38Z</time>
      </trkpt>
      <trkpt lat="44.28453" lon="3.23564">
        <ele>477</ele>
        <time>2009-07-08T10:30:44Z</time>
      </trkpt>
      <trkpt lat="44.28451" lon="3.23559">
        <ele>476</ele>
        <time>2009-07-08T10:30:45Z</time>
      </trkpt>
      <trkpt lat="44.28444" lon="3.23549">
        <ele>475</ele>
        <time>2009-07-08T10:30:47Z</time>
      </trkpt>
      <trkpt lat="44.28417" lon="3.2354">
        <ele>474</ele>
        <time>2009-07-08T10:30:52Z</time>
      </trkpt>
      <trkpt lat="44.28401" lon="3.23509">
        <ele>475</ele>
        <time>2009-07-08T10:30:59Z</time>
      </trkpt>
      <trkpt lat="44.28399" lon="3.23507">
        <ele>474</ele>
        <time>2009-07-08T10:31:14Z</time>
      </trkpt>
      <trkpt lat="44.28399" lon="3.23506">
        <ele>474</ele>
        <time>2009-07-08T10:31:29Z</time>
      </trkpt>
      <trkpt lat="44.28387" lon="3.23483">
        <ele>473</ele>
        <time>2009-07-08T10:31:36Z</time>
      </trkpt>
      <trkpt lat="44.28384" lon="3.23478">
        <ele>472</ele>
        <time>2009-07-08T10:31:37Z</time>
      </trkpt>
      <trkpt lat="44.28358" lon="3.23447">
        <ele>469</ele>
        <time>2009-07-08T10:31:44Z</time>
      </trkpt>
      <trkpt lat="44.28317" lon="3.23404">
        <ele>468</ele>
        <time>2009-07-08T10:31:54Z</time>
      </trkpt>
      <trkpt lat="44.28274" lon="3.23378">
        <ele>464</ele>
        <time>2009-07-08T10:32:02Z</time>
      </trkpt>
      <trkpt lat="44.28206" lon="3.23322">
        <ele>461</ele>
        <time>2009-07-08T10:32:15Z</time>
      </trkpt>
      <trkpt lat="44.28161" lon="3.23294">
        <ele>458</ele>
        <time>2009-07-08T10:32:22Z</time>
      </trkpt>
      <trkpt lat="44.28149" lon="3.23284">
        <ele>457</ele>
        <time>2009-07-08T10:32:24Z</time>
      </trkpt>
      <trkpt lat="44.28092" lon="3.23226">
        <ele>454</ele>
        <time>2009-07-08T10:32:34Z</time>
      </trkpt>
      <trkpt lat="44.28073" lon="3.23208">
        <ele>452</ele>
        <time>2009-07-08T10:32:37Z</time>
      </trkpt>
      <trkpt lat="44.28046" lon="3.23191">
        <ele>452</ele>
        <time>2009-07-08T10:32:41Z</time>
      </trkpt>
      <trkpt lat="44.28021" lon="3.23186">
        <ele>450</ele>
        <time>2009-07-08T10:32:44Z</time>
      </trkpt>
      <trkpt lat="44.27984" lon="3.23167">
        <ele>448</ele>
        <time>2009-07-08T10:32:49Z</time>
      </trkpt>
      <trkpt lat="44.27942" lon="3.23141">
        <ele>445</ele>
        <time>2009-07-08T10:32:54Z</time>
      </trkpt>
      <trkpt lat="44.27872" lon="3.23101">
        <ele>441</ele>
        <time>2009-07-08T10:33:02Z</time>
      </trkpt>
      <trkpt lat="44.27844" lon="3.23077">
        <ele>441</ele>
        <time>2009-07-08T10:33:06Z</time>
      </trkpt>
      <trkpt lat="44.2782" lon="3.23028">
        <ele>439</ele>
        <time>2009-07-08T10:33:11Z</time>
      </trkpt>
      <trkpt lat="44.27808" lon="3.22987">
        <ele>437</ele>
        <time>2009-07-08T10:33:15Z</time>
      </trkpt>
      <trkpt lat="44.27801" lon="3.22972">
        <ele>436</ele>
        <time>2009-07-08T10:33:17Z</time>
      </trkpt>
      <trkpt lat="44.27785" lon="3.22942">
        <ele>433</ele>
        <time>2009-07-08T10:33:21Z</time>
      </trkpt>
      <trkpt lat="44.27781" lon="3.22934">
        <ele>433</ele>
        <time>2009-07-08T10:33:22Z</time>
      </trkpt>
      <trkpt lat="44.27776" lon="3.22927">
        <ele>433</ele>
        <time>2009-07-08T10:33:23Z</time>
      </trkpt>
      <trkpt lat="44.27728" lon="3.22857">
        <ele>431</ele>
        <time>2009-07-08T10:33:33Z</time>
      </trkpt>
      <trkpt lat="44.27722" lon="3.22849">
        <ele>430</ele>
        <time>2009-07-08T10:33:35Z</time>
      </trkpt>
      <trkpt lat="44.27737" lon="3.22803">
        <ele>430</ele>
        <time>2009-07-08T10:33:47Z</time>
      </trkpt>
      <trkpt lat="44.27763" lon="3.2275">
        <ele>430</ele>
        <time>2009-07-08T10:34:05Z</time>
      </trkpt>
      <trkpt lat="44.27765" lon="3.22736">
        <ele>430</ele>
        <time>2009-07-08T10:34:10Z</time>
      </trkpt>
      <trkpt lat="44.27755" lon="3.22725">
        <ele>430</ele>
        <time>2009-07-08T10:34:16Z</time>
      </trkpt>
      <trkpt lat="44.27727" lon="3.22696">
        <ele>430</ele>
        <time>2009-07-08T10:34:29Z</time>
      </trkpt>
      <trkpt lat="44.27723" lon="3.22699">
        <ele>430</ele>
        <time>2009-07-08T10:34:43Z</time>
      </trkpt>
      <trkpt lat="44.27725" lon="3.22702">
        <ele>430</ele>
        <time>2009-07-08T10:35:36Z</time>
      </trkpt>
      <trkpt lat="44.27728" lon="3.22702">
        <ele>431</ele>
        <time>2009-07-08T10:36:03Z</time>
      </trkpt>
      <trkpt lat="44.27738" lon="3.22712">
        <ele>431</ele>
        <time>2009-07-08T10:36:10Z</time>
      </trkpt>
      <trkpt lat="44.27764" lon="3.22742">
        <ele>430</ele>
        <time>2009-07-08T10:36:22Z</time>
      </trkpt>
      <trkpt lat="44.27763" lon="3.22761">
        <ele>430</ele>
        <time>2009-07-08T10:36:26Z</time>
      </trkpt>
      <trkpt lat="44.27727" lon="3.22838">
        <ele>429</ele>
        <time>2009-07-08T10:36:43Z</time>
      </trkpt>
      <trkpt lat="44.27723" lon="3.22843">
        <ele>430</ele>
        <time>2009-07-08T10:36:45Z</time>
      </trkpt>
      <trkpt lat="44.27709" lon="3.22834">
        <ele>430</ele>
        <time>2009-07-08T10:36:53Z</time>
      </trkpt>
      <trkpt lat="44.27686" lon="3.2281">
        <ele>432</ele>
        <time>2009-07-08T10:37:07Z</time>
      </trkpt>
      <trkpt lat="44.27663" lon="3.22795">
        <ele>433</ele>
        <time>2009-07-08T10:37:21Z</time>
      </trkpt>
      <trkpt lat="44.27645" lon="3.22786">
        <ele>433</ele>
        <time>2009-07-08T10:37:34Z</time>
      </trkpt>
      <trkpt lat="44.27644" lon="3.22791">
        <ele>434</ele>
        <time>2009-07-08T10:37:50Z</time>
      </trkpt>
      <trkpt lat="44.27617" lon="3.22782">
        <ele>435</ele>
        <time>2009-07-08T10:38:03Z</time>
      </trkpt>
      <trkpt lat="44.27571" lon="3.22774">
        <ele>437</ele>
        <time>2009-07-08T10:38:19Z</time>
      </trkpt>
      <trkpt lat="44.27516" lon="3.22782">
        <ele>440</ele>
        <time>2009-07-08T10:38:38Z</time>
      </trkpt>
      <trkpt lat="44.2748" lon="3.22776">
        <ele>443</ele>
        <time>2009-07-08T10:38:52Z</time>
      </trkpt>
      <trkpt lat="44.27448" lon="3.22766">
        <ele>445</ele>
        <time>2009-07-08T10:39:05Z</time>
      </trkpt>
      <trkpt lat="44.27399" lon="3.22781">
        <ele>447</ele>
        <time>2009-07-08T10:39:23Z</time>
      </trkpt>
      <trkpt lat="44.27349" lon="3.22802">
        <ele>451</ele>
        <time>2009-07-08T10:39:42Z</time>
      </trkpt>
      <trkpt lat="44.27298" lon="3.22815">
        <ele>454</ele>
        <time>2009-07-08T10:40:01Z</time>
      </trkpt>
      <trkpt lat="44.27293" lon="3.22819">
        <ele>455</ele>
        <time>2009-07-08T10:40:03Z</time>
      </trkpt>
      <trkpt lat="44.27253" lon="3.22834">
        <ele>458</ele>
        <time>2009-07-08T10:40:18Z</time>
      </trkpt>
      <trkpt lat="44.27225" lon="3.22841">
        <ele>459</ele>
        <time>2009-07-08T10:40:34Z</time>
      </trkpt>
      <trkpt lat="44.27227" lon="3.22838">
        <ele>459</ele>
        <time>2009-07-08T10:41:36Z</time>
      </trkpt>
      <trkpt lat="44.27227" lon="3.2284">
        <ele>458</ele>
        <time>2009-07-08T10:42:31Z</time>
      </trkpt>
      <trkpt lat="44.27212" lon="3.22847">
        <ele>457</ele>
        <time>2009-07-08T10:43:31Z</time>
      </trkpt>
      <trkpt lat="44.27181" lon="3.22845">
        <ele>456</ele>
        <time>2009-07-08T10:43:41Z</time>
      </trkpt>
      <trkpt lat="44.27163" lon="3.22849">
        <ele>455</ele>
        <time>2009-07-08T10:43:45Z</time>
      </trkpt>
      <trkpt lat="44.2711" lon="3.22858">
        <ele>454</ele>
        <time>2009-07-08T10:43:57Z</time>
      </trkpt>
      <trkpt lat="44.27097" lon="3.22855">
        <ele>454</ele>
        <time>2009-07-08T10:44:00Z</time>
      </trkpt>
      <trkpt lat="44.27063" lon="3.2286">
        <ele>452</ele>
        <time>2009-07-08T10:44:08Z</time>
      </trkpt>
      <trkpt lat="44.27052" lon="3.22862">
        <ele>452</ele>
        <time>2009-07-08T10:44:10Z</time>
      </trkpt>
      <trkpt lat="44.27012" lon="3.22856">
        <ele>450</ele>
        <time>2009-07-08T10:44:17Z</time>
      </trkpt>
      <trkpt lat="44.2698" lon="3.22858">
        <ele>448</ele>
        <time>2009-07-08T10:44:22Z</time>
      </trkpt>
      <trkpt lat="44.26962" lon="3.22857">
        <ele>448</ele>
        <time>2009-07-08T10:44:25Z</time>
      </trkpt>
      <trkpt lat="44.26951" lon="3.22852">
        <ele>448</ele>
        <time>2009-07-08T10:44:27Z</time>
      </trkpt>
      <trkpt lat="44.2692" lon="3.2285">
        <ele>447</ele>
        <time>2009-07-08T10:44:32Z</time>
      </trkpt>
      <trkpt lat="44.26862" lon="3.22838">
        <ele>444</ele>
        <time>2009-07-08T10:44:41Z</time>
      </trkpt>
      <trkpt lat="44.26848" lon="3.22836">
        <ele>443</ele>
        <time>2009-07-08T10:44:43Z</time>
      </trkpt>
      <trkpt lat="44.26842" lon="3.22836">
        <ele>443</ele>
        <time>2009-07-08T10:44:44Z</time>
      </trkpt>
      <trkpt lat="44.26783" lon="3.2283">
        <ele>439</ele>
        <time>2009-07-08T10:44:54Z</time>
      </trkpt>
      <trkpt lat="44.26767" lon="3.22826">
        <ele>439</ele>
        <time>2009-07-08T10:44:57Z</time>
      </trkpt>
      <trkpt lat="44.26738" lon="3.22822">
        <ele>438</ele>
        <time>2009-07-08T10:45:03Z</time>
      </trkpt>
      <trkpt lat="44.26724" lon="3.22825">
        <ele>436</ele>
        <time>2009-07-08T10:45:06Z</time>
      </trkpt>
      <trkpt lat="44.267" lon="3.22813">
        <ele>435</ele>
        <time>2009-07-08T10:45:11Z</time>
      </trkpt>
      <trkpt lat="44.26675" lon="3.228">
        <ele>434</ele>
        <time>2009-07-08T10:45:16Z</time>
      </trkpt>
      <trkpt lat="44.26648" lon="3.22785">
        <ele>432</ele>
        <time>2009-07-08T10:45:21Z</time>
      </trkpt>
      <trkpt lat="44.26629" lon="3.22765">
        <ele>431</ele>
        <time>2009-07-08T10:45:25Z</time>
      </trkpt>
      <trkpt lat="44.26608" lon="3.22749">
        <ele>429</ele>
        <time>2009-07-08T10:45:29Z</time>
      </trkpt>
      <trkpt lat="44.2652" lon="3.22733">
        <ele>428</ele>
        <time>2009-07-08T10:45:42Z</time>
      </trkpt>
      <trkpt lat="44.26456" lon="3.22735">
        <ele>428</ele>
        <time>2009-07-08T10:45:55Z</time>
      </trkpt>
      <trkpt lat="44.26447" lon="3.22737">
        <ele>427</ele>
        <time>2009-07-08T10:45:57Z</time>
      </trkpt>
      <trkpt lat="44.26424" lon="3.22743">
        <ele>427</ele>
        <time>2009-07-08T10:46:02Z</time>
      </trkpt>
      <trkpt lat="44.26375" lon="3.22766">
        <ele>426</ele>
        <time>2009-07-08T10:46:13Z</time>
      </trkpt>
      <trkpt lat="44.2631" lon="3.22804">
        <ele>425</ele>
        <time>2009-07-08T10:46:28Z</time>
      </trkpt>
      <trkpt lat="44.26266" lon="3.22833">
        <ele>425</ele>
        <time>2009-07-08T10:46:37Z</time>
      </trkpt>
      <trkpt lat="44.26247" lon="3.22843">
        <ele>424</ele>
        <time>2009-07-08T10:46:41Z</time>
      </trkpt>
      <trkpt lat="44.26213" lon="3.22856">
        <ele>424</ele>
        <time>2009-07-08T10:46:48Z</time>
      </trkpt>
      <trkpt lat="44.26173" lon="3.22866">
        <ele>424</ele>
        <time>2009-07-08T10:46:56Z</time>
      </trkpt>
      <trkpt lat="44.26164" lon="3.2287">
        <ele>425</ele>
        <time>2009-07-08T10:46:58Z</time>
      </trkpt>
      <trkpt lat="44.261" lon="3.22884">
        <ele>425</ele>
        <time>2009-07-08T10:47:13Z</time>
      </trkpt>
      <trkpt lat="44.26074" lon="3.22885">
        <ele>426</ele>
        <time>2009-07-08T10:47:19Z</time>
      </trkpt>
      <trkpt lat="44.2603" lon="3.22905">
        <ele>427</ele>
        <time>2009-07-08T10:47:30Z</time>
      </trkpt>
      <trkpt lat="44.26018" lon="3.22914">
        <ele>427</ele>
        <time>2009-07-08T10:47:33Z</time>
      </trkpt>
      <trkpt lat="44.25981" lon="3.22938">
        <ele>425</ele>
        <time>2009-07-08T10:47:41Z</time>
      </trkpt>
      <trkpt lat="44.25922" lon="3.22971">
        <ele>423</ele>
        <time>2009-07-08T10:47:52Z</time>
      </trkpt>
      <trkpt lat="44.25897" lon="3.22984">
        <ele>422</ele>
        <time>2009-07-08T10:47:57Z</time>
      </trkpt>
      <trkpt lat="44.25869" lon="3.22995">
        <ele>422</ele>
        <time>2009-07-08T10:48:03Z</time>
      </trkpt>
      <trkpt lat="44.25824" lon="3.23031">
        <ele>422</ele>
        <time>2009-07-08T10:48:14Z</time>
      </trkpt>
      <trkpt lat="44.25811" lon="3.23039">
        <ele>422</ele>
        <time>2009-07-08T10:48:17Z</time>
      </trkpt>
      <trkpt lat="44.25794" lon="3.23051">
        <ele>420</ele>
        <time>2009-07-08T10:48:21Z</time>
      </trkpt>
      <trkpt lat="44.25781" lon="3.23061">
        <ele>421</ele>
        <time>2009-07-08T10:48:24Z</time>
      </trkpt>
      <trkpt lat="44.25729" lon="3.23102">
        <ele>421</ele>
        <time>2009-07-08T10:48:36Z</time>
      </trkpt>
      <trkpt lat="44.25715" lon="3.23111">
        <ele>422</ele>
        <time>2009-07-08T10:48:39Z</time>
      </trkpt>
      <trkpt lat="44.25667" lon="3.23149">
        <ele>423</ele>
        <time>2009-07-08T10:48:52Z</time>
      </trkpt>
      <trkpt lat="44.25634" lon="3.23178">
        <ele>423</ele>
        <time>2009-07-08T10:49:02Z</time>
      </trkpt>
      <trkpt lat="44.25596" lon="3.23194">
        <ele>423</ele>
        <time>2009-07-08T10:49:11Z</time>
      </trkpt>
      <trkpt lat="44.25582" lon="3.23199">
        <ele>422</ele>
        <time>2009-07-08T10:49:14Z</time>
      </trkpt>
      <trkpt lat="44.25556" lon="3.23212">
        <ele>422</ele>
        <time>2009-07-08T10:49:23Z</time>
      </trkpt>
      <trkpt lat="44.25554" lon="3.23206">
        <ele>421</ele>
        <time>2009-07-08T10:49:36Z</time>
      </trkpt>
      <trkpt lat="44.25551" lon="3.2321">
        <ele>422</ele>
        <time>2009-07-08T10:50:07Z</time>
      </trkpt>
      <trkpt lat="44.25546" lon="3.23212">
        <ele>422</ele>
        <time>2009-07-08T10:50:11Z</time>
      </trkpt>
      <trkpt lat="44.25524" lon="3.23221">
        <ele>425</ele>
        <time>2009-07-08T10:50:22Z</time>
      </trkpt>
      <trkpt lat="44.2552" lon="3.23225">
        <ele>428</ele>
        <time>2009-07-08T10:50:25Z</time>
      </trkpt>
      <trkpt lat="44.25516" lon="3.23231">
        <ele>429</ele>
        <time>2009-07-08T10:50:28Z</time>
      </trkpt>
      <trkpt lat="44.25498" lon="3.23242">
        <ele>430</ele>
        <time>2009-07-08T10:50:40Z</time>
      </trkpt>
      <trkpt lat="44.25492" lon="3.23248">
        <ele>431</ele>
        <time>2009-07-08T10:50:53Z</time>
      </trkpt>
      <trkpt lat="44.25486" lon="3.23254">
        <ele>432</ele>
        <time>2009-07-08T10:51:02Z</time>
      </trkpt>
      <trkpt lat="44.25477" lon="3.23261">
        <ele>433</ele>
        <time>2009-07-08T10:51:09Z</time>
      </trkpt>
      <trkpt lat="44.2546" lon="3.23276">
        <ele>435</ele>
        <time>2009-07-08T10:51:20Z</time>
      </trkpt>
      <trkpt lat="44.25451" lon="3.23284">
        <ele>436</ele>
        <time>2009-07-08T10:51:34Z</time>
      </trkpt>
      <trkpt lat="44.25444" lon="3.23287">
        <ele>436</ele>
        <time>2009-07-08T10:51:47Z</time>
      </trkpt>
      <trkpt lat="44.25438" lon="3.23297">
        <ele>437</ele>
        <time>2009-07-08T10:51:57Z</time>
      </trkpt>
      <trkpt lat="44.2543" lon="3.23306">
        <ele>439</ele>
        <time>2009-07-08T10:52:08Z</time>
      </trkpt>
      <trkpt lat="44.25421" lon="3.23319">
        <ele>442</ele>
        <time>2009-07-08T10:52:26Z</time>
      </trkpt>
      <trkpt lat="44.25411" lon="3.2333">
        <ele>444</ele>
        <time>2009-07-08T10:52:41Z</time>
      </trkpt>
      <trkpt lat="44.25409" lon="3.23331">
        <ele>444</ele>
        <time>2009-07-08T10:52:46Z</time>
      </trkpt>
      <trkpt lat="44.25401" lon="3.23334">
        <ele>446</ele>
        <time>2009-07-08T10:52:53Z</time>
      </trkpt>
      <trkpt lat="44.25395" lon="3.23336">
        <ele>447</ele>
        <time>2009-07-08T10:53:00Z</time>
      </trkpt>
      <trkpt lat="44.25395" lon="3.23343">
        <ele>449</ele>
        <time>2009-07-08T10:53:12Z</time>
      </trkpt>
      <trkpt lat="44.2539" lon="3.23349">
        <ele>449</ele>
        <time>2009-07-08T10:53:22Z</time>
      </trkpt>
      <trkpt lat="44.25387" lon="3.23351">
        <ele>449</ele>
        <time>2009-07-08T10:53:29Z</time>
      </trkpt>
      <trkpt lat="44.25386" lon="3.23364">
        <ele>448</ele>
        <time>2009-07-08T10:53:35Z</time>
      </trkpt>
      <trkpt lat="44.25365" lon="3.23375">
        <ele>447</ele>
        <time>2009-07-08T10:53:43Z</time>
      </trkpt>
      <trkpt lat="44.25354" lon="3.23371">
        <ele>450</ele>
        <time>2009-07-08T10:53:51Z</time>
      </trkpt>
      <trkpt lat="44.25344" lon="3.23376">
        <ele>453</ele>
        <time>2009-07-08T10:54:04Z</time>
      </trkpt>
      <trkpt lat="44.25335" lon="3.23383">
        <ele>455</ele>
        <time>2009-07-08T10:54:17Z</time>
      </trkpt>
      <trkpt lat="44.25325" lon="3.23389">
        <ele>458</ele>
        <time>2009-07-08T10:54:28Z</time>
      </trkpt>
      <trkpt lat="44.25317" lon="3.23398">
        <ele>460</ele>
        <time>2009-07-08T10:54:40Z</time>
      </trkpt>
      <trkpt lat="44.25314" lon="3.23403">
        <ele>461</ele>
        <time>2009-07-08T10:54:47Z</time>
      </trkpt>
      <trkpt lat="44.25306" lon="3.23413">
        <ele>463</ele>
        <time>2009-07-08T10:54:59Z</time>
      </trkpt>
      <trkpt lat="44.253" lon="3.23422">
        <ele>465</ele>
        <time>2009-07-08T10:55:10Z</time>
      </trkpt>
      <trkpt lat="44.25294" lon="3.23426">
        <ele>465</ele>
        <time>2009-07-08T10:55:18Z</time>
      </trkpt>
      <trkpt lat="44.25278" lon="3.23453">
        <ele>463</ele>
        <time>2009-07-08T10:55:30Z</time>
      </trkpt>
      <trkpt lat="44.25273" lon="3.23469">
        <ele>463</ele>
        <time>2009-07-08T10:55:34Z</time>
      </trkpt>
      <trkpt lat="44.2527" lon="3.23471">
        <ele>462</ele>
        <time>2009-07-08T10:55:36Z</time>
      </trkpt>
      <trkpt lat="44.25253" lon="3.23445">
        <ele>464</ele>
        <time>2009-07-08T10:55:46Z</time>
      </trkpt>
      <trkpt lat="44.25246" lon="3.23425">
        <ele>465</ele>
        <time>2009-07-08T10:55:52Z</time>
      </trkpt>
      <trkpt lat="44.25227" lon="3.23408">
        <ele>466</ele>
        <time>2009-07-08T10:56:01Z</time>
      </trkpt>
      <trkpt lat="44.25219" lon="3.23398">
        <ele>468</ele>
        <time>2009-07-08T10:56:06Z</time>
      </trkpt>
      <trkpt lat="44.25218" lon="3.23395">
        <ele>468</ele>
        <time>2009-07-08T10:56:07Z</time>
      </trkpt>
      <trkpt lat="44.25185" lon="3.23385">
        <ele>464</ele>
        <time>2009-07-08T10:56:17Z</time>
      </trkpt>
      <trkpt lat="44.25157" lon="3.23371">
        <ele>466</ele>
        <time>2009-07-08T10:56:27Z</time>
      </trkpt>
      <trkpt lat="44.25137" lon="3.23367">
        <ele>466</ele>
        <time>2009-07-08T10:56:34Z</time>
      </trkpt>
      <trkpt lat="44.25128" lon="3.23362">
        <ele>468</ele>
        <time>2009-07-08T10:56:39Z</time>
      </trkpt>
      <trkpt lat="44.2512" lon="3.2334">
        <ele>469</ele>
        <time>2009-07-08T10:56:51Z</time>
      </trkpt>
      <trkpt lat="44.25115" lon="3.23336">
        <ele>470</ele>
        <time>2009-07-08T10:58:11Z</time>
      </trkpt>
      <trkpt lat="44.25115" lon="3.23337">
        <ele>470</ele>
        <time>2009-07-08T10:58:43Z</time>
      </trkpt>
      <trkpt lat="44.25114" lon="3.23341">
        <ele>469</ele>
        <time>2009-07-08T10:59:37Z</time>
      </trkpt>
      <trkpt lat="44.25114" lon="3.23343">
        <ele>469</ele>
        <time>2009-07-08T11:00:18Z</time>
      </trkpt>
      <trkpt lat="44.25113" lon="3.23343">
        <ele>469</ele>
        <time>2009-07-08T11:00:19Z</time>
      </trkpt>
      <trkpt lat="44.25102" lon="3.23343">
        <ele>469</ele>
        <time>2009-07-08T11:00:26Z</time>
      </trkpt>
      <trkpt lat="44.25082" lon="3.2337">
        <ele>465</ele>
        <time>2009-07-08T11:00:37Z</time>
      </trkpt>
      <trkpt lat="44.2508" lon="3.23372">
        <ele>465</ele>
        <time>2009-07-08T11:00:38Z</time>
      </trkpt>
      <trkpt lat="44.25055" lon="3.23346">
        <ele>465</ele>
        <time>2009-07-08T11:00:48Z</time>
      </trkpt>
      <trkpt lat="44.25047" lon="3.23344">
        <ele>464</ele>
        <time>2009-07-08T11:00:52Z</time>
      </trkpt>
      <trkpt lat="44.25027" lon="3.2335">
        <ele>463</ele>
        <time>2009-07-08T11:00:58Z</time>
      </trkpt>
      <trkpt lat="44.25024" lon="3.23344">
        <ele>464</ele>
        <time>2009-07-08T11:01:00Z</time>
      </trkpt>
      <trkpt lat="44.25011" lon="3.2333">
        <ele>463</ele>
        <time>2009-07-08T11:01:07Z</time>
      </trkpt>
      <trkpt lat="44.24973" lon="3.23343">
        <ele>460</ele>
        <time>2009-07-08T11:01:17Z</time>
      </trkpt>
      <trkpt lat="44.24945" lon="3.2332">
        <ele>461</ele>
        <time>2009-07-08T11:01:27Z</time>
      </trkpt>
      <trkpt lat="44.24936" lon="3.23318">
        <ele>460</ele>
        <time>2009-07-08T11:01:29Z</time>
      </trkpt>
      <trkpt lat="44.24901" lon="3.23302">
        <ele>460</ele>
        <time>2009-07-08T11:01:39Z</time>
      </trkpt>
      <trkpt lat="44.24895" lon="3.23302">
        <ele>460</ele>
        <time>2009-07-08T11:01:41Z</time>
      </trkpt>
      <trkpt lat="44.24882" lon="3.23309">
        <ele>459</ele>
        <time>2009-07-08T11:01:45Z</time>
      </trkpt>
      <trkpt lat="44.24876" lon="3.2331">
        <ele>458</ele>
        <time>2009-07-08T11:01:47Z</time>
      </trkpt>
      <trkpt lat="44.2487" lon="3.23321">
        <ele>459</ele>
        <time>2009-07-08T11:01:51Z</time>
      </trkpt>
      <trkpt lat="44.24848" lon="3.23318">
        <ele>460</ele>
        <time>2009-07-08T11:02:00Z</time>
      </trkpt>
      <trkpt lat="44.24834" lon="3.23305">
        <ele>459</ele>
        <time>2009-07-08T11:02:05Z</time>
      </trkpt>
      <trkpt lat="44.24821" lon="3.233">
        <ele>457</ele>
        <time>2009-07-08T11:02:08Z</time>
      </trkpt>
      <trkpt lat="44.24798" lon="3.23317">
        <ele>453</ele>
        <time>2009-07-08T11:02:14Z</time>
      </trkpt>
      <trkpt lat="44.24794" lon="3.23322">
        <ele>454</ele>
        <time>2009-07-08T11:02:15Z</time>
      </trkpt>
      <trkpt lat="44.24781" lon="3.23335">
        <ele>452</ele>
        <time>2009-07-08T11:02:18Z</time>
      </trkpt>
      <trkpt lat="44.24771" lon="3.2334">
        <ele>451</ele>
        <time>2009-07-08T11:02:20Z</time>
      </trkpt>
      <trkpt lat="44.24762" lon="3.23339">
        <ele>452</ele>
        <time>2009-07-08T11:02:22Z</time>
      </trkpt>
      <trkpt lat="44.24756" lon="3.23332">
        <ele>453</ele>
        <time>2009-07-08T11:02:24Z</time>
      </trkpt>
      <trkpt lat="44.24753" lon="3.23326">
        <ele>454</ele>
        <time>2009-07-08T11:02:26Z</time>
      </trkpt>
      <trkpt lat="44.24718" lon="3.23321">
        <ele>454</ele>
        <time>2009-07-08T11:02:37Z</time>
      </trkpt>
      <trkpt lat="44.24704" lon="3.23322">
        <ele>452</ele>
        <time>2009-07-08T11:02:41Z</time>
      </trkpt>
      <trkpt lat="44.24695" lon="3.23326">
        <ele>451</ele>
        <time>2009-07-08T11:02:44Z</time>
      </trkpt>
      <trkpt lat="44.24688" lon="3.23328">
        <ele>450</ele>
        <time>2009-07-08T11:02:46Z</time>
      </trkpt>
      <trkpt lat="44.24675" lon="3.23328">
        <ele>448</ele>
        <time>2009-07-08T11:02:50Z</time>
      </trkpt>
      <trkpt lat="44.24665" lon="3.23333">
        <ele>446</ele>
        <time>2009-07-08T11:02:53Z</time>
      </trkpt>
      <trkpt lat="44.24655" lon="3.23337">
        <ele>445</ele>
        <time>2009-07-08T11:02:55Z</time>
      </trkpt>
      <trkpt lat="44.24631" lon="3.23352">
        <ele>442</ele>
        <time>2009-07-08T11:03:01Z</time>
      </trkpt>
      <trkpt lat="44.24627" lon="3.2336">
        <ele>442</ele>
        <time>2009-07-08T11:03:03Z</time>
      </trkpt>
      <trkpt lat="44.24625" lon="3.23369">
        <ele>441</ele>
        <time>2009-07-08T11:03:06Z</time>
      </trkpt>
      <trkpt lat="44.24609" lon="3.23343">
        <ele>442</ele>
        <time>2009-07-08T11:03:15Z</time>
      </trkpt>
      <trkpt lat="44.24594" lon="3.23341">
        <ele>442</ele>
        <time>2009-07-08T11:03:20Z</time>
      </trkpt>
      <trkpt lat="44.24575" lon="3.23345">
        <ele>442</ele>
        <time>2009-07-08T11:03:30Z</time>
      </trkpt>
      <trkpt lat="44.24572" lon="3.23345">
        <ele>443</ele>
        <time>2009-07-08T11:06:10Z</time>
      </trkpt>
      <trkpt lat="44.24573" lon="3.23345">
        <ele>446</ele>
        <time>2009-07-08T11:06:37Z</time>
      </trkpt>
      <trkpt lat="44.24573" lon="3.23345">
        <ele>443</ele>
        <time>2009-07-08T11:06:38Z</time>
      </trkpt>
      <trkpt lat="44.24573" lon="3.23344">
        <ele>447</ele>
        <time>2009-07-08T11:06:52Z</time>
      </trkpt>
      <trkpt lat="44.24573" lon="3.23344">
        <ele>443</ele>
        <time>2009-07-08T11:06:53Z</time>
      </trkpt>
      <trkpt lat="44.24573" lon="3.23344">
        <ele>444</ele>
        <time>2009-07-08T11:06:57Z</time>
      </trkpt>
      <trkpt lat="44.24573" lon="3.23345">
        <ele>443</ele>
        <time>2009-07-08T11:07:49Z</time>
      </trkpt>
      <trkpt lat="44.24579" lon="3.23342">
        <ele>444</ele>
        <time>2009-07-08T11:08:39Z</time>
      </trkpt>
      <trkpt lat="44.24587" lon="3.23341">
        <ele>444</ele>
        <time>2009-07-08T11:09:20Z</time>
      </trkpt>
      <trkpt lat="44.24587" lon="3.23341">
        <ele>444</ele>
        <time>2009-07-08T11:09:49Z</time>
      </trkpt>
      <trkpt lat="44.24587" lon="3.23342">
        <ele>443</ele>
        <time>2009-07-08T11:12:30Z</time>
      </trkpt>
      <trkpt lat="44.24584" lon="3.23344">
        <ele>442</ele>
        <time>2009-07-08T11:12:57Z</time>
      </trkpt>
      <trkpt lat="44.24579" lon="3.23346">
        <ele>441</ele>
        <time>2009-07-08T11:14:58Z</time>
      </trkpt>
      <trkpt lat="44.2456" lon="3.2335">
        <ele>440</ele>
        <time>2009-07-08T11:16:24Z</time>
      </trkpt>
      <trkpt lat="44.2454" lon="3.23366">
        <ele>436</ele>
        <time>2009-07-08T11:16:30Z</time>
      </trkpt>
      <trkpt lat="44.24538" lon="3.23367">
        <ele>436</ele>
        <time>2009-07-08T11:16:31Z</time>
      </trkpt>
      <trkpt lat="44.24533" lon="3.23364">
        <ele>436</ele>
        <time>2009-07-08T11:16:39Z</time>
      </trkpt>
      <trkpt lat="44.24531" lon="3.2336">
        <ele>437</ele>
        <time>2009-07-08T11:16:41Z</time>
      </trkpt>
      <trkpt lat="44.24511" lon="3.23353">
        <ele>437</ele>
        <time>2009-07-08T11:16:51Z</time>
      </trkpt>
      <trkpt lat="44.24485" lon="3.23346">
        <ele>435</ele>
        <time>2009-07-08T11:17:01Z</time>
      </trkpt>
      <trkpt lat="44.24458" lon="3.23356">
        <ele>438</ele>
        <time>2009-07-08T11:17:12Z</time>
      </trkpt>
      <trkpt lat="44.2443" lon="3.2336">
        <ele>435</ele>
        <time>2009-07-08T11:17:19Z</time>
      </trkpt>
      <trkpt lat="44.24416" lon="3.23367">
        <ele>436</ele>
        <time>2009-07-08T11:17:23Z</time>
      </trkpt>
      <trkpt lat="44.2439" lon="3.23356">
        <ele>436</ele>
        <time>2009-07-08T11:17:33Z</time>
      </trkpt>
      <trkpt lat="44.24383" lon="3.23356">
        <ele>439</ele>
        <time>2009-07-08T11:17:42Z</time>
      </trkpt>
      <trkpt lat="44.24382" lon="3.23356">
        <ele>439</ele>
        <time>2009-07-08T11:17:43Z</time>
      </trkpt>
      <trkpt lat="44.24373" lon="3.23357">
        <ele>441</ele>
        <time>2009-07-08T11:17:52Z</time>
      </trkpt>
      <trkpt lat="44.24367" lon="3.23358">
        <ele>441</ele>
        <time>2009-07-08T11:17:56Z</time>
      </trkpt>
      <trkpt lat="44.24364" lon="3.2336">
        <ele>440</ele>
        <time>2009-07-08T11:17:58Z</time>
      </trkpt>
      <trkpt lat="44.24355" lon="3.23369">
        <ele>437</ele>
        <time>2009-07-08T11:18:02Z</time>
      </trkpt>
      <trkpt lat="44.24345" lon="3.23373">
        <ele>437</ele>
        <time>2009-07-08T11:18:05Z</time>
      </trkpt>
      <trkpt lat="44.24345" lon="3.23366">
        <ele>438</ele>
        <time>2009-07-08T11:18:08Z</time>
      </trkpt>
      <trkpt lat="44.24346" lon="3.23363">
        <ele>438</ele>
        <time>2009-07-08T11:18:09Z</time>
      </trkpt>
      <trkpt lat="44.24336" lon="3.23332">
        <ele>441</ele>
        <time>2009-07-08T11:18:18Z</time>
      </trkpt>
      <trkpt lat="44.24309" lon="3.23319">
        <ele>441</ele>
        <time>2009-07-08T11:18:29Z</time>
      </trkpt>
      <trkpt lat="44.24269" lon="3.23307">
        <ele>439</ele>
        <time>2009-07-08T11:18:41Z</time>
      </trkpt>
      <trkpt lat="44.24262" lon="3.23303">
        <ele>437</ele>
        <time>2009-07-08T11:18:43Z</time>
      </trkpt>
      <trkpt lat="44.24246" lon="3.2329">
        <ele>435</ele>
        <time>2009-07-08T11:18:50Z</time>
      </trkpt>
      <trkpt lat="44.24246" lon="3.23288">
        <ele>435</ele>
        <time>2009-07-08T11:18:53Z</time>
      </trkpt>
      <trkpt lat="44.24248" lon="3.23278">
        <ele>432</ele>
        <time>2009-07-08T11:18:59Z</time>
      </trkpt>
      <trkpt lat="44.24236" lon="3.23264">
        <ele>428</ele>
        <time>2009-07-08T11:19:04Z</time>
      </trkpt>
      <trkpt lat="44.24225" lon="3.23257">
        <ele>425</ele>
        <time>2009-07-08T11:19:07Z</time>
      </trkpt>
      <trkpt lat="44.2421" lon="3.23258">
        <ele>428</ele>
        <time>2009-07-08T11:19:12Z</time>
      </trkpt>
      <trkpt lat="44.24206" lon="3.23259">
        <ele>428</ele>
        <time>2009-07-08T11:19:14Z</time>
      </trkpt>
      <trkpt lat="44.24198" lon="3.23252">
        <ele>428</ele>
        <time>2009-07-08T11:19:18Z</time>
      </trkpt>
      <trkpt lat="44.24171" lon="3.23235">
        <ele>428</ele>
        <time>2009-07-08T11:19:29Z</time>
      </trkpt>
      <trkpt lat="44.2414" lon="3.23226">
        <ele>430</ele>
        <time>2009-07-08T11:19:41Z</time>
      </trkpt>
      <trkpt lat="44.24136" lon="3.23226">
        <ele>430</ele>
        <time>2009-07-08T11:19:42Z</time>
      </trkpt>
      <trkpt lat="44.2413" lon="3.23224">
        <ele>430</ele>
        <time>2009-07-08T11:19:44Z</time>
      </trkpt>
      <trkpt lat="44.2412" lon="3.23216">
        <ele>430</ele>
        <time>2009-07-08T11:19:48Z</time>
      </trkpt>
      <trkpt lat="44.24091" lon="3.23209">
        <ele>430</ele>
        <time>2009-07-08T11:19:58Z</time>
      </trkpt>
      <trkpt lat="44.24084" lon="3.23209">
        <ele>432</ele>
        <time>2009-07-08T11:20:03Z</time>
      </trkpt>
      <trkpt lat="44.24055" lon="3.23207">
        <ele>429</ele>
        <time>2009-07-08T11:20:15Z</time>
      </trkpt>
      <trkpt lat="44.24029" lon="3.23193">
        <ele>429</ele>
        <time>2009-07-08T11:20:23Z</time>
      </trkpt>
      <trkpt lat="44.24011" lon="3.23186">
        <ele>429</ele>
        <time>2009-07-08T11:20:27Z</time>
      </trkpt>
      <trkpt lat="44.23996" lon="3.2318">
        <ele>428</ele>
        <time>2009-07-08T11:20:31Z</time>
      </trkpt>
      <trkpt lat="44.23979" lon="3.23182">
        <ele>426</ele>
        <time>2009-07-08T11:20:35Z</time>
      </trkpt>
      <trkpt lat="44.2397" lon="3.23184">
        <ele>427</ele>
        <time>2009-07-08T11:20:37Z</time>
      </trkpt>
      <trkpt lat="44.23954" lon="3.2318">
        <ele>427</ele>
        <time>2009-07-08T11:20:41Z</time>
      </trkpt>
      <trkpt lat="44.23927" lon="3.2318">
        <ele>424</ele>
        <time>2009-07-08T11:20:46Z</time>
      </trkpt>
      <trkpt lat="44.23908" lon="3.23176">
        <ele>425</ele>
        <time>2009-07-08T11:20:50Z</time>
      </trkpt>
      <trkpt lat="44.23894" lon="3.23172">
        <ele>425</ele>
        <time>2009-07-08T11:20:53Z</time>
      </trkpt>
      <trkpt lat="44.23876" lon="3.2318">
        <ele>424</ele>
        <time>2009-07-08T11:20:58Z</time>
      </trkpt>
      <trkpt lat="44.23864" lon="3.23182">
        <ele>421</ele>
        <time>2009-07-08T11:21:00Z</time>
      </trkpt>
      <trkpt lat="44.23846" lon="3.23176">
        <ele>422</ele>
        <time>2009-07-08T11:21:04Z</time>
      </trkpt>
      <trkpt lat="44.23835" lon="3.23171">
        <ele>424</ele>
        <time>2009-07-08T11:21:07Z</time>
      </trkpt>
      <trkpt lat="44.23816" lon="3.23157">
        <ele>423</ele>
        <time>2009-07-08T11:21:11Z</time>
      </trkpt>
      <trkpt lat="44.23803" lon="3.23157">
        <ele>425</ele>
        <time>2009-07-08T11:21:14Z</time>
      </trkpt>
      <trkpt lat="44.23775" lon="3.23152">
        <ele>424</ele>
        <time>2009-07-08T11:21:21Z</time>
      </trkpt>
      <trkpt lat="44.23756" lon="3.23156">
        <ele>424</ele>
        <time>2009-07-08T11:21:25Z</time>
      </trkpt>
      <trkpt lat="44.23741" lon="3.23161">
        <ele>423</ele>
        <time>2009-07-08T11:21:29Z</time>
      </trkpt>
      <trkpt lat="44.23729" lon="3.23164">
        <ele>424</ele>
        <time>2009-07-08T11:21:32Z</time>
      </trkpt>
      <trkpt lat="44.23711" lon="3.23165">
        <ele>424</ele>
        <time>2009-07-08T11:21:36Z</time>
      </trkpt>
      <trkpt lat="44.23699" lon="3.23165">
        <ele>423</ele>
        <time>2009-07-08T11:21:39Z</time>
      </trkpt>
      <trkpt lat="44.23665" lon="3.23171">
        <ele>423</ele>
        <time>2009-07-08T11:21:47Z</time>
      </trkpt>
      <trkpt lat="44.23637" lon="3.23171">
        <ele>424</ele>
        <time>2009-07-08T11:21:55Z</time>
      </trkpt>
      <trkpt lat="44.23616" lon="3.23166">
        <ele>423</ele>
        <time>2009-07-08T11:22:00Z</time>
      </trkpt>
      <trkpt lat="44.23604" lon="3.23162">
        <ele>423</ele>
        <time>2009-07-08T11:22:03Z</time>
      </trkpt>
      <trkpt lat="44.23596" lon="3.23161">
        <ele>424</ele>
        <time>2009-07-08T11:22:05Z</time>
      </trkpt>
      <trkpt lat="44.23582" lon="3.23148">
        <ele>424</ele>
        <time>2009-07-08T11:22:09Z</time>
      </trkpt>
      <trkpt lat="44.23571" lon="3.23136">
        <ele>423</ele>
        <time>2009-07-08T11:22:12Z</time>
      </trkpt>
      <trkpt lat="44.23552" lon="3.23134">
        <ele>423</ele>
        <time>2009-07-08T11:22:16Z</time>
      </trkpt>
      <trkpt lat="44.2353" lon="3.2313">
        <ele>421</ele>
        <time>2009-07-08T11:22:20Z</time>
      </trkpt>
      <trkpt lat="44.23515" lon="3.23127">
        <ele>420</ele>
        <time>2009-07-08T11:22:23Z</time>
      </trkpt>
      <trkpt lat="44.23492" lon="3.23133">
        <ele>418</ele>
        <time>2009-07-08T11:22:28Z</time>
      </trkpt>
      <trkpt lat="44.23478" lon="3.23139">
        <ele>419</ele>
        <time>2009-07-08T11:22:31Z</time>
      </trkpt>
      <trkpt lat="44.23455" lon="3.23146">
        <ele>418</ele>
        <time>2009-07-08T11:22:36Z</time>
      </trkpt>
      <trkpt lat="44.23423" lon="3.23147">
        <ele>418</ele>
        <time>2009-07-08T11:22:42Z</time>
      </trkpt>
      <trkpt lat="44.23368" lon="3.23151">
        <ele>421</ele>
        <time>2009-07-08T11:22:55Z</time>
      </trkpt>
      <trkpt lat="44.23363" lon="3.23149">
        <ele>422</ele>
        <time>2009-07-08T11:22:57Z</time>
      </trkpt>
      <trkpt lat="44.23357" lon="3.23147">
        <ele>422</ele>
        <time>2009-07-08T11:22:59Z</time>
      </trkpt>
      <trkpt lat="44.23349" lon="3.23151">
        <ele>422</ele>
        <time>2009-07-08T11:23:03Z</time>
      </trkpt>
      <trkpt lat="44.23322" lon="3.23162">
        <ele>425</ele>
        <time>2009-07-08T11:23:14Z</time>
      </trkpt>
      <trkpt lat="44.23317" lon="3.23166">
        <ele>426</ele>
        <time>2009-07-08T11:23:23Z</time>
      </trkpt>
      <trkpt lat="44.23319" lon="3.23163">
        <ele>429</ele>
        <time>2009-07-08T11:23:37Z</time>
      </trkpt>
      <trkpt lat="44.23319" lon="3.23162">
        <ele>429</ele>
        <time>2009-07-08T11:23:39Z</time>
      </trkpt>
      <trkpt lat="44.23317" lon="3.23154">
        <ele>431</ele>
        <time>2009-07-08T11:23:45Z</time>
      </trkpt>
      <trkpt lat="44.23312" lon="3.23144">
        <ele>431</ele>
        <time>2009-07-08T11:23:54Z</time>
      </trkpt>
      <trkpt lat="44.23286" lon="3.2313">
        <ele>431</ele>
        <time>2009-07-08T11:24:03Z</time>
      </trkpt>
      <trkpt lat="44.23271" lon="3.23127">
        <ele>431</ele>
        <time>2009-07-08T11:24:06Z</time>
      </trkpt>
      <trkpt lat="44.23256" lon="3.23124">
        <ele>430</ele>
        <time>2009-07-08T11:24:09Z</time>
      </trkpt>
      <trkpt lat="44.23236" lon="3.23124">
        <ele>430</ele>
        <time>2009-07-08T11:24:13Z</time>
      </trkpt>
      <trkpt lat="44.23196" lon="3.23117">
        <ele>426</ele>
        <time>2009-07-08T11:24:21Z</time>
      </trkpt>
      <trkpt lat="44.2318" lon="3.23119">
        <ele>426</ele>
        <time>2009-07-08T11:24:24Z</time>
      </trkpt>
      <trkpt lat="44.23158" lon="3.23114">
        <ele>424</ele>
        <time>2009-07-08T11:24:28Z</time>
      </trkpt>
      <trkpt lat="44.2314" lon="3.23106">
        <ele>422</ele>
        <time>2009-07-08T11:24:32Z</time>
      </trkpt>
      <trkpt lat="44.23122" lon="3.23105">
        <ele>422</ele>
        <time>2009-07-08T11:24:36Z</time>
      </trkpt>
      <trkpt lat="44.23095" lon="3.23104">
        <ele>425</ele>
        <time>2009-07-08T11:24:48Z</time>
      </trkpt>
      <trkpt lat="44.23059" lon="3.23096">
        <ele>427</ele>
        <time>2009-07-08T11:24:59Z</time>
      </trkpt>
      <trkpt lat="44.23056" lon="3.23095">
        <ele>426</ele>
        <time>2009-07-08T11:25:00Z</time>
      </trkpt>
      <trkpt lat="44.23037" lon="3.23098">
        <ele>424</ele>
        <time>2009-07-08T11:25:04Z</time>
      </trkpt>
      <trkpt lat="44.23021" lon="3.23101">
        <ele>423</ele>
        <time>2009-07-08T11:25:08Z</time>
      </trkpt>
      <trkpt lat="44.23016" lon="3.23103">
        <ele>422</ele>
        <time>2009-07-08T11:25:10Z</time>
      </trkpt>
      <trkpt lat="44.23011" lon="3.23105">
        <ele>422</ele>
        <time>2009-07-08T11:25:21Z</time>
      </trkpt>
      <trkpt lat="44.23007" lon="3.23105">
        <ele>422</ele>
        <time>2009-07-08T11:25:26Z</time>
      </trkpt>
      <trkpt lat="44.22977" lon="3.23102">
        <ele>419</ele>
        <time>2009-07-08T11:25:36Z</time>
      </trkpt>
      <trkpt lat="44.22966" lon="3.23098">
        <ele>416</ele>
        <time>2009-07-08T11:25:39Z</time>
      </trkpt>
      <trkpt lat="44.22955" lon="3.23093">
        <ele>415</ele>
        <time>2009-07-08T11:25:42Z</time>
      </trkpt>
      <trkpt lat="44.22915" lon="3.23094">
        <ele>416</ele>
        <time>2009-07-08T11:25:52Z</time>
      </trkpt>
      <trkpt lat="44.2291" lon="3.23093">
        <ele>415</ele>
        <time>2009-07-08T11:25:53Z</time>
      </trkpt>
      <trkpt lat="44.22896" lon="3.23093">
        <ele>415</ele>
        <time>2009-07-08T11:25:56Z</time>
      </trkpt>
      <trkpt lat="44.22877" lon="3.23087">
        <ele>415</ele>
        <time>2009-07-08T11:26:02Z</time>
      </trkpt>
      <trkpt lat="44.22855" lon="3.2308">
        <ele>415</ele>
        <time>2009-07-08T11:26:07Z</time>
      </trkpt>
      <trkpt lat="44.22826" lon="3.23071">
        <ele>418</ele>
        <time>2009-07-08T11:26:15Z</time>
      </trkpt>
      <trkpt lat="44.22818" lon="3.23067">
        <ele>417</ele>
        <time>2009-07-08T11:26:17Z</time>
      </trkpt>
      <trkpt lat="44.2281" lon="3.2306">
        <ele>415</ele>
        <time>2009-07-08T11:26:19Z</time>
      </trkpt>
      <trkpt lat="44.22796" lon="3.23051">
        <ele>414</ele>
        <time>2009-07-08T11:26:22Z</time>
      </trkpt>
      <trkpt lat="44.22784" lon="3.23044">
        <ele>413</ele>
        <time>2009-07-08T11:26:24Z</time>
      </trkpt>
      <trkpt lat="44.22744" lon="3.23037">
        <ele>413</ele>
        <time>2009-07-08T11:26:32Z</time>
      </trkpt>
      <trkpt lat="44.22735" lon="3.23038">
        <ele>413</ele>
        <time>2009-07-08T11:26:34Z</time>
      </trkpt>
      <trkpt lat="44.22724" lon="3.23038">
        <ele>413</ele>
        <time>2009-07-08T11:26:36Z</time>
      </trkpt>
      <trkpt lat="44.22703" lon="3.23038">
        <ele>413</ele>
        <time>2009-07-08T11:26:40Z</time>
      </trkpt>
      <trkpt lat="44.22676" lon="3.2304">
        <ele>413</ele>
        <time>2009-07-08T11:26:45Z</time>
      </trkpt>
      <trkpt lat="44.22665" lon="3.23036">
        <ele>413</ele>
        <time>2009-07-08T11:26:47Z</time>
      </trkpt>
      <trkpt lat="44.22631" lon="3.23026">
        <ele>414</ele>
        <time>2009-07-08T11:26:53Z</time>
      </trkpt>
      <trkpt lat="44.22609" lon="3.23018">
        <ele>412</ele>
        <time>2009-07-08T11:26:56Z</time>
      </trkpt>
      <trkpt lat="44.22602" lon="3.23015">
        <ele>412</ele>
        <time>2009-07-08T11:26:57Z</time>
      </trkpt>
      <trkpt lat="44.22559" lon="3.22999">
        <ele>412</ele>
        <time>2009-07-08T11:27:05Z</time>
      </trkpt>
      <trkpt lat="44.22548" lon="3.22996">
        <ele>412</ele>
        <time>2009-07-08T11:27:07Z</time>
      </trkpt>
      <trkpt lat="44.22534" lon="3.22988">
        <ele>413</ele>
        <time>2009-07-08T11:27:10Z</time>
      </trkpt>
      <trkpt lat="44.22505" lon="3.22971">
        <ele>414</ele>
        <time>2009-07-08T11:27:19Z</time>
      </trkpt>
      <trkpt lat="44.22503" lon="3.22969">
        <ele>413</ele>
        <time>2009-07-08T11:27:23Z</time>
      </trkpt>
      <trkpt lat="44.22495" lon="3.22953">
        <ele>412</ele>
        <time>2009-07-08T11:27:39Z</time>
      </trkpt>
      <trkpt lat="44.2249" lon="3.22943">
        <ele>411</ele>
        <time>2009-07-08T11:27:51Z</time>
      </trkpt>
      <trkpt lat="44.22482" lon="3.22936">
        <ele>411</ele>
        <time>2009-07-08T11:28:03Z</time>
      </trkpt>
      <trkpt lat="44.22478" lon="3.22935">
        <ele>411</ele>
        <time>2009-07-08T11:28:20Z</time>
      </trkpt>
      <trkpt lat="44.22477" lon="3.22935">
        <ele>411</ele>
        <time>2009-07-08T11:28:24Z</time>
      </trkpt>
      <trkpt lat="44.22466" lon="3.22934">
        <ele>413</ele>
        <time>2009-07-08T11:28:31Z</time>
      </trkpt>
      <trkpt lat="44.22447" lon="3.2293">
        <ele>415</ele>
        <time>2009-07-08T11:28:41Z</time>
      </trkpt>
      <trkpt lat="44.22426" lon="3.22921">
        <ele>418</ele>
        <time>2009-07-08T11:28:54Z</time>
      </trkpt>
      <trkpt lat="44.22407" lon="3.22915">
        <ele>421</ele>
        <time>2009-07-08T11:29:06Z</time>
      </trkpt>
      <trkpt lat="44.22407" lon="3.2292">
        <ele>421</ele>
        <time>2009-07-08T11:29:10Z</time>
      </trkpt>
      <trkpt lat="44.22425" lon="3.22939">
        <ele>424</ele>
        <time>2009-07-08T11:29:24Z</time>
      </trkpt>
      <trkpt lat="44.22434" lon="3.22948">
        <ele>427</ele>
        <time>2009-07-08T11:29:31Z</time>
      </trkpt>
      <trkpt lat="44.22447" lon="3.22965">
        <ele>430</ele>
        <time>2009-07-08T11:29:45Z</time>
      </trkpt>
      <trkpt lat="44.22453" lon="3.22974">
        <ele>431</ele>
        <time>2009-07-08T11:29:51Z</time>
      </trkpt>
      <trkpt lat="44.22464" lon="3.2299">
        <ele>433</ele>
        <time>2009-07-08T11:30:03Z</time>
      </trkpt>
      <trkpt lat="44.22451" lon="3.22982">
        <ele>435</ele>
        <time>2009-07-08T11:30:14Z</time>
      </trkpt>
      <trkpt lat="44.22416" lon="3.22964">
        <ele>436</ele>
        <time>2009-07-08T11:30:32Z</time>
      </trkpt>
      <trkpt lat="44.22397" lon="3.22967">
        <ele>439</ele>
        <time>2009-07-08T11:30:42Z</time>
      </trkpt>
      <trkpt lat="44.22392" lon="3.22969">
        <ele>440</ele>
        <time>2009-07-08T11:30:45Z</time>
      </trkpt>
      <trkpt lat="44.22375" lon="3.22936">
        <ele>441</ele>
        <time>2009-07-08T11:30:56Z</time>
      </trkpt>
      <trkpt lat="44.2236" lon="3.22913">
        <ele>439</ele>
        <time>2009-07-08T11:31:03Z</time>
      </trkpt>
      <trkpt lat="44.22346" lon="3.22878">
        <ele>439</ele>
        <time>2009-07-08T11:31:12Z</time>
      </trkpt>
      <trkpt lat="44.22331" lon="3.22836">
        <ele>439</ele>
        <time>2009-07-08T11:31:22Z</time>
      </trkpt>
      <trkpt lat="44.22302" lon="3.22767">
        <ele>438</ele>
        <time>2009-07-08T11:31:34Z</time>
      </trkpt>
      <trkpt lat="44.22289" lon="3.22742">
        <ele>438</ele>
        <time>2009-07-08T11:31:39Z</time>
      </trkpt>
      <trkpt lat="44.22283" lon="3.22717">
        <ele>440</ele>
        <time>2009-07-08T11:31:44Z</time>
      </trkpt>
      <trkpt lat="44.22273" lon="3.227">
        <ele>439</ele>
        <time>2009-07-08T11:31:48Z</time>
      </trkpt>
      <trkpt lat="44.22266" lon="3.2269">
        <ele>438</ele>
        <time>2009-07-08T11:31:50Z</time>
      </trkpt>
      <trkpt lat="44.22238" lon="3.22642">
        <ele>438</ele>
        <time>2009-07-08T11:32:01Z</time>
      </trkpt>
      <trkpt lat="44.22238" lon="3.2263">
        <ele>438</ele>
        <time>2009-07-08T11:32:09Z</time>
      </trkpt>
      <trkpt lat="44.22253" lon="3.22622">
        <ele>437</ele>
        <time>2009-07-08T11:32:43Z</time>
      </trkpt>
      <trkpt lat="44.22237" lon="3.22586">
        <ele>438</ele>
        <time>2009-07-08T11:32:53Z</time>
      </trkpt>
      <trkpt lat="44.22218" lon="3.22572">
        <ele>437</ele>
        <time>2009-07-08T11:32:58Z</time>
      </trkpt>
      <trkpt lat="44.22204" lon="3.22555">
        <ele>438</ele>
        <time>2009-07-08T11:33:02Z</time>
      </trkpt>
      <trkpt lat="44.22191" lon="3.22539">
        <ele>437</ele>
        <time>2009-07-08T11:33:07Z</time>
      </trkpt>
      <trkpt lat="44.22161" lon="3.225">
        <ele>437</ele>
        <time>2009-07-08T11:33:18Z</time>
      </trkpt>
      <trkpt lat="44.22183" lon="3.22495">
        <ele>435</ele>
        <time>2009-07-08T11:33:40Z</time>
      </trkpt>
      <trkpt lat="44.22155" lon="3.22502">
        <ele>435</ele>
        <time>2009-07-08T11:34:21Z</time>
      </trkpt>
      <trkpt lat="44.22157" lon="3.225">
        <ele>435</ele>
        <time>2009-07-08T11:34:40Z</time>
      </trkpt>
      <trkpt lat="44.22157" lon="3.22501">
        <ele>435</ele>
        <time>2009-07-08T11:34:58Z</time>
      </trkpt>
      <trkpt lat="44.22157" lon="3.225">
        <ele>435</ele>
        <time>2009-07-08T11:35:01Z</time>
      </trkpt>
      <trkpt lat="44.22132" lon="3.22474">
        <ele>435</ele>
        <time>2009-07-08T11:35:12Z</time>
      </trkpt>
      <trkpt lat="44.22101" lon="3.2246">
        <ele>434</ele>
        <time>2009-07-08T11:35:19Z</time>
      </trkpt>
      <trkpt lat="44.22037" lon="3.2243">
        <ele>436</ele>
        <time>2009-07-08T11:35:33Z</time>
      </trkpt>
      <trkpt lat="44.22023" lon="3.22408">
        <ele>436</ele>
        <time>2009-07-08T11:35:39Z</time>
      </trkpt>
      <trkpt lat="44.21998" lon="3.22394">
        <ele>432</ele>
        <time>2009-07-08T11:35:44Z</time>
      </trkpt>
      <trkpt lat="44.21967" lon="3.22387">
        <ele>435</ele>
        <time>2009-07-08T11:35:50Z</time>
      </trkpt>
      <trkpt lat="44.21963" lon="3.22389">
        <ele>435</ele>
        <time>2009-07-08T11:35:51Z</time>
      </trkpt>
      <trkpt lat="44.21955" lon="3.22395">
        <ele>435</ele>
        <time>2009-07-08T11:35:53Z</time>
      </trkpt>
      <trkpt lat="44.21912" lon="3.22418">
        <ele>436</ele>
        <time>2009-07-08T11:36:04Z</time>
      </trkpt>
      <trkpt lat="44.21886" lon="3.22436">
        <ele>436</ele>
        <time>2009-07-08T11:36:10Z</time>
      </trkpt>
      <trkpt lat="44.21865" lon="3.22447">
        <ele>436</ele>
        <time>2009-07-08T11:36:14Z</time>
      </trkpt>
      <trkpt lat="44.21835" lon="3.22467">
        <ele>435</ele>
        <time>2009-07-08T11:36:20Z</time>
      </trkpt>
      <trkpt lat="44.21823" lon="3.22473">
        <ele>435</ele>
        <time>2009-07-08T11:36:22Z</time>
      </trkpt>
      <trkpt lat="44.2179" lon="3.22497">
        <ele>435</ele>
        <time>2009-07-08T11:36:28Z</time>
      </trkpt>
      <trkpt lat="44.21775" lon="3.22506">
        <ele>437</ele>
        <time>2009-07-08T11:36:31Z</time>
      </trkpt>
      <trkpt lat="44.21763" lon="3.22513">
        <ele>437</ele>
        <time>2009-07-08T11:36:34Z</time>
      </trkpt>
      <trkpt lat="44.21752" lon="3.22546">
        <ele>438</ele>
        <time>2009-07-08T11:36:42Z</time>
      </trkpt>
      <trkpt lat="44.21738" lon="3.2258">
        <ele>441</ele>
        <time>2009-07-08T11:36:52Z</time>
      </trkpt>
      <trkpt lat="44.21725" lon="3.22613">
        <ele>444</ele>
        <time>2009-07-08T11:37:03Z</time>
      </trkpt>
      <trkpt lat="44.21723" lon="3.22619">
        <ele>445</ele>
        <time>2009-07-08T11:37:05Z</time>
      </trkpt>
      <trkpt lat="44.21713" lon="3.22623">
        <ele>444</ele>
        <time>2009-07-08T11:37:09Z</time>
      </trkpt>
      <trkpt lat="44.21707" lon="3.22622">
        <ele>445</ele>
        <time>2009-07-08T11:37:11Z</time>
      </trkpt>
      <trkpt lat="44.21706" lon="3.22603">
        <ele>443</ele>
        <time>2009-07-08T11:37:14Z</time>
      </trkpt>
      <trkpt lat="44.21683" lon="3.22558">
        <ele>444</ele>
        <time>2009-07-08T11:37:25Z</time>
      </trkpt>
      <trkpt lat="44.21664" lon="3.22552">
        <ele>445</ele>
        <time>2009-07-08T11:37:30Z</time>
      </trkpt>
      <trkpt lat="44.21645" lon="3.2257">
        <ele>444</ele>
        <time>2009-07-08T11:37:35Z</time>
      </trkpt>
      <trkpt lat="44.21638" lon="3.22579">
        <ele>444</ele>
        <time>2009-07-08T11:37:37Z</time>
      </trkpt>
      <trkpt lat="44.21627" lon="3.22599">
        <ele>443</ele>
        <time>2009-07-08T11:37:40Z</time>
      </trkpt>
      <trkpt lat="44.21624" lon="3.22624">
        <ele>442</ele>
        <time>2009-07-08T11:37:43Z</time>
      </trkpt>
      <trkpt lat="44.21623" lon="3.22639">
        <ele>442</ele>
        <time>2009-07-08T11:37:45Z</time>
      </trkpt>
      <trkpt lat="44.2162" lon="3.2266">
        <ele>442</ele>
        <time>2009-07-08T11:37:48Z</time>
      </trkpt>
      <trkpt lat="44.21603" lon="3.22659">
        <ele>444</ele>
        <time>2009-07-08T11:37:56Z</time>
      </trkpt>
      <trkpt lat="44.21575" lon="3.22624">
        <ele>448</ele>
        <time>2009-07-08T11:38:06Z</time>
      </trkpt>
      <trkpt lat="44.21572" lon="3.22619">
        <ele>447</ele>
        <time>2009-07-08T11:38:07Z</time>
      </trkpt>
      <trkpt lat="44.21546" lon="3.22608">
        <ele>449</ele>
        <time>2009-07-08T11:38:15Z</time>
      </trkpt>
      <trkpt lat="44.21509" lon="3.22613">
        <ele>449</ele>
        <time>2009-07-08T11:38:27Z</time>
      </trkpt>
      <trkpt lat="44.21475" lon="3.2259">
        <ele>448</ele>
        <time>2009-07-08T11:38:38Z</time>
      </trkpt>
      <trkpt lat="44.21455" lon="3.22618">
        <ele>449</ele>
        <time>2009-07-08T11:38:46Z</time>
      </trkpt>
      <trkpt lat="44.21458" lon="3.22622">
        <ele>449</ele>
        <time>2009-07-08T11:38:47Z</time>
      </trkpt>
      <trkpt lat="44.21446" lon="3.22653">
        <ele>450</ele>
        <time>2009-07-08T11:38:55Z</time>
      </trkpt>
      <trkpt lat="44.21432" lon="3.22674">
        <ele>449</ele>
        <time>2009-07-08T11:39:00Z</time>
      </trkpt>
      <trkpt lat="44.21421" lon="3.2267">
        <ele>448</ele>
        <time>2009-07-08T11:39:06Z</time>
      </trkpt>
      <trkpt lat="44.21425" lon="3.22648">
        <ele>448</ele>
        <time>2009-07-08T11:39:09Z</time>
      </trkpt>
      <trkpt lat="44.21422" lon="3.22625">
        <ele>449</ele>
        <time>2009-07-08T11:39:13Z</time>
      </trkpt>
      <trkpt lat="44.21418" lon="3.22617">
        <ele>451</ele>
        <time>2009-07-08T11:39:16Z</time>
      </trkpt>
      <trkpt lat="44.21389" lon="3.22603">
        <ele>454</ele>
        <time>2009-07-08T11:39:30Z</time>
      </trkpt>
      <trkpt lat="44.21367" lon="3.22617">
        <ele>455</ele>
        <time>2009-07-08T11:39:41Z</time>
      </trkpt>
      <trkpt lat="44.21364" lon="3.22621">
        <ele>455</ele>
        <time>2009-07-08T11:39:44Z</time>
      </trkpt>
      <trkpt lat="44.2136" lon="3.22624">
        <ele>455</ele>
        <time>2009-07-08T11:39:49Z</time>
      </trkpt>
      <trkpt lat="44.21354" lon="3.22625">
        <ele>455</ele>
        <time>2009-07-08T11:39:53Z</time>
      </trkpt>
      <trkpt lat="44.21324" lon="3.22623">
        <ele>458</ele>
        <time>2009-07-08T11:40:05Z</time>
      </trkpt>
      <trkpt lat="44.21287" lon="3.22632">
        <ele>459</ele>
        <time>2009-07-08T11:40:18Z</time>
      </trkpt>
      <trkpt lat="44.21271" lon="3.22626">
        <ele>462</ele>
        <time>2009-07-08T11:40:25Z</time>
      </trkpt>
      <trkpt lat="44.21269" lon="3.22626">
        <ele>462</ele>
        <time>2009-07-08T11:40:26Z</time>
      </trkpt>
      <trkpt lat="44.21248" lon="3.22618">
        <ele>465</ele>
        <time>2009-07-08T11:40:35Z</time>
      </trkpt>
      <trkpt lat="44.21213" lon="3.22609">
        <ele>464</ele>
        <time>2009-07-08T11:40:49Z</time>
      </trkpt>
      <trkpt lat="44.21203" lon="3.22614">
        <ele>463</ele>
        <time>2009-07-08T11:40:52Z</time>
      </trkpt>
      <trkpt lat="44.21154" lon="3.22655">
        <ele>464</ele>
        <time>2009-07-08T11:41:06Z</time>
      </trkpt>
      <trkpt lat="44.21143" lon="3.22667">
        <ele>466</ele>
        <time>2009-07-08T11:41:10Z</time>
      </trkpt>
      <trkpt lat="44.21123" lon="3.22687">
        <ele>464</ele>
        <time>2009-07-08T11:41:16Z</time>
      </trkpt>
      <trkpt lat="44.211" lon="3.22673">
        <ele>464</ele>
        <time>2009-07-08T11:41:23Z</time>
      </trkpt>
      <trkpt lat="44.21095" lon="3.22644">
        <ele>464</ele>
        <time>2009-07-08T11:41:28Z</time>
      </trkpt>
      <trkpt lat="44.21099" lon="3.22597">
        <ele>465</ele>
        <time>2009-07-08T11:41:36Z</time>
      </trkpt>
      <trkpt lat="44.21104" lon="3.22581">
        <ele>467</ele>
        <time>2009-07-08T11:41:39Z</time>
      </trkpt>
      <trkpt lat="44.21104" lon="3.22576">
        <ele>467</ele>
        <time>2009-07-08T11:41:40Z</time>
      </trkpt>
      <trkpt lat="44.21103" lon="3.22561">
        <ele>467</ele>
        <time>2009-07-08T11:41:43Z</time>
      </trkpt>
      <trkpt lat="44.21081" lon="3.2256">
        <ele>467</ele>
        <time>2009-07-08T11:41:50Z</time>
      </trkpt>
      <trkpt lat="44.21072" lon="3.22569">
        <ele>468</ele>
        <time>2009-07-08T11:41:53Z</time>
      </trkpt>
      <trkpt lat="44.21066" lon="3.22575">
        <ele>468</ele>
        <time>2009-07-08T11:41:55Z</time>
      </trkpt>
      <trkpt lat="44.21039" lon="3.22553">
        <ele>467</ele>
        <time>2009-07-08T11:42:03Z</time>
      </trkpt>
      <trkpt lat="44.21028" lon="3.22521">
        <ele>465</ele>
        <time>2009-07-08T11:42:08Z</time>
      </trkpt>
      <trkpt lat="44.20995" lon="3.22474">
        <ele>465</ele>
        <time>2009-07-08T11:42:18Z</time>
      </trkpt>
      <trkpt lat="44.20957" lon="3.2246">
        <ele>465</ele>
        <time>2009-07-08T11:42:26Z</time>
      </trkpt>
      <trkpt lat="44.20921" lon="3.22489">
        <ele>463</ele>
        <time>2009-07-08T11:42:34Z</time>
      </trkpt>
      <trkpt lat="44.20912" lon="3.22496">
        <ele>461</ele>
        <time>2009-07-08T11:42:36Z</time>
      </trkpt>
      <trkpt lat="44.209" lon="3.22502">
        <ele>459</ele>
        <time>2009-07-08T11:42:38Z</time>
      </trkpt>
      <trkpt lat="44.2086" lon="3.22504">
        <ele>456</ele>
        <time>2009-07-08T11:42:45Z</time>
      </trkpt>
      <trkpt lat="44.20837" lon="3.22492">
        <ele>455</ele>
        <time>2009-07-08T11:42:51Z</time>
      </trkpt>
      <trkpt lat="44.20836" lon="3.22487">
        <ele>456</ele>
        <time>2009-07-08T11:42:52Z</time>
      </trkpt>
      <trkpt lat="44.20835" lon="3.22477">
        <ele>457</ele>
        <time>2009-07-08T11:42:54Z</time>
      </trkpt>
      <trkpt lat="44.20826" lon="3.22453">
        <ele>457</ele>
        <time>2009-07-08T11:42:59Z</time>
      </trkpt>
      <trkpt lat="44.20821" lon="3.22445">
        <ele>458</ele>
        <time>2009-07-08T11:43:01Z</time>
      </trkpt>
      <trkpt lat="44.2082" lon="3.22419">
        <ele>459</ele>
        <time>2009-07-08T11:43:06Z</time>
      </trkpt>
      <trkpt lat="44.20809" lon="3.22375">
        <ele>459</ele>
        <time>2009-07-08T11:43:14Z</time>
      </trkpt>
      <trkpt lat="44.20817" lon="3.22345">
        <ele>459</ele>
        <time>2009-07-08T11:43:20Z</time>
      </trkpt>
      <trkpt lat="44.20823" lon="3.22312">
        <ele>458</ele>
        <time>2009-07-08T11:43:26Z</time>
      </trkpt>
      <trkpt lat="44.20785" lon="3.22296">
        <ele>458</ele>
        <time>2009-07-08T11:43:35Z</time>
      </trkpt>
      <trkpt lat="44.20774" lon="3.22316">
        <ele>456</ele>
        <time>2009-07-08T11:43:39Z</time>
      </trkpt>
      <trkpt lat="44.20765" lon="3.22324">
        <ele>454</ele>
        <time>2009-07-08T11:43:41Z</time>
      </trkpt>
      <trkpt lat="44.20756" lon="3.22334">
        <ele>454</ele>
        <time>2009-07-08T11:43:43Z</time>
      </trkpt>
      <trkpt lat="44.20742" lon="3.22335">
        <ele>454</ele>
        <time>2009-07-08T11:43:46Z</time>
      </trkpt>
      <trkpt lat="44.20718" lon="3.22325">
        <ele>456</ele>
        <time>2009-07-08T11:43:51Z</time>
      </trkpt>
      <trkpt lat="44.20712" lon="3.22321">
        <ele>458</ele>
        <time>2009-07-08T11:43:53Z</time>
      </trkpt>
      <trkpt lat="44.20684" lon="3.22299">
        <ele>460</ele>
        <time>2009-07-08T11:44:05Z</time>
      </trkpt>
      <trkpt lat="44.20657" lon="3.2227">
        <ele>461</ele>
        <time>2009-07-08T11:44:17Z</time>
      </trkpt>
      <trkpt lat="44.20644" lon="3.22255">
        <ele>461</ele>
        <time>2009-07-08T11:44:22Z</time>
      </trkpt>
      <trkpt lat="44.2062" lon="3.22231">
        <ele>457</ele>
        <time>2009-07-08T11:44:28Z</time>
      </trkpt>
      <trkpt lat="44.20615" lon="3.22227">
        <ele>457</ele>
        <time>2009-07-08T11:44:29Z</time>
      </trkpt>
      <trkpt lat="44.20606" lon="3.22219">
        <ele>457</ele>
        <time>2009-07-08T11:44:31Z</time>
      </trkpt>
      <trkpt lat="44.20584" lon="3.22198">
        <ele>454</ele>
        <time>2009-07-08T11:44:37Z</time>
      </trkpt>
      <trkpt lat="44.20566" lon="3.22186">
        <ele>451</ele>
        <time>2009-07-08T11:44:41Z</time>
      </trkpt>
      <trkpt lat="44.2055" lon="3.22175">
        <ele>450</ele>
        <time>2009-07-08T11:44:44Z</time>
      </trkpt>
      <trkpt lat="44.20516" lon="3.22159">
        <ele>446</ele>
        <time>2009-07-08T11:44:50Z</time>
      </trkpt>
      <trkpt lat="44.20498" lon="3.22151">
        <ele>443</ele>
        <time>2009-07-08T11:44:53Z</time>
      </trkpt>
      <trkpt lat="44.20461" lon="3.22148">
        <ele>441</ele>
        <time>2009-07-08T11:45:00Z</time>
      </trkpt>
      <trkpt lat="44.20437" lon="3.22155">
        <ele>440</ele>
        <time>2009-07-08T11:45:04Z</time>
      </trkpt>
      <trkpt lat="44.20411" lon="3.22149">
        <ele>436</ele>
        <time>2009-07-08T11:45:08Z</time>
      </trkpt>
      <trkpt lat="44.20398" lon="3.22112">
        <ele>436</ele>
        <time>2009-07-08T11:45:15Z</time>
      </trkpt>
      <trkpt lat="44.20376" lon="3.22088">
        <ele>435</ele>
        <time>2009-07-08T11:45:20Z</time>
      </trkpt>
      <trkpt lat="44.20341" lon="3.22068">
        <ele>439</ele>
        <time>2009-07-08T11:45:28Z</time>
      </trkpt>
      <trkpt lat="44.20332" lon="3.22061">
        <ele>442</ele>
        <time>2009-07-08T11:45:33Z</time>
      </trkpt>
      <trkpt lat="44.20291" lon="3.22024">
        <ele>444</ele>
        <time>2009-07-08T11:45:44Z</time>
      </trkpt>
      <trkpt lat="44.20283" lon="3.21968">
        <ele>447</ele>
        <time>2009-07-08T11:45:57Z</time>
      </trkpt>
      <trkpt lat="44.20289" lon="3.21949">
        <ele>448</ele>
        <time>2009-07-08T11:46:01Z</time>
      </trkpt>
      <trkpt lat="44.20282" lon="3.21911">
        <ele>450</ele>
        <time>2009-07-08T11:46:10Z</time>
      </trkpt>
      <trkpt lat="44.20275" lon="3.21877">
        <ele>451</ele>
        <time>2009-07-08T11:46:18Z</time>
      </trkpt>
      <trkpt lat="44.20277" lon="3.21856">
        <ele>453</ele>
        <time>2009-07-08T11:46:23Z</time>
      </trkpt>
      <trkpt lat="44.20278" lon="3.21853">
        <ele>453</ele>
        <time>2009-07-08T11:46:24Z</time>
      </trkpt>
      <trkpt lat="44.20266" lon="3.21834">
        <ele>457</ele>
        <time>2009-07-08T11:46:33Z</time>
      </trkpt>
      <trkpt lat="44.20255" lon="3.21826">
        <ele>458</ele>
        <time>2009-07-08T11:46:38Z</time>
      </trkpt>
      <trkpt lat="44.20238" lon="3.21797">
        <ele>460</ele>
        <time>2009-07-08T11:46:51Z</time>
      </trkpt>
      <trkpt lat="44.20216" lon="3.21776">
        <ele>463</ele>
        <time>2009-07-08T11:47:03Z</time>
      </trkpt>
      <trkpt lat="44.20198" lon="3.21757">
        <ele>465</ele>
        <time>2009-07-08T11:47:14Z</time>
      </trkpt>
      <trkpt lat="44.20188" lon="3.21748">
        <ele>466</ele>
        <time>2009-07-08T11:47:20Z</time>
      </trkpt>
      <trkpt lat="44.20172" lon="3.21736">
        <ele>469</ele>
        <time>2009-07-08T11:47:29Z</time>
      </trkpt>
      <trkpt lat="44.20138" lon="3.21718">
        <ele>472</ele>
        <time>2009-07-08T11:47:46Z</time>
      </trkpt>
      <trkpt lat="44.20102" lon="3.21697">
        <ele>475</ele>
        <time>2009-07-08T11:48:02Z</time>
      </trkpt>
      <trkpt lat="44.20081" lon="3.21684">
        <ele>473</ele>
        <time>2009-07-08T11:48:10Z</time>
      </trkpt>
      <trkpt lat="44.2006" lon="3.2168">
        <ele>472</ele>
        <time>2009-07-08T11:48:15Z</time>
      </trkpt>
      <trkpt lat="44.20045" lon="3.21683">
        <ele>469</ele>
        <time>2009-07-08T11:48:18Z</time>
      </trkpt>
      <trkpt lat="44.20026" lon="3.21687">
        <ele>468</ele>
        <time>2009-07-08T11:48:21Z</time>
      </trkpt>
      <trkpt lat="44.20006" lon="3.2167">
        <ele>468</ele>
        <time>2009-07-08T11:48:26Z</time>
      </trkpt>
      <trkpt lat="44.20003" lon="3.21662">
        <ele>469</ele>
        <time>2009-07-08T11:48:28Z</time>
      </trkpt>
      <trkpt lat="44.19972" lon="3.21627">
        <ele>468</ele>
        <time>2009-07-08T11:48:38Z</time>
      </trkpt>
      <trkpt lat="44.19952" lon="3.21618">
        <ele>468</ele>
        <time>2009-07-08T11:48:42Z</time>
      </trkpt>
      <trkpt lat="44.19937" lon="3.21614">
        <ele>468</ele>
        <time>2009-07-08T11:48:45Z</time>
      </trkpt>
      <trkpt lat="44.19895" lon="3.21627">
        <ele>471</ele>
        <time>2009-07-08T11:48:57Z</time>
      </trkpt>
      <trkpt lat="44.19882" lon="3.21626">
        <ele>472</ele>
        <time>2009-07-08T11:49:01Z</time>
      </trkpt>
      <trkpt lat="44.19873" lon="3.21621">
        <ele>471</ele>
        <time>2009-07-08T11:49:03Z</time>
      </trkpt>
      <trkpt lat="44.19856" lon="3.21615">
        <ele>471</ele>
        <time>2009-07-08T11:49:07Z</time>
      </trkpt>
      <trkpt lat="44.19811" lon="3.21603">
        <ele>470</ele>
        <time>2009-07-08T11:49:18Z</time>
      </trkpt>
      <trkpt lat="44.19793" lon="3.216">
        <ele>467</ele>
        <time>2009-07-08T11:49:22Z</time>
      </trkpt>
      <trkpt lat="44.19767" lon="3.21573">
        <ele>462</ele>
        <time>2009-07-08T11:49:28Z</time>
      </trkpt>
      <trkpt lat="44.19771" lon="3.21555">
        <ele>460</ele>
        <time>2009-07-08T11:49:30Z</time>
      </trkpt>
      <trkpt lat="44.19792" lon="3.21525">
        <ele>459</ele>
        <time>2009-07-08T11:49:33Z</time>
      </trkpt>
      <trkpt lat="44.1977" lon="3.215">
        <ele>458</ele>
        <time>2009-07-08T11:49:39Z</time>
      </trkpt>
      <trkpt lat="44.19749" lon="3.2149">
        <ele>458</ele>
        <time>2009-07-08T11:49:43Z</time>
      </trkpt>
      <trkpt lat="44.19731" lon="3.21469">
        <ele>459</ele>
        <time>2009-07-08T11:49:48Z</time>
      </trkpt>
      <trkpt lat="44.19713" lon="3.21458">
        <ele>458</ele>
        <time>2009-07-08T11:49:52Z</time>
      </trkpt>
      <trkpt lat="44.19693" lon="3.21446">
        <ele>456</ele>
        <time>2009-07-08T11:49:56Z</time>
      </trkpt>
      <trkpt lat="44.19675" lon="3.21435">
        <ele>453</ele>
        <time>2009-07-08T11:49:59Z</time>
      </trkpt>
      <trkpt lat="44.19669" lon="3.21432">
        <ele>453</ele>
        <time>2009-07-08T11:50:00Z</time>
      </trkpt>
      <trkpt lat="44.19663" lon="3.21429">
        <ele>453</ele>
        <time>2009-07-08T11:50:01Z</time>
      </trkpt>
      <trkpt lat="44.19641" lon="3.21411">
        <ele>452</ele>
        <time>2009-07-08T11:50:05Z</time>
      </trkpt>
      <trkpt lat="44.19631" lon="3.21397">
        <ele>450</ele>
        <time>2009-07-08T11:50:07Z</time>
      </trkpt>
      <trkpt lat="44.1962" lon="3.21386">
        <ele>449</ele>
        <time>2009-07-08T11:50:09Z</time>
      </trkpt>
      <trkpt lat="44.19552" lon="3.21323">
        <ele>447</ele>
        <time>2009-07-08T11:50:23Z</time>
      </trkpt>
      <trkpt lat="44.19543" lon="3.21309">
        <ele>446</ele>
        <time>2009-07-08T11:50:25Z</time>
      </trkpt>
      <trkpt lat="44.19523" lon="3.21291">
        <ele>445</ele>
        <time>2009-07-08T11:50:28Z</time>
      </trkpt>
      <trkpt lat="44.19514" lon="3.21277">
        <ele>444</ele>
        <time>2009-07-08T11:50:30Z</time>
      </trkpt>
      <trkpt lat="44.19465" lon="3.21228">
        <ele>444</ele>
        <time>2009-07-08T11:50:40Z</time>
      </trkpt>
      <trkpt lat="44.19448" lon="3.21209">
        <ele>442</ele>
        <time>2009-07-08T11:50:43Z</time>
      </trkpt>
      <trkpt lat="44.1943" lon="3.21155">
        <ele>440</ele>
        <time>2009-07-08T11:50:49Z</time>
      </trkpt>
      <trkpt lat="44.19411" lon="3.21117">
        <ele>439</ele>
        <time>2009-07-08T11:50:53Z</time>
      </trkpt>
      <trkpt lat="44.19396" lon="3.21092">
        <ele>437</ele>
        <time>2009-07-08T11:50:56Z</time>
      </trkpt>
      <trkpt lat="44.19398" lon="3.21082">
        <ele>437</ele>
        <time>2009-07-08T11:50:57Z</time>
      </trkpt>
      <trkpt lat="44.19368" lon="3.21018">
        <ele>434</ele>
        <time>2009-07-08T11:51:05Z</time>
      </trkpt>
      <trkpt lat="44.19348" lon="3.20979">
        <ele>432</ele>
        <time>2009-07-08T11:51:10Z</time>
      </trkpt>
      <trkpt lat="44.1934" lon="3.2094">
        <ele>430</ele>
        <time>2009-07-08T11:51:14Z</time>
      </trkpt>
      <trkpt lat="44.19336" lon="3.20931">
        <ele>428</ele>
        <time>2009-07-08T11:51:15Z</time>
      </trkpt>
      <trkpt lat="44.19331" lon="3.20911">
        <ele>428</ele>
        <time>2009-07-08T11:51:17Z</time>
      </trkpt>
      <trkpt lat="44.1932" lon="3.20884">
        <ele>427</ele>
        <time>2009-07-08T11:51:20Z</time>
      </trkpt>
      <trkpt lat="44.19305" lon="3.20847">
        <ele>423</ele>
        <time>2009-07-08T11:51:24Z</time>
      </trkpt>
      <trkpt lat="44.19298" lon="3.20826">
        <ele>421</ele>
        <time>2009-07-08T11:51:26Z</time>
      </trkpt>
      <trkpt lat="44.19298" lon="3.20789">
        <ele>419</ele>
        <time>2009-07-08T11:51:30Z</time>
      </trkpt>
      <trkpt lat="44.19285" lon="3.20765">
        <ele>416</ele>
        <time>2009-07-08T11:51:39Z</time>
      </trkpt>
      <trkpt lat="44.19279" lon="3.20759">
        <ele>416</ele>
        <time>2009-07-08T11:51:48Z</time>
      </trkpt>
      <trkpt lat="44.19252" lon="3.20737">
        <ele>417</ele>
        <time>2009-07-08T11:51:58Z</time>
      </trkpt>
      <trkpt lat="44.19218" lon="3.20688">
        <ele>414</ele>
        <time>2009-07-08T11:52:12Z</time>
      </trkpt>
      <trkpt lat="44.19215" lon="3.20683">
        <ele>414</ele>
        <time>2009-07-08T11:52:13Z</time>
      </trkpt>
      <trkpt lat="44.1921" lon="3.20665">
        <ele>414</ele>
        <time>2009-07-08T11:52:16Z</time>
      </trkpt>
      <trkpt lat="44.19203" lon="3.20655">
        <ele>414</ele>
        <time>2009-07-08T11:52:18Z</time>
      </trkpt>
      <trkpt lat="44.19185" lon="3.20622">
        <ele>415</ele>
        <time>2009-07-08T11:52:25Z</time>
      </trkpt>
      <trkpt lat="44.19176" lon="3.20603">
        <ele>415</ele>
        <time>2009-07-08T11:52:33Z</time>
      </trkpt>
      <trkpt lat="44.19176" lon="3.20604">
        <ele>415</ele>
        <time>2009-07-08T11:53:16Z</time>
      </trkpt>
      <trkpt lat="44.19175" lon="3.20604">
        <ele>416</ele>
        <time>2009-07-08T11:53:43Z</time>
      </trkpt>
      <trkpt lat="44.19174" lon="3.20605">
        <ele>415</ele>
        <time>2009-07-08T11:54:47Z</time>
      </trkpt>
      <trkpt lat="44.19174" lon="3.20605">
        <ele>415</ele>
        <time>2009-07-08T11:55:30Z</time>
      </trkpt>
      <trkpt lat="44.19173" lon="3.20604">
        <ele>415</ele>
        <time>2009-07-08T11:56:01Z</time>
      </trkpt>
      <trkpt lat="44.19176" lon="3.20604">
        <ele>415</ele>
        <time>2009-07-08T11:56:23Z</time>
      </trkpt>
      <trkpt lat="44.19176" lon="3.20604">
        <ele>415</ele>
        <time>2009-07-08T11:56:55Z</time>
      </trkpt>
      <trkpt lat="44.19177" lon="3.20605">
        <ele>415</ele>
        <time>2009-07-08T11:57:39Z</time>
      </trkpt>
    </trkseg>
  </trk>
</gpx>